Date StartTime U_cm/s V_cm/s W_cm/s Ustd_cm/s Vstd_cm/s Wstd_cm/s Uvar_(cm/s)^2 Vvar_(cm/s)^2 Wvar_(cm/s)^2 KE_(m/s)^2 TurbulentKE_(m/s)^2 HorizWindSpeed_cm/s FrictionSpeec_cm/s DragCoef SpeedOfSound_m/s SonicTemperature_C Pressure_mb 
09/28/2014  00:00:00      -97.471       -4.521      -13.328       28.513       22.863       16.178      812.971      522.702      261.731        0.565        0.080       97.576       12.038        0.015      338.015       10.381      856.769
09/28/2014  00:01:00      -98.249       -8.149       -7.706       25.821       27.751       15.217      666.728      770.098      231.565        0.572        0.083       98.587       14.968        0.023      338.024       10.396      856.782
09/28/2014  00:02:00     -100.453      -27.374       -8.230       31.620       34.909       17.724      999.830     1218.654      314.141        0.672        0.127      104.116       10.958        0.011      338.024       10.392      856.779
09/28/2014  00:03:00     -105.859      -20.958      -14.144       19.725       19.732       17.285      389.093      389.333      298.760        0.646        0.054      107.914       13.099        0.015      338.006       10.365      856.768
09/28/2014  00:04:00      -84.757       -8.216       -9.889       28.961       20.080       16.429      838.719      403.208      269.908        0.443        0.076       85.155       13.778        0.026      338.020       10.387      856.761
09/28/2014  00:05:00      -66.392        9.370      -15.255       23.581       31.247       17.957      556.073      976.396      322.464        0.329        0.093       67.050       14.150        0.045      338.071       10.474      856.756
09/28/2014  00:06:00     -117.980        1.198      -17.479       30.227       26.917       13.894      913.661      724.526      193.044        0.803        0.092      117.986        8.654        0.005      338.053       10.443      856.768
09/28/2014  00:07:00      -63.163      -10.835      -11.684       16.395       28.260       11.147      268.806      798.612      124.248        0.272        0.060       64.085        6.488        0.010      338.064       10.461      856.783
09/28/2014  00:08:00     -107.598      -26.583      -11.094       43.657       39.216       20.794     1905.945     1537.921      432.398        0.814        0.194      110.833       14.050        0.016      338.058       10.449      856.789
09/28/2014  00:09:00      -91.617       -8.599       -6.681       27.664       31.022       15.820      765.271      962.343      250.262        0.524        0.099       92.020       14.675        0.025      338.014       10.377      856.797
09/28/2014  00:10:00     -131.959      -32.071      -12.316       20.129       27.837       14.859      405.184      774.871      220.779        1.000        0.070      135.800        8.919        0.004      338.034       10.412      856.789
09/28/2014  00:11:00      -73.356      -31.248        2.545       44.543       29.397       19.886     1984.051      864.192      395.452        0.480        0.162       79.734       12.756        0.026      338.040       10.421      856.782
09/28/2014  00:12:00     -103.742      -17.478       -5.283       22.253       25.361       13.134      495.201      643.180      172.508        0.620        0.066      105.204       10.004        0.009      338.094       10.513      856.778
09/28/2014  00:13:00      -89.328      -29.029      -11.758       34.205       23.418       15.434     1169.966      548.379      238.199        0.546        0.098       93.926       17.270        0.034      338.071       10.476      856.766
09/28/2014  00:14:00      -40.947      -35.238        6.476       52.587       45.646       22.436     2765.429     2083.513      503.389        0.416        0.268       54.022       25.379        0.221      338.080       10.488      856.751
09/28/2014  00:15:00      -79.114      -49.389        1.380       33.967       29.317       19.183     1153.763      859.507      367.991        0.554        0.119       93.264       14.961        0.026      338.031       10.404      856.748
09/28/2014  00:16:00      -50.964      -24.016        1.617       45.307       23.592       20.816     2052.742      556.597      433.314        0.311        0.152       56.339       22.869        0.165      338.064       10.462      856.740
09/28/2014  00:17:00      -84.047      -10.614       -3.389       22.717       21.127       16.994      516.074      446.355      288.806        0.422        0.063       84.714       15.563        0.034      338.051       10.440      856.741
09/28/2014  00:18:00      -88.258      -36.793       -8.820       22.629       21.907       18.458      512.077      479.938      340.691        0.528        0.067       95.620       16.501        0.030      338.078       10.484      856.745
09/28/2014  00:19:00      -79.610      -28.404       -3.561       23.039       30.191       17.165      530.791      911.494      294.652        0.445        0.087       84.525       11.553        0.019      338.077       10.484      856.754
09/28/2014  00:20:00      -94.039       11.846       -8.299       28.756       15.697       14.687      826.917      246.403      215.705        0.517        0.064       94.782        9.363        0.010      338.057       10.451      856.767
09/28/2014  00:21:00     -131.318       20.746      -16.016       19.512       21.013       14.424      380.718      441.563      208.057        0.948        0.052      132.947        9.654        0.005      338.009       10.372      856.775
09/28/2014  00:22:00     -103.719       11.074       -8.921       23.285       25.810       16.823      542.178      666.141      283.012        0.623        0.075      104.309       10.249        0.010      338.000       10.355      856.784
09/28/2014  00:23:00      -83.462        8.071      -10.211       27.700       20.937       16.198      767.309      438.340      262.364        0.430        0.073       83.851       13.759        0.027      338.025       10.397      856.786
09/28/2014  00:24:00      -83.130       -3.174      -10.388       18.651       33.343       15.642      347.857     1111.754      244.664        0.437        0.085       83.191       16.704        0.040      338.036       10.414      856.795
09/28/2014  00:25:00      -94.690       -0.075      -15.388       23.522       18.661       16.230      553.287      348.230      263.415        0.518        0.058       94.690       11.640        0.015      338.072       10.475      856.792
09/28/2014  00:26:00     -112.239      -55.563      -12.397       26.859       34.319       20.435      721.380     1177.779      417.577        0.908        0.116      125.239       12.402        0.010      338.009       10.371      856.799
09/28/2014  00:27:00      -84.213      -24.497       -4.479       43.869       29.088       22.828     1924.458      846.118      521.096        0.550        0.165       87.703       23.350        0.071      338.012       10.376      856.816
09/28/2014  00:28:00     -156.905      -39.954      -16.661       32.388       52.533       25.049     1048.975     2759.752      627.460        1.546        0.222      161.913       29.049        0.032      338.006       10.367      856.847
09/28/2014  00:29:00     -131.093      -30.175      -19.891       28.859       38.508       22.151      832.838     1482.903      490.666        1.065        0.140      134.521       13.269        0.010      338.044       10.428      856.867
09/28/2014  00:30:00      -73.577      -35.503      -16.835       58.923       29.527       37.160     3471.942      871.815     1380.855        0.634        0.286       81.695       36.095        0.195      338.061       10.458      856.882
09/28/2014  00:31:00      -91.179      -15.802       -4.493       38.639       15.679       19.408     1492.944      245.821      376.680        0.535        0.106       92.539       20.278        0.048      338.029       10.401      856.881
09/28/2014  00:32:00     -123.347      -25.041       -9.379       39.013       37.160       23.312     1522.032     1380.870      543.446        0.969        0.172      125.864       20.762        0.027      337.995       10.347      856.867
09/28/2014  00:33:00     -116.817      -40.714      -12.544       23.074       21.308       16.332      532.430      454.045      266.719        0.836        0.063      123.709       11.840        0.009      338.018       10.385      856.831
09/28/2014  00:34:00     -109.204      -35.999       -9.818       35.232       31.085       16.396     1241.272      966.250      268.834        0.790        0.124      114.984       14.569        0.016      338.041       10.423      856.794
09/28/2014  00:35:00     -100.657      -26.077       -9.728       23.727       23.269       14.803      562.988      541.432      219.118        0.611        0.066      103.979       12.142        0.014      338.028       10.401      856.756
09/28/2014  00:36:00     -119.499      -37.582       -6.257       38.817       30.287       20.036     1506.742      917.323      401.459        0.928        0.141      125.269       21.012        0.028      337.996       10.347      856.728
09/28/2014  00:37:00     -101.494      -45.213       -6.637       37.228       32.091       14.826     1385.939     1029.861      219.815        0.751        0.132      111.109       12.390        0.012      338.031       10.406      856.706
09/28/2014  00:38:00      -91.711      -21.716       -3.825       38.838       27.018       18.048     1508.375      729.952      325.746        0.573        0.128       94.247       19.110        0.041      337.980       10.322      856.690
09/28/2014  00:39:00      -57.377      -27.937        3.859       52.236       36.540       21.999     2728.579     1335.140      483.950        0.432        0.227       63.817       28.594        0.201      338.033       10.411      856.683
09/28/2014  00:40:00      -54.474      -43.066       -5.473       35.479       31.516       19.017     1258.752      993.270      361.629        0.373        0.131       69.441       14.090        0.041      338.050       10.440      856.682
09/28/2014  00:41:00      -95.840      -41.122       -1.216       20.786       26.523       17.290      432.064      703.452      298.944        0.616        0.072      104.289        4.964        0.002      338.077       10.484      856.684
09/28/2014  00:42:00      -80.207      -43.842       -3.121       30.275       33.594       17.550      916.557     1128.554      308.006        0.536        0.118       91.407       10.310        0.013      338.011       10.372      856.700
09/28/2014  00:43:00      -62.711       10.901       -2.114       33.553       24.713       12.169     1125.823      610.747      148.086        0.297        0.094       63.652       10.195        0.026      338.001       10.356      856.720
09/28/2014  00:44:00      -80.142       33.781      -11.248       15.895       20.211       11.461      252.657      408.478      131.347        0.424        0.040       86.971        5.421        0.004      338.005       10.363      856.742
09/28/2014  00:45:00      -94.333       27.546       -6.783       13.682       12.544        8.581      187.203      157.341       73.631        0.506        0.021       98.272        5.256        0.003      338.003       10.360      856.767
09/28/2014  00:46:00      -89.208       16.195       -8.363       18.193       13.146       13.755      330.975      172.806      189.195        0.449        0.035       90.666        7.505        0.007      338.008       10.368      856.768
09/28/2014  00:47:00      -75.558        4.436       -7.717       16.695       21.020        9.797      278.732      441.845       95.974        0.330        0.041       75.688        6.838        0.008      337.995       10.347      856.771
09/28/2014  00:48:00      -47.608       -8.111       -9.642       23.270       17.952       12.475      541.507      322.269      155.625        0.172        0.051       48.294        6.915        0.021      338.001       10.358      856.757
09/28/2014  00:49:00      -38.343       -4.855       -4.579       19.218       14.332        9.338      369.336      205.419       87.198        0.109        0.033       38.650       10.308        0.071      338.027       10.401      856.731
09/28/2014  00:50:00      -71.659      -37.441       -7.303       22.241       18.511       11.448      494.641      342.662      131.067        0.378        0.048       80.851        6.667        0.007      338.036       10.413      856.709
09/28/2014  00:51:00      -71.645      -39.225       -9.379       21.912       18.888       14.250      480.151      356.740      203.063        0.390        0.052       81.680        6.678        0.007      338.011       10.374      856.694
09/28/2014  00:52:00      -89.769      -23.873       -2.925       17.430       17.722       12.501      303.811      314.063      156.263        0.471        0.039       92.889        6.094        0.004      338.011       10.372      856.691
09/28/2014  00:53:00      -94.955        4.396       -6.581       20.170       18.949       13.269      406.820      359.050      176.056        0.501        0.047       95.057       11.165        0.014      338.025       10.396      856.680
09/28/2014  00:54:00     -109.981       13.781      -14.604       14.277       28.680       10.892      203.830      822.558      118.634        0.682        0.057      110.841        9.444        0.007      337.989       10.336      856.668
09/28/2014  00:55:00      -95.091      -14.299      -15.292       12.825       11.614       11.645      164.485      134.889      135.597        0.496        0.022       96.160        6.210        0.004      337.957       10.281      856.636
09/28/2014  00:56:00      -68.685      -38.808       -2.714       19.452       13.668       11.723      378.389      186.825      137.438        0.347        0.035       78.890       10.648        0.018      337.943       10.259      856.593
09/28/2014  00:57:00      -71.650      -43.102       -1.310       26.452       15.720       13.158      699.725      247.117      173.125        0.406        0.056       83.615       11.960        0.020      337.974       10.309      856.551
09/28/2014  00:58:00      -96.930      -39.261       -7.362       25.775       25.831       16.733      664.374      667.217      279.980        0.630        0.081      104.579        9.081        0.008      337.996       10.347      856.524
09/28/2014  00:59:00     -112.329      -12.151       -6.736       35.323       26.330       22.699     1247.743      693.264      515.266        0.763        0.123      112.984       20.954        0.034      337.927       10.232      856.507
09/28/2014  01:00:00     -108.554        2.773       -9.697       31.193       24.387       17.797      972.973      594.739      316.722        0.688        0.094      108.589       13.840        0.016      337.952       10.273      856.499
09/28/2014  01:01:00     -152.640       11.564      -13.277       35.303       23.731       21.137     1246.336      563.171      446.788        1.293        0.113      153.078       20.119        0.017      337.955       10.279      856.506
09/28/2014  01:02:00     -154.680       -9.640      -15.454       40.406       29.814       18.071     1632.671      888.893      326.546        1.355        0.142      154.981       20.999        0.018      337.951       10.273      856.514
09/28/2014  01:03:00     -132.534      -30.828      -16.447       65.928       26.808       24.564     4346.481      718.677      603.409        1.223        0.283      136.072       33.493        0.061      337.962       10.289      856.506
09/28/2014  01:04:00      -89.624      -36.733        4.850       42.335       34.869       25.512     1792.294     1215.825      650.855        0.653        0.183       96.860       24.717        0.065      337.918       10.217      856.500
09/28/2014  01:05:00      -93.692        6.704      -11.281       30.270       32.221       15.178      916.301     1038.205      230.386        0.557        0.109       93.932       15.785        0.028      337.920       10.220      856.510
09/28/2014  01:06:00      -84.109        1.016       -9.560       25.380       20.714       13.447      644.142      429.076      180.810        0.421        0.063       84.115       10.971        0.017      337.914       10.211      856.515
09/28/2014  01:07:00      -72.231        9.880       -5.131       29.673       21.534       15.737      880.484      463.733      247.662        0.347        0.080       72.904       12.086        0.027      337.918       10.217      856.527
09/28/2014  01:08:00      -70.283       -0.032       -9.833       32.996       45.454       17.552     1088.759     2066.088      308.088        0.425        0.173       70.283       16.157        0.053      337.953       10.275      856.528
09/28/2014  01:09:00      -55.910      -13.116       -4.837       27.409       28.382       16.933      751.262      805.522      286.713        0.258        0.092       57.428       16.249        0.080      337.941       10.257      856.546
09/28/2014  01:10:00      -83.872      -13.594       -8.840       22.788       33.038       20.463      519.302     1091.485      418.715        0.466        0.101       84.966       20.754        0.060      337.983       10.326      856.565
09/28/2014  01:11:00     -132.809       14.527      -10.941       42.277       31.645       19.951     1787.385     1001.390      398.034        1.058        0.159      133.601       18.676        0.020      337.979       10.319      856.575
09/28/2014  01:12:00      -82.844       21.913       -5.282       21.149       34.285       11.118      447.293     1175.457      123.604        0.456        0.087       85.693        8.267        0.009      337.927       10.231      856.579
09/28/2014  01:13:00      -62.621       51.179      -11.377       15.169       21.801       15.014      230.107      475.287      225.421        0.380        0.047       80.874       12.297        0.023      337.933       10.243      856.605
09/28/2014  01:14:00      -25.530       44.672      -13.226       22.358       20.359       13.282      499.858      414.484      176.406        0.196        0.055       51.453        6.847        0.018      338.057       10.450      856.625
09/28/2014  01:15:00      -53.419       23.691       -5.725       20.310       12.562       13.469      412.503      157.811      181.419        0.210        0.038       58.437        7.656        0.017      338.036       10.414      856.648
09/28/2014  01:16:00      -53.865        7.046       -4.412       13.671       19.232        9.520      186.894      369.875       90.629        0.181        0.032       54.324        6.585        0.015      338.035       10.414      856.674
09/28/2014  01:17:00      -45.787        2.631      -11.193       18.301       25.432       14.951      334.924      646.772      223.518        0.172        0.060       45.863        9.034        0.039      338.042       10.424      856.698
09/28/2014  01:18:00      -30.728      -24.817        0.467       14.415       14.954       11.618      207.779      223.622      134.980        0.106        0.028       39.498        6.967        0.031      338.079       10.485      856.718
09/28/2014  01:19:00      -57.216        1.341       -6.427       19.400       28.387       11.458      376.352      805.832      131.284        0.231        0.066       57.232       12.158        0.045      338.051       10.440      856.734
09/28/2014  01:20:00      -73.563      -10.212      -10.319       23.899       18.467       13.351      571.147      341.030      178.237        0.336        0.055       74.268       10.542        0.020      338.067       10.468      856.749
09/28/2014  01:21:00      -63.482        5.656       -8.278       21.385       12.444       12.836      457.316      154.860      164.773        0.245        0.039       63.734       13.977        0.048      338.071       10.474      856.748
09/28/2014  01:22:00      -70.207       -3.446       -7.235       12.226       16.103        9.492      149.483      259.301       90.089        0.275        0.025       70.292        3.395        0.002      338.074       10.478      856.744
09/28/2014  01:23:00      -69.782      -20.832      -11.646       19.543       18.742       12.142      381.921      351.253      147.438        0.316        0.044       72.825       10.028        0.019      338.088       10.505      856.743
09/28/2014  01:24:00      -74.764      -44.509       -0.200       32.644       23.959       20.444     1065.630      574.045      417.972        0.481        0.103       87.010       18.250        0.044      338.104       10.528      856.735
09/28/2014  01:25:00     -100.830      -41.480       -8.140       16.497       14.789       10.396      272.140      218.704      108.087        0.628        0.030      109.029        7.804        0.005      338.097       10.516      856.729
09/28/2014  01:26:00      -64.046      -25.801       -6.020       18.266       15.767       15.303      333.664      248.589      234.172        0.281        0.041       69.048       11.155        0.026      338.110       10.538      856.729
09/28/2014  01:27:00      -84.373      -31.463       -8.678       23.095       15.929       10.796      533.378      253.717      116.545        0.454        0.045       90.048        6.297        0.005      338.116       10.549      856.735
09/28/2014  01:28:00      -85.542      -37.108      -10.837       28.699       25.182       13.649      823.609      634.128      186.293        0.523        0.082       93.244        9.617        0.011      338.082       10.493      856.747
09/28/2014  01:29:00     -101.096       -7.471       -6.964       23.143       22.463       17.266      535.621      504.604      298.110        0.583        0.067      101.372       15.794        0.024      338.064       10.464      856.763
09/28/2014  01:30:00      -96.343      -32.836        3.504       33.905       21.079       14.513     1149.579      444.338      210.633        0.609        0.090      101.785       12.943        0.016      338.045       10.431      856.773
09/28/2014  01:31:00     -111.027      -33.289      -12.685       25.497       26.033       16.695      650.098      677.728      278.726        0.760        0.080      115.910       14.224        0.015      338.045       10.428      856.777
09/28/2014  01:32:00     -107.296      -45.875       -5.062       26.945       22.641       15.836      726.040      512.610      250.790        0.757        0.074      116.692       14.460        0.015      338.047       10.431      856.765
09/28/2014  01:33:00      -97.697      -59.591       -0.429       42.331       28.731       22.274     1791.920      825.471      496.130        0.810        0.156      114.437       18.963        0.027      338.053       10.443      856.760
09/28/2014  01:34:00      -91.832      -56.126      -10.328       24.277       28.489       18.714      589.373      811.628      350.198        0.672        0.088      107.626       14.263        0.018      338.119       10.553      856.751
09/28/2014  01:35:00      -60.724      -43.280        5.368       45.383       26.615       19.330     2059.662      708.373      373.665        0.437        0.157       74.569       17.736        0.057      338.170       10.638      856.733
09/28/2014  01:36:00     -131.617      -53.396       -3.687       30.632       31.586       18.081      938.294      997.645      326.925        1.122        0.113      142.036       13.268        0.009      338.161       10.623      856.712
09/28/2014  01:37:00     -153.176      -21.084      -12.951       33.060       39.052       19.857     1092.995     1525.027      394.290        1.354        0.151      154.621       13.968        0.008      338.102       10.524      856.699
09/28/2014  01:38:00     -132.530      -34.279      -10.827       35.411       30.172       23.282     1253.926      910.360      542.062        1.078        0.135      136.891       19.210        0.020      338.085       10.498      856.685
09/28/2014  01:39:00     -101.771      -46.455       -3.887       29.791       23.141       15.311      887.501      535.521      234.412        0.709        0.083      111.872       11.429        0.010      338.063       10.462      856.687
09/28/2014  01:40:00      -79.302      -34.163        2.963       31.365       23.378       18.659      983.766      546.508      348.166        0.467        0.094       86.348       18.507        0.046      338.077       10.484      856.696
09/28/2014  01:41:00      -76.332       -0.339       -2.066       29.935       22.744       15.166      896.126      517.287      230.015        0.374        0.082       76.333       14.467        0.036      338.098       10.517      856.728
09/28/2014  01:42:00      -91.299       16.496       -0.616       33.735       17.786       18.066     1138.027      316.343      326.383        0.519        0.089       92.777       16.354        0.031      338.084       10.494      856.760
09/28/2014  01:43:00      -47.634       10.229       -1.219       20.329       10.231        6.695      413.257      104.665       44.823        0.147        0.028       48.720        7.666        0.025      338.088       10.504      856.781
09/28/2014  01:44:00       -0.547       14.477        1.672       11.438       14.899       10.346      130.831      221.972      107.043        0.034        0.023       14.488        8.136        0.315      338.131       10.574      856.798
09/28/2014  01:45:00       -3.615       53.140       -7.740       12.448       10.903        8.887      154.949      118.871       78.983        0.162        0.018       53.263        6.303        0.014      338.147       10.600      856.808
09/28/2014  01:46:00      -23.833        4.921       -9.197       21.987       19.375        6.941      483.415      375.384       48.171        0.079        0.045       24.336        3.493        0.021      338.184       10.660      856.803
09/28/2014  01:47:00      -47.943      -20.903       -1.955       15.794       10.490        8.350      249.456      110.033       69.722        0.158        0.021       52.301        4.047        0.006      338.190       10.672      856.786
09/28/2014  01:48:00      -13.782      -22.625        4.872       15.936        9.065        8.932      253.968       82.166       79.781        0.057        0.021       26.492        7.413        0.078      338.203       10.694      856.760
09/28/2014  01:49:00       -7.837      -30.432      -11.541       16.731       13.440        9.134      279.913      180.624       83.432        0.083        0.027       31.425        7.239        0.053      338.260       10.789      856.726
09/28/2014  01:50:00      -24.395      -27.077        2.447       13.279       14.593        9.750      176.344      212.956       95.069        0.091        0.024       36.445        4.227        0.013      338.272       10.810      856.698
09/28/2014  01:51:00      -23.147        2.504        3.576       23.423        7.045       11.346      548.616       49.636      128.722        0.064        0.036       23.282       11.182        0.231      338.295       10.847      856.676
09/28/2014  01:52:00        8.282       13.983       14.276        6.831       16.523        8.678       46.663      273.015       75.305        0.043        0.020       16.252        9.484        0.341      338.248       10.771      856.662
09/28/2014  01:53:00        0.355       20.104       40.163       13.238       14.559       13.027      175.232      211.977      169.699        0.129        0.028       20.107       10.575        0.277      338.277       10.817      856.649
09/28/2014  01:54:00       -8.769       23.287       47.870       10.316       21.324       14.115      106.425      454.728      199.223        0.184        0.038       24.883       14.365        0.333      338.249       10.773      856.644
09/28/2014  01:55:00       -3.285       23.082       49.775       12.748       21.951       12.539      162.519      481.849      157.218        0.191        0.040       23.315       13.221        0.322      338.255       10.781      856.633
09/28/2014  01:56:00       10.242       17.573       39.112       16.354       27.084       15.976      267.467      733.569      255.238        0.160        0.063       20.340        7.062        0.121      338.237       10.752      856.624
09/28/2014  01:57:00       27.848       -0.122       33.683       30.221       41.351       31.415      913.299     1709.883      986.916        0.276        0.181       27.848       30.522        1.201      338.203       10.696      856.623
09/28/2014  01:58:00       10.311       29.971       50.269       27.967       35.774       26.344      782.136     1279.756      693.993        0.314        0.138       31.695       24.140        0.580      338.215       10.714      856.634
09/28/2014  01:59:00       21.710       25.833       51.049       24.369       38.260       28.875      593.833     1463.832      833.747        0.332        0.145       33.745       29.151        0.746      338.225       10.730      856.653
09/28/2014  02:00:00       21.627       61.021       64.366       23.526       24.655       20.865      553.473      607.894      435.367        0.497        0.080       64.740       15.277        0.056      338.201       10.691      856.663
09/28/2014  02:01:00       19.328       46.003       52.110       24.114       27.330       20.655      581.496      746.945      426.615        0.348        0.088       49.899       13.327        0.071      338.244       10.764      856.667
09/28/2014  02:02:00        7.805        0.610       37.214       22.617       48.968       23.267      511.546     2397.844      541.358        0.245        0.173        7.829       29.950       14.636      338.272       10.811      856.674
09/28/2014  02:03:00       53.293      -63.116        9.663       36.643       40.779       27.028     1342.693     1662.957      730.524        0.533        0.187       82.606       24.374        0.087      338.262       10.795      856.673
09/28/2014  02:04:00       60.076      -68.510       -1.644       47.730       53.070       35.421     2278.154     2816.412     1254.658        0.733        0.317       91.120       34.651        0.145      338.190       10.674      856.671
09/28/2014  02:05:00       40.274       -9.961       17.130       42.317       65.775       42.704     1790.709     4326.391     1823.642        0.498        0.397       41.488       40.361        0.946      338.236       10.750      856.672
09/28/2014  02:06:00       21.954      -72.769        6.830       36.781       38.748       34.442     1352.851     1501.400     1186.229        0.493        0.202       76.009       26.635        0.123      338.308       10.871      856.676
09/28/2014  02:07:00       79.128      -90.140      -12.236       40.000       48.723       24.309     1600.021     2373.951      590.943        0.955        0.228      119.944       21.393        0.032      338.275       10.815      856.682
09/28/2014  02:08:00       91.844      -94.169      -16.035       40.794       48.969       31.119     1664.120     2398.002      968.361        1.129        0.252      131.542       23.300        0.031      338.146       10.600      856.683
09/28/2014  02:09:00       74.352      -40.354        1.250       54.050       57.845       33.854     2921.385     3346.088     1146.119        0.728        0.371       84.597       43.252        0.261      338.121       10.555      856.683
09/28/2014  02:10:00        9.175        9.700       34.409       22.045       27.114       19.828      485.972      735.190      393.157        0.149        0.081       13.352       14.358        1.156      338.132       10.576      856.680
09/28/2014  02:11:00       82.092      -44.764       11.689       50.767       36.797       21.882     2577.239     1354.010      478.821        0.664        0.221       93.503       22.335        0.057      338.132       10.576      856.678
09/28/2014  02:12:00       70.534      -16.736       33.897       44.351       47.179       33.164     1966.969     2225.831     1099.836        0.585        0.265       72.492       32.760        0.204      338.152       10.610      856.680
09/28/2014  02:13:00       44.169      -14.552       26.501       30.807       29.747       20.852      949.064      884.894      434.811        0.257        0.113       46.504       17.031        0.134      338.152       10.607      856.683
09/28/2014  02:14:00       30.509      -13.960       13.848       23.930       26.626       19.919      572.657      708.953      396.755        0.150        0.084       33.551       17.985        0.287      338.167       10.633      856.680
09/28/2014  02:15:00       12.258        7.030       23.173       13.645       17.089        9.915      186.195      292.049       98.314        0.066        0.029       14.130        8.592        0.370      338.170       10.639      856.673
09/28/2014  02:16:00       23.690       29.509        0.038       21.612       14.238       12.664      467.077      202.722      160.366        0.113        0.042       37.842       11.077        0.086      338.119       10.551      856.655
09/28/2014  02:17:00       39.011       20.787        5.661       15.410       19.343       13.628      237.465      374.164      185.713        0.139        0.040       44.204        5.068        0.013      338.127       10.566      856.641
09/28/2014  02:18:00       42.807       32.042        4.064       12.154       16.646        8.524      147.730      277.086       72.661        0.169        0.025       53.471        2.672        0.002      338.111       10.539      856.615
09/28/2014  02:19:00       12.815       10.213        4.851       15.685       15.463       12.505      246.012      239.104      156.366        0.047        0.032       16.387        7.032        0.184      338.143       10.592      856.600
09/28/2014  02:20:00       19.137        3.997       10.954       18.695       12.703       12.586      349.503      161.375      158.406        0.059        0.033       19.550       10.115        0.268      338.148       10.601      856.589
09/28/2014  02:21:00        5.454       18.144       15.206       15.991       10.059       11.969      255.697      101.182      143.268        0.055        0.025       18.946       11.339        0.358      338.140       10.589      856.596
09/28/2014  02:22:00        1.296       12.696       16.438        8.469       11.039        9.942       71.717      121.857       98.838        0.036        0.015       12.762        6.490        0.259      338.142       10.590      856.602
09/28/2014  02:23:00       28.147       12.560        8.056       14.871       10.458       13.169      221.157      109.377      173.432        0.076        0.025       30.823        8.676        0.079      338.127       10.565      856.612
09/28/2014  02:24:00       55.908       38.570        5.230       22.549       15.069       11.454      508.467      227.069      131.200        0.275        0.043       67.921        3.357        0.002      338.085       10.497      856.610
09/28/2014  02:25:00       76.666       59.266       14.459       22.824       16.868       22.421      520.944      284.543      502.679        0.545        0.065       96.903       14.242        0.022      338.086       10.499      856.602
09/28/2014  02:26:00       57.405       66.685       49.610       32.251       28.131       22.112     1040.124      791.373      488.947        0.626        0.116       87.990       15.094        0.029      338.145       10.596      856.586
09/28/2014  02:27:00       34.387       60.424       65.496       38.960       31.353       14.521     1517.885      983.009      210.868        0.592        0.136       69.524        5.459        0.006      338.165       10.631      856.579
09/28/2014  02:28:00       42.003       68.733       53.562       24.817       18.839       19.792      615.875      354.898      391.721        0.536        0.068       80.551        7.701        0.009      338.091       10.507      856.574
09/28/2014  02:29:00       64.165       38.105       19.811       24.377       25.301       25.601      594.244      640.165      655.393        0.393        0.094       74.627       15.789        0.045      338.040       10.422      856.579
09/28/2014  02:30:00      109.489       53.448       25.035       31.983       30.800       29.471     1022.932      948.670      868.547        0.916        0.142      121.838       23.006        0.036      338.044       10.430      856.590
09/28/2014  02:31:00       89.167       34.762       39.284       32.533       30.016       26.077     1058.401      900.934      680.026        0.667        0.132       95.704       18.635        0.038      338.031       10.407      856.604
09/28/2014  02:32:00       93.659       32.068       37.599       58.916       52.594       40.735     3471.137     2766.169     1659.341        0.955        0.395       98.997       34.917        0.124      338.034       10.411      856.613
09/28/2014  02:33:00       66.135       62.005       70.062       58.462       48.663       39.757     3417.823     2368.060     1580.651        1.025        0.368       90.655       38.725        0.182      338.001       10.356      856.611
09/28/2014  02:34:00       74.684       80.108       68.019       59.191       42.674       42.913     3503.573     1821.062     1841.544        1.189        0.358      109.522       33.824        0.095      337.977       10.316      856.594
09/28/2014  02:35:00       40.466       47.990       64.438       40.826       45.993       28.107     1666.791     2115.365      790.020        0.633        0.229       62.774       27.272        0.189      338.048       10.436      856.570
09/28/2014  02:36:00       30.774       12.340       48.087       45.551       56.357       29.927     2074.900     3176.122      895.642        0.478        0.307       33.155       36.711        1.226      338.048       10.435      856.551
09/28/2014  02:37:00      104.973      -89.328       -8.722       31.800       37.206       26.442     1011.261     1384.261      699.155        1.108        0.155      137.836       20.657        0.022      338.001       10.356      856.526
09/28/2014  02:38:00       74.080      -36.789       12.574       57.219       59.406       43.792     3273.973     3529.107     1917.774        0.786        0.436       82.712       46.666        0.318      338.027       10.398      856.519
09/28/2014  02:39:00       46.796      -27.772       12.713       43.905       43.530       40.079     1927.664     1894.835     1606.346        0.427        0.271       54.416       28.175        0.268      338.009       10.371      856.522
09/28/2014  02:40:00       58.711      -19.079       37.654       59.431       74.112       46.516     3532.040     5492.556     2163.717        0.821        0.559       61.733       55.851        0.819      338.000       10.354      856.529
09/28/2014  02:41:00       50.251      -32.224        7.947       57.116       57.461       48.068     3262.235     3301.729     2310.545        0.625        0.444       59.695       40.674        0.464      338.006       10.364      856.533
09/28/2014  02:42:00       80.215      -78.452       -2.768       57.059       63.777       35.045     3255.689     4067.482     1228.170        1.057        0.428      112.201       41.455        0.137      337.999       10.354      856.538
09/28/2014  02:43:00       87.396      -78.074      -13.893       29.400       27.784       17.747      864.355      771.938      314.968        0.794        0.098      117.191       13.238        0.013      338.050       10.438      856.543
09/28/2014  02:44:00       12.329      -20.577        4.907       20.124       25.914       21.438      404.989      671.513      459.571        0.107        0.077       23.988       18.363        0.586      338.079       10.486      856.552
09/28/2014  02:45:00       29.255       27.682       26.876       17.740       15.975       21.513      314.702      255.205      462.814        0.169        0.052       40.276       10.369        0.066      338.044       10.428      856.549
09/28/2014  02:46:00       32.257       34.710       46.703       34.854       32.025       22.509     1214.829     1025.573      506.650        0.359        0.137       47.385       20.744        0.192      338.043       10.427      856.549
09/28/2014  02:47:00       26.291       59.218       71.396       39.397       39.959       27.788     1552.129     1596.760      772.195        0.661        0.196       64.792       27.084        0.175      338.057       10.450      856.547
09/28/2014  02:48:00       80.821       86.295       71.587       27.126       23.778       24.166      735.796      565.411      583.986        1.049        0.094      118.232       18.689        0.025      337.997       10.349      856.560
09/28/2014  02:49:00       77.970       83.019       54.700       28.350       28.009       30.197      803.729      784.509      911.875        0.923        0.125      113.892       19.540        0.029      337.951       10.273      856.573
09/28/2014  02:50:00       15.388        4.947       19.166       23.801       40.887       20.427      566.477     1671.782      417.262        0.164        0.133       16.164       20.568        1.619      338.011       10.373      856.582
09/28/2014  02:51:00       20.430       13.045       29.316       17.349       31.990       13.728      300.993     1023.339      188.449        0.148        0.076       24.240       14.576        0.362      338.060       10.454      856.588
09/28/2014  02:52:00       33.926       26.170       24.724       23.282       25.631       27.845      542.046      656.946      775.367        0.221        0.099       42.847       21.542        0.253      338.065       10.462      856.589
09/28/2014  02:53:00       62.977       43.146       43.587       26.452       20.331       22.494      699.693      413.354      505.970        0.467        0.081       76.339       18.841        0.061      338.002       10.359      856.590
09/28/2014  02:54:00       59.877       56.063       39.033       29.133       18.822       18.694      848.722      354.275      349.477        0.490        0.078       82.026       10.860        0.018      337.962       10.292      856.599
09/28/2014  02:55:00       69.002       56.565       29.939       24.670       14.533       15.761      608.634      211.215      248.404        0.496        0.053       89.224        4.342        0.002      337.977       10.316      856.606
09/28/2014  02:56:00       89.472       56.340       25.623       27.243       15.391       25.581      742.166      236.886      654.406        0.673        0.082      105.732       17.919        0.029      337.960       10.288      856.610
09/28/2014  02:57:00       71.471       20.931        9.104       20.947       16.336       19.206      438.778      266.850      368.866        0.335        0.054       74.473       10.678        0.021      337.973       10.308      856.608
09/28/2014  02:58:00       57.193       31.525        3.603       16.303       20.070       15.601      265.790      402.820      243.405        0.259        0.046       65.306       11.781        0.033      337.957       10.282      856.594
09/28/2014  02:59:00       64.770       36.086       -3.721       13.596       14.154       11.418      184.850      200.329      130.369        0.301        0.026       74.144        5.769        0.006      337.943       10.258      856.587
09/28/2014  03:00:00       35.033       40.682       18.966       17.393       17.081       14.798      302.510      291.763      218.967        0.203        0.041       53.688       11.645        0.047      337.947       10.266      856.581
09/28/2014  03:01:00       61.174       63.656       39.637       40.421       18.893       26.088     1633.819      356.961      680.563        0.602        0.134       88.286       26.066        0.087      337.930       10.237      856.585
09/28/2014  03:02:00       90.659       36.949       18.435       45.680       23.920       26.619     2086.642      572.167      708.578        0.665        0.168       97.899       24.856        0.064      337.937       10.249      856.595
09/28/2014  03:03:00      102.173       42.666        5.153       34.225       33.660       23.243     1171.359     1132.983      540.231        0.756        0.142      110.724       17.412        0.025      337.914       10.210      856.607
09/28/2014  03:04:00       64.745       27.574       14.912       29.730       30.953       22.219      883.897      958.065      493.686        0.375        0.117       70.372       16.308        0.054      337.935       10.246      856.619
09/28/2014  03:05:00       85.443       63.449       13.265       30.098       23.196       21.455      905.900      538.047      460.335        0.670        0.095      106.425       13.727        0.017      337.912       10.207      856.630
09/28/2014  03:06:00       79.103       60.340       16.505       46.670       20.972       28.603     2178.114      439.814      818.123        0.680        0.172       99.490       30.293        0.093      337.901       10.185      856.622
09/28/2014  03:07:00       65.695       65.971       43.677       37.904       27.978       28.376     1436.697      782.766      805.191        0.680        0.151       93.101       21.187        0.052      337.984       10.327      856.614
09/28/2014  03:08:00       74.398       54.179       47.990       32.165       28.314       31.653     1034.568      801.668     1001.943        0.681        0.142       92.035       18.156        0.039      337.996       10.349      856.599
09/28/2014  03:09:00      103.704       41.997       23.306       49.409       41.397       34.949     2441.268     1713.717     1221.400        0.922        0.269      111.885       24.684        0.049      337.920       10.219      856.591
09/28/2014  03:10:00      112.840       37.667       -1.604       54.587       40.868       37.472     2979.729     1670.231     1404.132        1.010        0.303      118.961       26.812        0.051      337.913       10.208      856.586
09/28/2014  03:11:00       93.731       31.023       16.318       51.190       45.511       36.575     2620.367     2071.289     1337.742        0.802        0.301       98.731       22.889        0.054      337.889       10.168      856.592
09/28/2014  03:12:00       75.821       37.334       41.632       40.236       39.352       33.512     1618.934     1548.551     1123.027        0.658        0.215       84.514       21.794        0.066      337.894       10.176      856.575
09/28/2014  03:13:00       96.624       43.184       28.126       43.861       35.115       33.653     1923.750     1233.045     1132.493        0.814        0.214      105.835       24.132        0.052      337.890       10.170      856.564
09/28/2014  03:14:00       89.772       27.700        0.729       40.818       30.071       29.548     1666.120      904.282      873.110        0.613        0.172       93.948       19.423        0.043      337.887       10.164      856.544
09/28/2014  03:15:00       59.756        6.611       25.208       42.051       33.338       26.774     1768.303     1111.453      716.832        0.392        0.180       60.121       21.426        0.127      337.892       10.172      856.537
09/28/2014  03:16:00       68.074       43.342       34.345       39.862       30.632       35.134     1588.999      938.335     1234.416        0.573        0.188       80.701       23.868        0.087      337.896       10.179      856.528
09/28/2014  03:17:00       84.880       65.362       29.662       34.378       24.673       26.706     1181.837      608.756      713.195        0.743        0.125      107.130       12.030        0.013      337.898       10.183      856.530
09/28/2014  03:18:00       47.492       38.371       38.716       37.059       30.929       27.252     1373.403      956.580      742.660        0.415        0.154       61.056       24.273        0.158      337.920       10.220      856.546
09/28/2014  03:19:00       65.370       37.231        9.854       26.684       25.449       19.312      712.011      647.669      372.960        0.374        0.087       75.229       13.071        0.030      337.865       10.127      856.557
09/28/2014  03:20:00       73.087       30.132       17.481       26.172       22.592       17.201      684.975      510.376      295.873        0.402        0.075       79.055       10.678        0.018      337.907       10.198      856.548
09/28/2014  03:21:00       21.026       43.096       52.145       23.521       29.623       23.274      553.244      877.516      541.686        0.350        0.099       47.952       20.432        0.182      337.937       10.250      856.538
09/28/2014  03:22:00        0.423        0.338       33.412       13.280       26.164       13.479      176.349      684.547      181.682        0.108        0.052        0.542       13.594      629.567      337.955       10.279      856.527
09/28/2014  03:23:00       24.234      -34.625       22.678       27.853       46.715       22.820      775.807     2182.311      520.750        0.289        0.174       42.263       26.283        0.387      337.985       10.329      856.518
09/28/2014  03:24:00       23.714      -26.012       18.089       27.259       57.977       20.365      743.059     3361.279      414.740        0.304        0.226       35.199       25.169        0.511      337.960       10.288      856.526
09/28/2014  03:25:00        2.097       15.057       34.550       16.614       25.583       17.076      276.016      654.488      291.588        0.132        0.061       15.202       15.463        1.035      337.980       10.321      856.559
09/28/2014  03:26:00        6.552        0.928       26.084       14.689       16.382       10.523      215.765      268.362      110.725        0.066        0.030        6.618        5.717        0.746      337.998       10.351      856.579
09/28/2014  03:27:00       89.516       60.089       30.515       30.356       26.485       22.294      921.487      701.432      497.016        0.734        0.106      107.814        9.595        0.008      337.914       10.211      856.588
09/28/2014  03:28:00       46.476       64.949       58.037       31.987       26.773       20.555     1023.153      716.775      422.510        0.595        0.108       79.865       13.124        0.027      337.965       10.296      856.605
09/28/2014  03:29:00       36.930       58.133       45.199       34.619       24.340       23.543     1198.493      592.424      554.285        0.457        0.117       68.872       19.193        0.078      337.904       10.194      856.605
09/28/2014  03:30:00       60.721       53.172       49.110       34.327       30.246       25.937     1178.356      914.809      672.724        0.585        0.138       80.711       25.011        0.096      337.915       10.211      856.593
09/28/2014  03:31:00       22.838       38.919       41.224       30.138       31.908       19.793      908.277     1018.107      391.754        0.303        0.116       45.125       17.407        0.149      337.935       10.245      856.587
09/28/2014  03:32:00       -6.496       14.626       51.559       13.532       30.063       18.552      183.123      903.810      344.174        0.217        0.072       16.004       20.287        1.607      337.985       10.330      856.597
09/28/2014  03:33:00       20.484      -40.169       13.959       47.657       46.939       31.653     2271.153     2203.283     1001.929        0.385        0.274       45.091       31.155        0.477      337.986       10.330      856.606
09/28/2014  03:34:00       48.653      -49.918        7.106       54.513       61.342       31.157     2971.679     3762.828      970.743        0.631        0.385       69.706       40.677        0.341      337.943       10.259      856.607
09/28/2014  03:35:00       65.565      -81.805      -16.449       48.068       63.877       21.676     2310.534     4080.215      469.833        0.906        0.343      104.837       22.138        0.045      337.905       10.195      856.619
09/28/2014  03:36:00       63.733      -48.836       -2.582       41.078       45.372       41.768     1687.371     2058.609     1744.587        0.597        0.275       80.292       32.302        0.162      337.879       10.152      856.627
09/28/2014  03:37:00       49.585      -43.961        9.924       39.905       41.101       28.477     1592.422     1689.271      810.943        0.429        0.205       66.266       30.543        0.212      337.891       10.172      856.630
09/28/2014  03:38:00       42.179       -9.567       29.190       31.434       28.853       36.833      988.097      832.511     1356.637        0.295        0.159       43.250       24.571        0.323      337.893       10.175      856.617
09/28/2014  03:39:00       47.100      -13.393       20.335       45.080       37.508       35.808     2032.231     1406.818     1282.204        0.377        0.236       48.967       34.874        0.507      337.866       10.127      856.605
09/28/2014  03:40:00       52.266       -9.437       10.795       36.571       25.643       26.996     1337.451      657.573      728.762        0.283        0.136       53.112       24.313        0.210      337.875       10.148      856.592
09/28/2014  03:41:00       41.405      -50.013        8.221       32.064       47.930       26.626     1028.081     2297.266      708.933        0.416        0.202       64.928       32.631        0.253      337.875       10.144      856.572
09/28/2014  03:42:00       35.320        6.927       39.223       36.604       17.700       18.516     1339.853      313.297      342.834        0.241        0.100       35.993       17.589        0.239      337.884       10.159      856.550
09/28/2014  03:43:00       50.827      -13.401       21.971       33.567       29.222       29.662     1126.738      853.940      879.823        0.305        0.143       52.564       22.608        0.185      337.886       10.164      856.546
09/28/2014  03:44:00       32.283       -0.514       28.615       41.405       23.642       31.051     1714.337      558.940      964.175        0.255        0.162       32.287       26.071        0.652      337.899       10.186      856.563
09/28/2014  03:45:00        6.140        1.100       34.935       28.667       39.922       33.893      821.816     1593.749     1148.742        0.241        0.178        6.238       20.066       10.348      337.921       10.223      856.569
09/28/2014  03:46:00       20.650      -33.176       28.737       38.898       64.876       37.615     1513.031     4208.908     1414.899        0.474        0.357       39.078       41.065        1.104      337.982       10.324      856.578
09/28/2014  03:47:00       30.873        6.455       36.854       34.113       37.948       28.609     1163.708     1440.052      818.464        0.289        0.171       31.541       23.799        0.569      337.964       10.293      856.587
09/28/2014  03:48:00       23.243        7.143       45.910       41.448       69.918       33.013     1717.933     4888.490     1089.870        0.520        0.385       24.315       46.095        3.594      337.863       10.125      856.596
09/28/2014  03:49:00       78.087      -68.695      -19.165       46.729       64.406       35.424     2183.602     4148.189     1254.846        0.938        0.379      104.002       30.952        0.089      337.835       10.077      856.598
09/28/2014  03:50:00       60.760      -64.669       -3.270       51.403       61.921       36.473     2642.237     3834.259     1330.307        0.784        0.390       88.735       35.862        0.163      337.821       10.053      856.600
09/28/2014  03:51:00       41.351      -10.188       14.190       31.582       27.428       31.665      997.410      752.279     1002.687        0.238        0.138       42.587       24.326        0.326      337.817       10.050      856.604
09/28/2014  03:52:00       42.723       38.471       53.295       34.887       40.525       27.279     1217.115     1642.274      744.148        0.487        0.180       57.491       24.112        0.176      337.809       10.035      856.615
09/28/2014  03:53:00       24.063       18.597       34.758       29.790       30.438       20.526      887.472      926.462      421.320        0.218        0.112       30.412       19.869        0.427      337.848       10.098      856.630
09/28/2014  03:54:00        0.528        9.982       30.706       14.339       20.459        9.643      205.603      418.555       92.994        0.088        0.036        9.996        6.772        0.459      337.900       10.188      856.636
09/28/2014  03:55:00       35.539      -43.904        4.831       41.163       39.348       19.839     1694.368     1548.235      393.592        0.342        0.182       56.485       26.993        0.228      337.861       10.121      856.627
09/28/2014  03:56:00       51.214      -37.678        0.801       30.663       36.968       23.811      940.198     1366.639      566.955        0.346        0.144       63.581       29.246        0.212      337.830       10.069      856.612
09/28/2014  03:57:00        4.202       24.774       37.579       19.659       18.014       15.618      386.484      324.512      243.911        0.150        0.048       25.127       13.196        0.276      337.825       10.062      856.597
09/28/2014  03:58:00      -32.164        5.612       17.688       14.755       22.585       16.144      217.699      510.080      260.625        0.118        0.049       32.650       12.533        0.147      337.907       10.199      856.593
09/28/2014  03:59:00      -59.670       25.476       -2.862       24.683       21.232       20.247      609.270      450.783      409.930        0.284        0.073       64.881       12.267        0.036      337.889       10.168      856.594
09/28/2014  04:00:00      -37.194       19.813       -2.620       25.525       20.276       12.206      651.522      411.110      148.989        0.150        0.061       42.142        9.685        0.053      337.897       10.181      856.590
09/28/2014  04:01:00      -67.604       23.885        5.238       28.702       25.130       17.685      823.805      631.514      312.757        0.347        0.088       71.699       13.380        0.035      337.821       10.053      856.595
09/28/2014  04:02:00      -97.321      -21.497       -4.009       28.415       16.535       12.311      807.412      273.414      151.552        0.559        0.062       99.666       13.093        0.017      337.756        9.947      856.593
09/28/2014  04:03:00     -103.738      -23.679       -1.246       15.696       22.946       12.329      246.351      526.517      151.993        0.612        0.046      106.407        6.485        0.004      337.801       10.021      856.600
09/28/2014  04:04:00      -66.291      -61.759        5.149       26.538       23.731       16.233      704.255      563.181      263.522        0.488        0.077       90.602       11.494        0.016      337.783        9.992      856.595
09/28/2014  04:05:00      -56.068      -56.723       -0.132       36.235       22.859       16.624     1312.950      522.524      276.371        0.424        0.106       79.757       22.731        0.081      337.822       10.054      856.590
09/28/2014  04:06:00      -84.068      -56.643       -4.193       45.569       23.981       17.037     2076.502      575.084      290.248        0.662        0.147      101.370       15.809        0.024      337.832       10.072      856.583
09/28/2014  04:07:00      -51.222      -28.198        5.784       37.362       23.124       20.365     1395.946      534.699      414.742        0.290        0.117       58.471       20.148        0.119      337.823       10.056      856.571
09/28/2014  04:08:00     -107.845      -23.078        0.469       32.526       28.029       21.217     1057.916      785.645      450.144        0.723        0.115      110.286       19.418        0.031      337.745        9.928      856.555
09/28/2014  04:09:00      -95.443      -49.673        1.736       38.982       20.539       18.220     1519.598      421.847      331.982        0.693        0.114      107.595       18.983        0.031      337.739        9.916      856.549
09/28/2014  04:10:00     -101.149      -63.955       -1.092       35.777       30.414       23.025     1280.009      925.036      530.134        0.853        0.137      119.672       20.479        0.029      337.750        9.935      856.542
09/28/2014  04:11:00      -95.501      -77.152        1.436       41.518       33.740       24.552     1723.762     1138.386      602.803        0.927        0.173      122.772       18.944        0.024      337.720        9.885      856.523
09/28/2014  04:12:00     -102.279      -80.201        3.918       43.473       36.117       27.494     1889.888     1304.425      755.913        1.043        0.198      129.974       21.201        0.027      337.650        9.768      856.490
09/28/2014  04:13:00     -128.339      -88.283        7.030       68.386       51.734       30.130     4676.641     2676.380      907.803        1.629        0.413      155.772       34.893        0.050      337.643        9.754      856.453
09/28/2014  04:14:00     -143.895      -97.197        2.432       80.108       47.253       36.570     6417.261     2232.879     1337.337        2.007        0.499      173.646       41.257        0.056      337.630        9.734      856.426
09/28/2014  04:15:00     -166.675     -114.219        3.328       77.831       52.857       40.153     6057.666     2793.909     1612.254        2.565        0.523      202.056       33.713        0.028      337.638        9.744      856.393
09/28/2014  04:16:00     -169.077     -136.091        0.262       84.388       62.293       43.358     7121.363     3880.363     1879.915        2.999        0.644      217.043       49.603        0.052      337.618        9.709      856.381
09/28/2014  04:17:00     -137.165     -108.864       -1.542       75.406       51.101       36.578     5686.031     2611.283     1337.986        2.015        0.482      175.116       19.310        0.012      337.603        9.687      856.377
09/28/2014  04:18:00     -150.449      -73.202       -3.673      100.073       52.902       36.244    10014.591     2798.655     1313.620        2.106        0.706      167.312       46.255        0.076      337.574        9.638      856.375
09/28/2014  04:19:00     -129.446      -59.761        2.422       42.320       46.031       30.025     1790.954     2118.850      901.484        1.257        0.241      142.576       24.257        0.029      337.565        9.624      856.367
09/28/2014  04:20:00     -137.627      -76.546        6.191       77.553       55.937       36.820     6014.488     3128.948     1355.688        1.767        0.525      157.481       39.112        0.062      337.565        9.623      856.363
09/28/2014  04:21:00      -58.441      -61.594       14.007       58.278       57.976       33.652     3396.355     3361.241     1132.478        0.765        0.395       84.907       41.042        0.234      337.585        9.658      856.351
09/28/2014  04:22:00     -143.828      -87.205        2.901       57.202       41.059       30.038     3272.022     1685.809      902.252        1.708        0.293      168.200       25.600        0.023      337.557        9.610      856.337
09/28/2014  04:23:00      -47.986      -46.025        7.671       40.346       42.494       23.354     1627.763     1805.747      545.397        0.423        0.199       66.491       22.257        0.112      337.563        9.622      856.341
09/28/2014  04:24:00      -69.789      -58.629        5.730       58.201       36.451       28.972     3387.328     1328.655      839.404        0.695        0.278       91.148       26.720        0.086      337.556        9.610      856.371
09/28/2014  04:25:00      -67.820      -74.354       -1.188       30.712       34.685       24.382      943.232     1203.032      594.468        0.643        0.137      100.638       18.194        0.033      337.537        9.577      856.405
09/28/2014  04:26:00      -68.482      -38.531       -2.614       21.548       39.852       23.844      464.319     1588.185      568.533        0.440        0.131       78.578       15.391        0.038      337.540        9.582      856.430
09/28/2014  04:27:00      -48.140       -6.726        7.478       21.433       28.677       17.061      459.393      822.342      291.064        0.200        0.079       48.607       11.816        0.059      337.518        9.545      856.446
09/28/2014  04:28:00       16.080      -55.277       -0.693       21.763       36.617       23.425      473.649     1340.829      548.724        0.284        0.118       57.568       19.909        0.120      337.650        9.767      856.451
09/28/2014  04:29:00      -17.847      -62.932        1.357       36.425       28.199       14.127     1326.748      795.180      199.586        0.330        0.116       65.414       10.165        0.024      337.588        9.662      856.454
09/28/2014  04:30:00      -19.174      -11.357        6.615       30.481       18.318       14.616      929.100      335.551      213.633        0.101        0.074       22.285       16.554        0.552      337.640        9.751      856.457
09/28/2014  04:31:00      -21.912      -19.326       10.111       34.726       31.000       20.137     1205.912      961.007      405.479        0.176        0.129       29.216       18.639        0.407      337.636        9.744      856.462
09/28/2014  04:32:00      -59.171      -33.244       -0.543       39.775       39.410       16.123     1582.037     1553.160      259.938        0.400        0.170       67.870       14.946        0.048      337.586        9.660      856.460
09/28/2014  04:33:00      -53.702      -24.243        7.598       46.856       35.255       22.566     2195.450     1242.945      509.221        0.374        0.197       58.921       19.316        0.107      337.585        9.659      856.459
09/28/2014  04:34:00      -36.820      -56.012       -1.211       46.972       34.393       20.479     2206.357     1182.862      419.389        0.415        0.190       67.030       20.217        0.091      337.558        9.613      856.453
09/28/2014  04:35:00      -70.931      -69.358        3.174       35.150       30.284       19.039     1235.526      917.148      362.500        0.618        0.126       99.206       18.588        0.035      337.556        9.609      856.445
09/28/2014  04:36:00      -80.566      -58.831        4.574       33.343       33.311       26.013     1111.767     1109.593      676.670        0.643        0.145       99.760       21.948        0.048      337.556        9.610      856.423
09/28/2014  04:37:00      -63.441      -69.699       -8.078       32.083       42.451       15.237     1029.304     1802.093      232.154        0.601        0.153       94.249       14.358        0.023      337.553        9.603      856.395
09/28/2014  04:38:00      -56.974      -56.762        3.181       37.712       39.723       23.843     1422.205     1577.944      568.477        0.502        0.178       80.423       22.324        0.077      337.588        9.664      856.362
09/28/2014  04:39:00     -115.981      -80.722       -4.503       24.121       23.880       17.535      581.837      570.243      307.482        1.072        0.073      141.307       14.333        0.010      337.544        9.589      856.332
09/28/2014  04:40:00      -84.010      -61.892        0.587       41.456       39.600       22.400     1718.559     1568.127      501.770        0.734        0.189      104.347       20.387        0.038      337.545        9.591      856.320
09/28/2014  04:41:00      -76.673      -54.384       -3.078       30.989       18.020       17.850      960.321      324.704      318.617        0.522        0.080       94.002       14.138        0.023      337.536        9.576      856.313
09/28/2014  04:42:00      -66.627      -50.818        1.921       31.657       27.404       18.407     1002.144      751.002      338.817        0.456        0.105       83.795       19.838        0.056      337.541        9.584      856.316
09/28/2014  04:43:00      -65.911      -49.165       -4.323       22.942       24.720       15.552      526.314      611.057      241.879        0.408        0.069       82.228        7.414        0.008      337.565        9.624      856.326
09/28/2014  04:44:00      -89.271      -34.644       -7.996       17.400       14.320       14.803      302.753      205.076      219.118        0.498        0.036       95.757        9.476        0.010      337.532        9.568      856.323
09/28/2014  04:45:00      -40.247      -25.931        1.145       22.814       25.342       11.969      520.468      642.208      143.256        0.180        0.065       47.878       14.708        0.094      337.556        9.608      856.339
09/28/2014  04:46:00      -80.422      -10.800       -7.894       24.614       19.421       13.349      605.866      377.161      178.202        0.390        0.058       81.144       11.134        0.019      337.511        9.535      856.342
09/28/2014  04:47:00      -48.408      -15.773        2.162       29.124       18.579       14.327      848.223      345.181      205.273        0.200        0.070       50.913       12.404        0.059      337.509        9.532      856.334
09/28/2014  04:48:00      -36.649      -37.661        6.548       27.172       23.490       16.312      738.324      551.782      266.090        0.218        0.078       52.549       16.897        0.103      337.572        9.636      856.327
09/28/2014  04:49:00      -32.013      -27.777        4.404       29.777       17.598       13.257      886.673      309.692      175.737        0.159        0.069       42.384       14.626        0.119      337.603        9.688      856.338
09/28/2014  04:50:00       -0.995       -3.246       18.682       15.999       10.930       13.971      255.963      119.458      195.183        0.047        0.029        3.395       12.681       13.953      337.625        9.726      856.338
09/28/2014  04:51:00      -21.332      -18.339        5.278       26.646       11.444       13.224      709.991      130.972      174.878        0.092        0.051       28.132       13.994        0.247      337.629        9.733      856.350
09/28/2014  04:52:00      -13.507        5.504        4.372       31.197       21.519       17.543      973.226      463.046      307.772        0.099        0.087       14.586       12.329        0.714      337.612        9.704      856.357
09/28/2014  04:53:00       14.824       31.854       16.951       17.755       15.781       24.719      315.241      249.044      611.047        0.135        0.059       35.134       18.326        0.272      337.550        9.599      856.370
09/28/2014  04:54:00        6.986       41.203       50.562       18.675       15.959       11.711      348.745      254.681      137.146        0.252        0.037       41.791       12.984        0.097      337.573        9.639      856.388
09/28/2014  04:55:00       18.685       37.708       47.073       16.385       18.803        7.776      268.479      353.554       60.466        0.233        0.034       42.084        7.906        0.035      337.586        9.664      856.417
09/28/2014  04:56:00       34.714       25.145       33.699       28.944       19.654       20.665      837.731      386.267      427.053        0.231        0.083       42.864       16.652        0.151      337.583        9.656      856.430
09/28/2014  04:57:00       70.101       40.385       11.426       17.042       15.850       15.201      290.428      251.234      231.085        0.372        0.039       80.902       10.053        0.015      337.525        9.559      856.446
09/28/2014  04:58:00       69.657       42.481       24.329       21.189       16.938       20.064      448.983      286.895      402.554        0.419        0.057       81.589       10.868        0.018      337.518        9.546      856.456
09/28/2014  04:59:00       57.643       17.460       30.003       32.728       23.229       21.717     1071.098      539.596      471.623        0.330        0.104       60.229       16.252        0.073      337.503        9.521      856.472
09/28/2014  05:00:00       69.558       45.328       23.658       29.378       18.263       20.100      863.064      333.526      403.990        0.453        0.080       83.023       13.096        0.025      337.472        9.468      856.483
09/28/2014  05:01:00       66.200       45.126       21.152       13.050       14.604       17.679      170.291      213.263      312.565        0.378        0.035       80.118        9.306        0.013      337.481        9.483      856.486
09/28/2014  05:02:00       61.342       37.160       24.632       17.079       14.934       20.071      291.682      223.036      402.831        0.333        0.046       71.719        8.091        0.013      337.511        9.534      856.496
09/28/2014  05:03:00       26.183       17.957       15.236       23.803       17.209       13.328      566.568      296.166      177.626        0.114        0.052       31.749        8.702        0.075      337.496        9.507      856.501
09/28/2014  05:04:00       39.420       25.480       14.611       13.670       17.743       15.213      186.869      314.804      231.434        0.157        0.037       46.938        7.275        0.024      337.463        9.452      856.509
09/28/2014  05:05:00       47.294       12.387       18.424       21.563       27.414       17.574      464.977      751.514      308.835        0.213        0.076       48.890       15.334        0.098      337.474        9.472      856.523
09/28/2014  05:06:00       27.763       17.961        7.548       26.069       19.100       15.569      679.574      364.819      242.388        0.122        0.064       33.066       16.433        0.247      337.471        9.467      856.527
09/28/2014  05:07:00       48.173       35.626       23.039       21.327       17.152       11.023      454.861      294.208      121.506        0.250        0.044       59.916        8.038        0.018      337.456        9.441      856.528
09/28/2014  05:08:00       62.712       36.235       14.437       20.554       15.423       14.437      422.486      237.874      208.437        0.316        0.043       72.428        7.880        0.012      337.465        9.457      856.516
09/28/2014  05:09:00       68.623       35.816       17.252       22.222       14.754       15.244      493.803      217.689      232.391        0.362        0.047       77.408        8.961        0.013      337.479        9.481      856.512
09/28/2014  05:10:00       61.831       43.913       17.646       18.116       12.781       12.025      328.205      163.356      144.610        0.335        0.032       75.838        6.553        0.007      337.498        9.513      856.508
09/28/2014  05:11:00       59.286       26.026        7.612       12.747       13.905       12.161      162.476      193.356      147.879        0.238        0.025       64.747        4.865        0.006      337.527        9.559      856.515
09/28/2014  05:12:00       53.661       34.427        5.892       10.987       10.708       10.210      120.714      114.666      104.238        0.222        0.017       63.755        5.929        0.009      337.495        9.508      856.514
09/28/2014  05:13:00       37.725       26.845       13.675       26.383       19.869       14.824      696.085      394.785      219.765        0.182        0.066       46.302       14.703        0.101      337.530        9.565      856.502
09/28/2014  05:14:00       30.081       28.681       36.831       18.036       17.068       10.261      325.284      291.300      105.292        0.190        0.036       41.563        8.309        0.040      337.557        9.610      856.474
09/28/2014  05:15:00       24.409      -25.816       19.567       24.083       38.578       28.454      579.980     1488.275      809.620        0.226        0.144       35.528       28.643        0.650      337.609        9.698      856.449
09/28/2014  05:16:00       12.055      -33.271        7.622       19.847       44.612       31.560      393.922     1990.219      996.037        0.234        0.169       35.388       27.789        0.617      337.636        9.744      856.426
09/28/2014  05:17:00      -18.337      -20.781       16.176       20.828       21.562       19.025      433.809      464.919      361.947        0.115        0.063       27.715        7.527        0.074      337.646        9.761      856.408
09/28/2014  05:18:00        2.429      -22.144       -2.178       10.929       24.391       13.719      119.443      594.923      188.198        0.070        0.045       22.277       13.017        0.341      337.699        9.847      856.406
09/28/2014  05:19:00       -5.248       15.150       31.917       10.102       23.030       18.772      102.050      530.401      352.390        0.113        0.049       16.033       17.703        1.219      337.645        9.758      856.416
09/28/2014  05:20:00       -6.447       15.597       17.202       12.649       14.497       16.622      160.002      210.158      276.280        0.061        0.032       16.877       11.345        0.452      337.646        9.763      856.429
09/28/2014  05:21:00       -5.712       20.068       32.640       10.131       18.132       10.642      102.632      328.782      113.247        0.102        0.027       20.865        6.771        0.105      337.665        9.791      856.446
09/28/2014  05:22:00       -9.386       35.506       53.663       12.224       19.600       16.095      149.424      384.175      259.058        0.251        0.040       36.726       14.563        0.157      337.649        9.765      856.454
09/28/2014  05:23:00       19.844       21.471       46.398       32.223       16.534       17.627     1038.323      273.377      310.701        0.231        0.081       29.236       19.188        0.431      337.628        9.731      856.467
09/28/2014  05:24:00       13.966       18.296       37.258       27.812       22.891       21.422      773.494      524.016      458.887        0.184        0.088       23.017       21.082        0.839      337.638        9.748      856.469
09/28/2014  05:25:00        4.780      -38.644       18.217       24.750       24.459       22.386      612.583      598.244      501.128        0.178        0.086       38.938       17.788        0.209      337.692        9.838      856.475
09/28/2014  05:26:00       -2.988       14.734       44.962       13.999       25.549       16.798      195.976      652.742      282.176        0.169        0.057       15.034       15.769        1.100      337.676        9.810      856.466
09/28/2014  05:27:00       -7.190       11.933       46.697       10.457       39.164       20.021      109.355     1533.839      400.830        0.221        0.102       13.932       22.705        2.656      337.722        9.889      856.464
09/28/2014  05:28:00      -11.328       18.668       43.926       11.939       27.170       25.463      142.534      738.197      648.372        0.197        0.076       21.836       24.598        1.269      337.695        9.841      856.463
09/28/2014  05:29:00      -10.918        3.472       13.998        9.269       14.406       11.492       85.916      207.529      132.071        0.038        0.021       11.457        6.158        0.289      337.700        9.851      856.461
09/28/2014  05:30:00       -8.112       31.196       48.226        9.060       25.779       18.730       82.092      664.581      350.807        0.223        0.055       32.234       19.208        0.355      337.683        9.824      856.461
09/28/2014  05:31:00       20.319       33.015       40.629       19.507       18.169       13.535      380.536      330.122      183.206        0.202        0.045       38.767       11.805        0.093      337.645        9.758      856.466
09/28/2014  05:32:00       21.858       18.699       10.685       18.785       13.797       13.814      352.889      190.366      190.828        0.084        0.037       28.765        6.021        0.044      337.581        9.650      856.474
09/28/2014  05:33:00       63.384       32.559        3.046       15.310       14.517       13.151      234.393      210.736      172.944        0.285        0.031       71.258        6.311        0.008      337.554        9.604      856.484
09/28/2014  05:34:00       60.067       32.891       23.254       22.577       21.262       22.037      509.698      452.067      485.626        0.334        0.072       68.483       11.669        0.029      337.594        9.675      856.501
09/28/2014  05:35:00       74.122       47.948       20.430       30.138       22.350       24.342      908.307      499.544      592.544        0.511        0.100       88.279       20.090        0.052      337.533        9.572      856.517
09/28/2014  05:36:00       88.790       58.224       12.404       18.493       19.933       22.014      341.987      397.333      484.622        0.633        0.061      106.178       11.443        0.012      337.519        9.547      856.529
09/28/2014  05:37:00       71.396       48.723       -0.638       16.067       18.836       14.992      258.150      354.799      224.751        0.415        0.042       86.437        9.003        0.011      337.508        9.530      856.546
09/28/2014  05:38:00       81.360       40.622       -0.028       22.735       21.907       22.098      516.873      479.906      488.317        0.488        0.074       90.938       14.425        0.025      337.505        9.525      856.569
09/28/2014  05:39:00       80.433       37.269       -5.950       26.531       18.752       10.711      703.900      351.655      114.718        0.453        0.059       88.648        2.774        0.001      337.524        9.555      856.586
09/28/2014  05:40:00       68.900       38.573       -0.715       25.111       22.059       16.160      630.586      486.581      261.131        0.381        0.069       78.963       13.359        0.029      337.500        9.516      856.597
09/28/2014  05:41:00       75.357       43.583        2.826       17.224       18.484       12.070      296.656      341.670      145.693        0.418        0.039       87.053        7.118        0.007      337.518        9.545      856.606
09/28/2014  05:42:00       50.042       35.166       -1.535       16.953       16.101       19.143      287.413      259.245      366.437        0.233        0.046       61.163       14.626        0.057      337.527        9.563      856.609
09/28/2014  05:43:00       59.019       41.932        6.038       17.317       12.759       14.176      299.883      162.783      200.972        0.297        0.033       72.398        8.629        0.014      337.541        9.585      856.621
09/28/2014  05:44:00       68.233       39.929        1.339       12.370       12.317        9.831      153.008      151.704       96.640        0.333        0.020       79.057        6.514        0.007      337.526        9.560      856.630
09/28/2014  05:45:00       52.040       43.697       34.362       15.448       15.309       16.415      238.635      234.369      269.458        0.327        0.037       67.953        9.974        0.022      337.569        9.633      856.621
09/28/2014  05:46:00       56.812       47.163       14.996        7.080       11.510        9.875       50.129      132.477       97.511        0.298        0.014       73.837        4.327        0.003      337.525        9.560      856.623
09/28/2014  05:47:00       50.707       42.280        7.806       16.651       15.090       12.636      277.254      227.719      159.660        0.254        0.033       66.021       10.083        0.023      337.521        9.555      856.623
09/28/2014  05:48:00       49.771       36.508        5.861       16.189       10.627        9.112      262.083      112.935       83.024        0.215        0.023       61.725        5.253        0.007      337.543        9.586      856.610
09/28/2014  05:49:00       26.633       33.359       -1.028       11.987       10.747        5.634      143.687      115.489       31.737        0.106        0.015       42.686        5.225        0.015      337.546        9.592      856.607
09/28/2014  05:50:00       19.004       58.744       -2.365       11.707       21.408       12.503      137.046      458.312      156.328        0.228        0.038       61.742       10.929        0.031      337.559        9.613      856.602
09/28/2014  05:51:00       16.799       49.385       -0.881       14.537       21.983       13.672      211.317      483.267      186.932        0.180        0.044       52.164       12.253        0.055      337.570        9.633      856.588
09/28/2014  05:52:00       16.900       37.247       -6.321       19.049       13.451       10.437      362.848      180.925      108.940        0.118        0.033       40.901       11.570        0.080      337.587        9.666      856.579
09/28/2014  05:53:00        2.693       23.432       -0.331        9.769       15.572        6.227       95.435      242.495       38.773        0.047        0.019       23.587        6.995        0.088      337.586        9.663      856.578
09/28/2014  05:54:00      -26.716        5.987       -1.851       11.835       13.556        8.141      140.058      183.757       66.279        0.057        0.020       27.378        4.056        0.022      337.597        9.680      856.581
09/28/2014  05:55:00      -39.882      -13.356        4.741       22.537       18.893       13.015      507.916      356.944      169.396        0.141        0.052       42.059       13.587        0.104      337.644        9.756      856.574
09/28/2014  05:56:00      -39.135      -38.400        4.940       35.281       18.770       14.934     1244.723      352.303      223.027        0.242        0.091       54.828       17.462        0.101      337.682        9.821      856.583
09/28/2014  05:57:00      -77.550      -47.681       -6.662       13.809       20.050       11.042      190.682      402.008      121.916        0.452        0.036       91.035        5.785        0.004      337.658        9.783      856.600
09/28/2014  05:58:00      -74.224      -58.709       -1.901       25.562       26.669       14.425      653.401      711.219      208.093        0.527        0.079       94.635       12.907        0.019      337.684        9.826      856.603
09/28/2014  05:59:00      -58.953      -18.398       -1.436       26.888       25.639       13.379      722.950      657.352      179.001        0.269        0.078       61.757       10.082        0.027      337.729        9.899      856.606
09/28/2014  06:00:00      -56.819      -14.326       -4.450       25.601       19.425       13.240      655.421      377.336      175.299        0.233        0.060       58.597        7.401        0.016      337.701        9.853      856.610
09/28/2014  06:01:00      -87.489       15.587       -9.188       32.994       18.222       12.208     1088.614      332.037      149.029        0.478        0.078       88.867       11.071        0.016      337.639        9.751      856.629
09/28/2014  06:02:00     -112.359        4.700      -10.653       22.401       15.369       11.484      501.808      236.221      131.884        0.681        0.043      112.457       11.383        0.010      337.592        9.672      856.631
09/28/2014  06:03:00     -106.716        2.770       -8.500       28.778       21.458       12.633      828.150      460.460      159.587        0.646        0.072      106.752       12.028        0.013      337.601        9.686      856.627
09/28/2014  06:04:00     -101.213      -42.783       -7.905       20.616       21.528       12.739      425.039      463.447      162.290        0.659        0.053      109.884        9.325        0.007      337.616        9.712      856.631
09/28/2014  06:05:00      -70.580      -56.716       -2.795       43.231       30.843       19.973     1868.926      951.290      398.907        0.571        0.161       90.544       20.708        0.052      337.690        9.835      856.628
09/28/2014  06:06:00      -95.673      -56.023       -5.543       41.876       27.715       17.314     1753.561      768.107      299.758        0.757        0.141      110.869       23.890        0.046      337.613        9.708      856.623
09/28/2014  06:07:00      -83.198      -57.176       -4.571       38.302       25.052       18.995     1467.059      627.583      360.820        0.633        0.123      100.951       14.622        0.021      337.610        9.700      856.615
09/28/2014  06:08:00     -120.445      -16.971       -2.697       42.357       35.595       18.603     1794.128     1266.972      346.067        0.910        0.170      121.635       20.290        0.028      337.608        9.696      856.607
09/28/2014  06:09:00     -127.075       -4.860       -6.854       20.725       31.943       20.505      429.537     1020.353      420.472        0.904        0.094      127.168       15.098        0.014      337.565        9.624      856.618
09/28/2014  06:10:00     -104.491       26.460       -3.472       24.015       27.488       20.149      576.710      755.617      405.987        0.668        0.087      107.789       15.194        0.020      337.549        9.598      856.627
09/28/2014  06:11:00      -91.773        1.642      -10.893       23.834       32.635       13.631      568.043     1065.069      185.800        0.518        0.091       91.787        8.290        0.008      337.606        9.694      856.634
09/28/2014  06:12:00      -81.406        7.658       -2.431       31.324       29.752       18.710      981.205      885.199      350.072        0.445        0.111       81.766       17.659        0.047      337.560        9.616      856.635
09/28/2014  06:13:00      -81.330       21.212       -8.094       28.190       22.831       16.709      794.676      521.236      279.194        0.436        0.080       84.051        9.814        0.014      337.558        9.611      856.636
09/28/2014  06:14:00      -82.753      -11.966       -2.594       25.016       26.462       19.479      625.816      700.260      379.412        0.435        0.085       83.613       12.897        0.024      337.613        9.705      856.640
09/28/2014  06:15:00     -127.560        8.363      -11.743       25.853       27.097       11.223      668.361      734.247      125.965        0.900        0.076      127.834        9.555        0.006      337.574        9.639      856.639
09/28/2014  06:16:00     -100.253      -17.723       -8.605       32.226       45.220       21.642     1038.497     2044.860      468.389        0.699        0.178      101.807       11.775        0.013      337.602        9.688      856.636
09/28/2014  06:17:00      -64.712      -36.533      -12.200       40.256       24.403       18.454     1620.578      595.501      340.540        0.411        0.128       74.312       11.119        0.022      337.587        9.662      856.629
09/28/2014  06:18:00      -88.886       -2.757       -1.586       38.086       29.538       18.130     1450.564      872.519      328.701        0.528        0.133       88.929       12.311        0.019      337.574        9.639      856.631
09/28/2014  06:19:00      -54.470      -33.640        0.519       31.621       23.543       14.929      999.883      554.267      222.878        0.294        0.089       64.021        6.664        0.011      337.622        9.721      856.640
09/28/2014  06:20:00      -47.470      -26.266        0.724       46.314       26.026       22.046     2144.994      677.334      486.033        0.313        0.165       54.252       22.223        0.168      337.565        9.625      856.643
09/28/2014  06:21:00      -82.847      -51.621       -4.045       23.605       28.402       14.136      557.200      806.667      199.834        0.555        0.078       97.613        9.753        0.010      337.540        9.580      856.636
09/28/2014  06:22:00      -68.990      -20.713       -2.877       23.575       19.328       17.159      555.800      373.561      294.432        0.321        0.061       72.032       13.986        0.038      337.529        9.565      856.634
09/28/2014  06:23:00      -40.891       -2.710        5.933       33.454       20.838       14.959     1119.145      434.231      223.776        0.175        0.089       40.981       18.632        0.207      337.546        9.592      856.630
09/28/2014  06:24:00      -45.116       -4.494        8.345       28.366       18.464       14.098      804.644      340.933      198.756        0.173        0.067       45.339       10.294        0.052      337.536        9.576      856.621
09/28/2014  06:25:00      -23.104      -22.020       11.602       41.430       17.992       23.418     1716.423      323.710      548.408        0.187        0.129       31.917       16.070        0.253      337.641        9.751      856.616
09/28/2014  06:26:00      -43.744      -54.608       -0.927       36.314       29.676       17.873     1318.680      880.647      319.448        0.371        0.126       69.969       11.911        0.029      337.690        9.834      856.610
09/28/2014  06:27:00      -49.556      -39.077       -3.086       34.998       28.201       15.424     1224.840      795.273      237.891        0.312        0.113       63.110       13.391        0.045      337.663        9.789      856.605
09/28/2014  06:28:00      -13.028      -22.540        5.549       30.462       22.026       17.540      927.904      485.134      307.646        0.121        0.086       26.034       13.911        0.286      337.694        9.841      856.595
09/28/2014  06:29:00      -35.948      -47.804        8.661       41.507       36.522       19.971     1722.868     1333.859      398.841        0.355        0.173       59.812       25.877        0.187      337.698        9.849      856.585
09/28/2014  06:30:00      -50.293      -46.854       -4.606       27.779       21.323       11.864      771.679      454.653      140.757        0.306        0.068       68.737        6.614        0.009      337.691        9.837      856.570
09/28/2014  06:31:00      -42.587      -62.523        5.104       44.970       32.929       21.067     2022.303     1084.347      443.824        0.465        0.178       75.649       26.729        0.125      337.695        9.844      856.564
09/28/2014  06:32:00      -68.879      -57.606       -2.637       36.131       26.840       23.789     1305.463      720.362      565.934        0.533        0.130       89.792       21.791        0.059      337.653        9.772      856.557
09/28/2014  06:33:00      -32.253      -25.771        3.079       31.556       19.909       16.618      995.758      396.381      276.153        0.169        0.083       41.284        8.041        0.038      337.678        9.815      856.552
09/28/2014  06:34:00       -3.987       -2.554        9.192       21.468       13.191       11.756      460.870      173.990      138.199        0.044        0.039        4.735       10.026        4.484      337.732        9.903      856.551
09/28/2014  06:35:00      -46.502      -24.329        0.875       25.344       19.544       14.925      642.334      381.968      222.769        0.200        0.062       52.482       13.978        0.071      337.721        9.885      856.547
09/28/2014  06:36:00      -14.329       -6.178        7.008       17.426       14.352       12.510      303.663      205.970      156.512        0.048        0.033       15.604        8.571        0.302      337.720        9.884      856.547
09/28/2014  06:37:00      -10.836       19.959       -6.348       19.140       20.891       13.048      366.330      436.418      170.238        0.076        0.049       22.711       11.876        0.273      337.699        9.846      856.550
09/28/2014  06:38:00        0.286        0.579       -4.005       17.214       19.734       20.780      296.331      389.434      431.800        0.057        0.056        0.646       10.044      241.913      337.753        9.940      856.558
09/28/2014  06:39:00      -12.852        4.881       30.839       17.214       29.320       22.288      296.307      859.670      496.762        0.140        0.083       13.748       19.674        2.048      337.758        9.947      856.568
09/28/2014  06:40:00      -13.288       13.140       36.775       20.530       21.749       17.449      421.495      473.005      304.478        0.145        0.060       18.688       14.631        0.613      337.752        9.938      856.574
09/28/2014  06:41:00       13.474       12.205       39.103       25.945       18.378       19.579      673.129      337.768      383.321        0.163        0.070       18.179       18.950        1.087      337.731        9.902      856.587
09/28/2014  06:42:00       28.743       19.481       35.060       36.570       20.250       31.466     1337.395      410.055      990.083        0.259        0.137       34.723       15.593        0.202      337.744        9.925      856.607
09/28/2014  06:43:00       42.410       54.187       54.989       46.487       32.391       29.311     2161.001     1049.203      859.120        0.591        0.203       68.810        9.187        0.018      337.733        9.907      856.626
09/28/2014  06:44:00       77.867       53.620       56.317       41.411       34.598       32.376     1714.890     1197.002     1048.225        0.803        0.198       94.542       19.407        0.042      337.694        9.841      856.647
09/28/2014  06:45:00      130.590       70.465       27.280       37.622       28.409       28.066     1415.406      807.058      787.697        1.289        0.151      148.388       21.747        0.021      337.598        9.681      856.672
09/28/2014  06:46:00      115.617       73.605       11.870       42.820       27.716       25.598     1833.526      768.193      655.255        1.109        0.163      137.058       23.116        0.028      337.573        9.637      856.687
09/28/2014  06:47:00      122.901       77.280        9.239       31.124       25.000       23.486      968.695      624.979      551.604        1.165        0.107      145.179       14.549        0.010      337.544        9.587      856.695
09/28/2014  06:48:00       79.383       44.861       11.607       32.829       25.570       22.623     1077.746      653.810      511.812        0.535        0.112       91.182       15.213        0.028      337.500        9.515      856.705
09/28/2014  06:49:00      112.523       58.533       13.112       30.163       23.158       20.889      909.790      536.293      436.358        0.907        0.094      126.837        6.563        0.003      337.498        9.512      856.707
09/28/2014  06:50:00       86.333       58.482       26.579       26.968       21.988       26.835      727.287      483.467      720.100        0.676        0.097      104.276       18.106        0.030      337.505        9.522      856.705
09/28/2014  06:51:00      103.492       56.496       24.378       32.298       26.634       27.783     1043.134      709.368      771.922        0.851        0.126      117.909       20.656        0.031      337.539        9.582      856.707
09/28/2014  06:52:00       86.485       47.837       24.982       30.141       21.345       22.439      908.504      455.625      503.497        0.613        0.093       98.834       10.823        0.012      337.535        9.573      856.712
09/28/2014  06:53:00      122.845       57.373       19.421       34.673       24.601       31.012     1202.246      605.194      961.725        1.076        0.138      135.582       18.081        0.018      337.557        9.611      856.718
09/28/2014  06:54:00       75.129       23.402        7.447       53.051       38.627       39.276     2814.373     1492.061     1542.575        0.605        0.292       78.690       31.758        0.163      337.538        9.578      856.718
09/28/2014  06:55:00       97.974       25.819       30.519       45.741       33.380       35.786     2092.278     1114.247     1280.636        0.784        0.224      101.319       26.173        0.067      337.533        9.572      856.734
09/28/2014  06:56:00       74.459       64.801       50.890       32.859       29.928       26.830     1079.686      895.679      719.859        0.751        0.135       98.708       15.617        0.025      337.537        9.577      856.742
09/28/2014  06:57:00       68.903       23.809       31.724       37.078       39.173       39.361     1374.810     1534.512     1549.281        0.539        0.223       72.901       29.356        0.162      337.561        9.618      856.748
09/28/2014  06:58:00       74.470        6.892       19.025       43.131       26.999       27.993     1860.272      728.923      783.589        0.466        0.169       74.788       23.996        0.103      337.583        9.655      856.758
09/28/2014  06:59:00       76.255       47.520       27.600       35.119       27.712       25.229     1233.339      767.961      636.480        0.574        0.132       89.849       14.716        0.027      337.618        9.714      856.764
09/28/2014  07:00:00       77.321       13.416       43.428       36.599       31.404       25.682     1339.457      986.226      659.541        0.551        0.149       78.476       20.038        0.065      337.649        9.766      856.766
09/28/2014  07:01:00       79.445      -18.403       13.854       47.281       42.470       31.309     2235.479     1803.669      980.281        0.593        0.251       81.549       31.629        0.150      337.648        9.764      856.772
09/28/2014  07:02:00       65.636       43.718       45.745       27.015       33.599       21.917      729.785     1128.903      480.336        0.533        0.117       78.863       15.331        0.038      337.654        9.775      856.773
09/28/2014  07:03:00       39.254       39.443       34.609       33.158       24.998       23.568     1099.467      624.884      555.431        0.329        0.114       55.647       19.499        0.123      337.689        9.831      856.777
09/28/2014  07:04:00       38.410       31.014       36.226       29.801       23.231       20.799      888.070      539.673      432.606        0.280        0.093       49.368       17.774        0.130      337.713        9.872      856.790
09/28/2014  07:05:00       15.407       14.628       29.646       21.392       20.741       12.921      457.607      430.185      166.960        0.119        0.053       21.246       11.517        0.294      337.722        9.887      856.803
09/28/2014  07:06:00       15.487       10.516       35.611       28.572       34.310       15.668      816.381     1177.142      245.484        0.193        0.112       18.720       15.351        0.672      337.754        9.942      856.818
09/28/2014  07:07:00       18.545       53.377       63.708       38.728       33.648       23.199     1499.831     1132.202      538.206        0.521        0.159       56.507       22.082        0.153      337.754        9.942      856.832
09/28/2014  07:08:00       67.596       56.653       21.428       24.323       21.885       21.172      591.631      478.967      448.234        0.488        0.076       88.197       16.465        0.035      337.734        9.910      856.844
09/28/2014  07:09:00       33.310       33.601       37.929       30.764       21.342       18.765      946.434      455.463      352.120        0.272        0.088       47.314        9.802        0.043      337.726        9.895      856.843
09/28/2014  07:10:00       31.600       31.895       46.199       31.193       27.226       15.985      972.996      741.276      255.515        0.306        0.098       44.898        8.890        0.039      337.701        9.853      856.843
09/28/2014  07:11:00       39.552        6.149       36.909       29.964       42.956       28.326      897.822     1845.249      802.386        0.325        0.177       40.028       32.161        0.646      337.735        9.910      856.848
09/28/2014  07:12:00       45.769      -46.273        1.649       26.387       37.458       23.688      696.286     1403.127      561.103        0.345        0.133       65.084       21.574        0.110      337.750        9.936      856.854
09/28/2014  07:13:00       35.481      -35.590        7.031       31.492       41.804       20.455      991.775     1747.538      418.397        0.287        0.158       50.255       20.767        0.171      337.775        9.977      856.863
09/28/2014  07:14:00       90.547      -85.872      -11.349       27.119       25.091       13.719      735.417      629.534      188.219        0.863        0.078      124.791       11.244        0.008      337.757        9.946      856.869
09/28/2014  07:15:00       61.038      -72.311        2.271       24.007       24.221       15.772      576.340      586.651      248.751        0.519        0.071       94.628       13.093        0.019      337.763        9.957      856.869
09/28/2014  07:16:00       67.195      -68.216      -16.173       36.756       24.144       24.591     1350.978      582.948      604.724        0.598        0.127       95.753       21.258        0.049      337.769        9.967      856.876
09/28/2014  07:17:00       94.148      -91.760      -15.567       16.957       13.294       10.552      287.541      176.723      111.339        0.905        0.029      131.467        2.986        0.001      337.695        9.847      856.873
09/28/2014  07:18:00       82.171      -74.748       -0.888       14.406       17.302       11.403      207.527      299.376      130.017        0.649        0.032      111.082       10.726        0.009      337.688        9.832      856.873
09/28/2014  07:19:00       43.626      -32.040       14.160       27.894       24.059       19.798      778.055      578.827      391.965        0.244        0.087       54.127       14.071        0.068      337.768        9.966      856.885
09/28/2014  07:20:00       -0.690       17.959       42.718       21.204       30.654       22.312      449.588      939.673      497.827        0.202        0.094       17.972       20.681        1.324      337.796       10.011      856.904
09/28/2014  07:21:00       10.891      -16.731       29.408       21.589       35.238       20.265      466.068     1241.701      410.690        0.169        0.106       19.963       22.771        1.301      337.861       10.120      856.926
09/28/2014  07:22:00       14.509      -30.887       16.056       30.865       34.406       28.911      952.652     1183.779      835.854        0.220        0.149       34.125       27.353        0.642      337.845       10.093      856.949
09/28/2014  07:23:00        1.356      -36.774       -4.970       26.463       23.485       21.592      700.277      551.542      466.232        0.155        0.086       36.799       13.821        0.141      337.880       10.152      856.978
09/28/2014  07:24:00       10.521      -18.128        6.805       34.518       30.543       23.076     1191.522      932.893      532.499        0.157        0.133       20.960       16.995        0.657      337.863       10.125      856.997
09/28/2014  07:25:00       -8.049       -0.919       16.007       16.654       28.360       18.733      277.366      804.298      350.943        0.088        0.072        8.101       21.072        6.766      337.838       10.082      856.992
09/28/2014  07:26:00       -7.143       16.903       40.581       12.247       14.233       10.048      149.978      202.579      100.960        0.122        0.023       18.350       10.419        0.322      337.802       10.023      856.998
09/28/2014  07:27:00       20.829       67.000        4.866       19.835       19.660       25.330      393.413      386.519      641.625        0.318        0.071       70.163       14.670        0.044      337.772        9.971      857.016
09/28/2014  07:28:00       16.436       37.729        6.951       24.956       21.465       25.018      622.796      460.727      625.890        0.173        0.085       41.154       17.427        0.179      337.786        9.994      857.033
09/28/2014  07:29:00       25.270       32.468       51.248       35.819       23.667       27.548     1282.986      560.120      758.889        0.346        0.130       41.143       27.471        0.446      337.770        9.969      857.048
09/28/2014  07:30:00       46.062       41.551       -5.062       18.460       17.689       20.001      340.772      312.898      400.040        0.246        0.053       62.033       12.808        0.043      337.742        9.922      857.065
09/28/2014  07:31:00       18.541       52.219       -2.006       21.477       24.549       21.162      461.267      602.646      447.824        0.229        0.076       55.413       13.892        0.063      337.733        9.908      857.080
09/28/2014  07:32:00        5.208       41.353        4.582       17.147       16.006       11.782      294.008      256.192      138.820        0.122        0.034       41.680        7.482        0.032      337.731        9.906      857.102
09/28/2014  07:33:00       10.092       52.728       -4.744       13.922       15.542       10.987      193.820      241.543      120.705        0.173        0.028       53.685        8.166        0.023      337.720        9.886      857.121
09/28/2014  07:34:00        9.156       65.963      -11.145       12.746       10.218        7.007      162.457      104.412       49.098        0.244        0.016       66.596        4.268        0.004      337.712        9.872      857.133
09/28/2014  07:35:00       11.871       61.351      -10.451        8.215        9.841        6.437       67.494       96.851       41.433        0.211        0.010       62.489        3.117        0.002      337.730        9.901      857.141
09/28/2014  07:36:00       16.018       51.386       -5.598       13.659       21.605       12.916      186.558      466.779      166.812        0.187        0.041       53.825       14.241        0.070      337.727        9.896      857.159
09/28/2014  07:37:00       20.610       32.091       -0.534       12.758       20.671       11.326      162.775      427.307      128.270        0.109        0.036       38.139        7.821        0.042      337.727        9.897      857.174
09/28/2014  07:38:00       24.292       43.774        3.045       17.560       17.336       14.219      308.370      300.522      202.177        0.166        0.041       50.062       11.195        0.050      337.725        9.894      857.177
09/28/2014  07:39:00       35.657       36.780        2.148       22.566       20.112       15.695      509.231      404.506      246.332        0.189        0.058       51.227       10.435        0.041      337.724        9.892      857.184
09/28/2014  07:40:00       60.789       33.793        0.635       18.699       24.237       15.214      349.671      587.418      231.456        0.300        0.058       69.550       10.325        0.022      337.705        9.860      857.181
09/28/2014  07:41:00       65.186       44.513       22.122       15.905       16.738       20.239      252.971      280.161      409.635        0.383        0.047       78.935        9.281        0.014      337.700        9.852      857.173
09/28/2014  07:42:00       50.619       49.528       40.398       24.493       13.565       18.296      599.913      184.008      334.750        0.388        0.056       70.819        7.455        0.011      337.734        9.909      857.150
09/28/2014  07:43:00       55.230       43.474       29.324       11.003        9.123       10.709      121.063       83.222      114.688        0.306        0.016       70.287        6.830        0.009      337.678        9.814      857.149
09/28/2014  07:44:00       43.146       36.360        7.299       11.139       10.521       16.537      124.075      110.690      273.464        0.187        0.025       56.423        9.282        0.027      337.684        9.825      857.152
09/28/2014  07:45:00       28.364       33.523        5.527       10.362        6.067        9.130      107.364       36.813       83.349        0.109        0.011       43.913        8.410        0.037      337.704        9.857      857.146
09/28/2014  07:46:00       -5.019       36.133       -1.540       12.121        7.505        7.733      146.926       56.325       59.804        0.080        0.013       36.480        8.747        0.057      337.704        9.856      857.144
09/28/2014  07:47:00      -16.393       14.777       -7.809        5.917        7.707        4.347       35.011       59.391       18.895        0.033        0.006       22.070        4.599        0.043      337.712        9.873      857.152
09/28/2014  07:48:00      -13.998        5.954       -7.877        3.810        5.889        4.746       14.517       34.676       22.526        0.018        0.004       15.211        3.598        0.056      337.713        9.874      857.157
09/28/2014  07:49:00      -17.254       15.780        5.281        7.969       15.553        9.523       63.508      241.892       90.695        0.049        0.020       23.381        9.721        0.173      337.764        9.958      857.160
09/28/2014  07:50:00      -13.990       12.645        9.333       11.852       10.819        9.864      140.475      117.053       97.296        0.040        0.018       18.857        4.587        0.059      337.754        9.941      857.176
09/28/2014  07:51:00      -29.689       21.538       -7.224       13.477       11.050        5.792      181.616      122.108       33.552        0.087        0.017       36.679        5.467        0.022      337.747        9.930      857.198
09/28/2014  07:52:00      -52.031       45.307       -6.221       16.162       20.121       13.570      261.224      404.850      184.158        0.282        0.043       68.992        8.834        0.016      337.734        9.910      857.211
09/28/2014  07:53:00      -73.348       13.169       -6.393       22.449       22.946       12.719      503.942      526.518      161.780        0.339        0.060       74.521        7.558        0.010      337.808       10.033      857.230
09/28/2014  07:54:00     -102.524        5.442      -16.628       19.140       22.623       13.581      366.339      511.806      184.446        0.594        0.053      102.669        8.469        0.007      337.873       10.140      857.237
09/28/2014  07:55:00     -137.449      -43.655      -14.367       34.720       30.293       16.642     1205.473      917.644      276.971        1.170        0.120      144.215        8.306        0.003      337.743        9.922      857.242
09/28/2014  07:56:00     -121.490      -70.577       -9.831       29.923       24.351       18.282      895.364      592.952      334.219        1.083        0.091      140.503       13.430        0.009      337.749        9.932      857.254
09/28/2014  07:57:00      -86.113      -20.851      -19.116       25.276       14.725       13.391      638.864      216.822      179.311        0.463        0.052       88.602        6.567        0.005      337.764        9.957      857.273
09/28/2014  07:58:00     -100.246      -29.201       -9.102       27.517       23.008       19.044      757.171      529.381      362.686        0.632        0.082      104.412       14.159        0.018      337.808       10.033      857.290
09/28/2014  07:59:00      -80.644      -21.693      -10.441       28.599       28.723       18.456      817.887      824.989      340.623        0.453        0.099       83.510       12.276        0.022      337.782        9.990      857.307
09/28/2014  08:00:00     -102.705       -6.080       -6.731       38.795       37.132       21.692     1505.040     1378.776      470.533        0.699        0.168      102.885       22.835        0.049      337.785        9.996      857.320
09/28/2014  08:01:00     -125.904      -38.016      -13.133       23.610       25.414       14.312      557.435      645.854      204.843        0.944        0.070      131.518        9.164        0.005      337.763        9.956      857.323
09/28/2014  08:02:00     -129.230      -21.921      -16.879       21.933       25.278       14.705      481.076      638.952      216.230        0.940        0.067      131.076       11.224        0.007      337.782        9.989      857.324
09/28/2014  08:03:00     -110.007      -11.347      -19.253       24.442       25.943       16.334      597.420      673.021      266.796        0.707        0.077      110.591        6.586        0.004      337.770        9.968      857.333
09/28/2014  08:04:00     -100.137      -23.443       -5.390       38.006       35.790       16.983     1444.419     1280.958      288.409        0.681        0.151      102.844        9.477        0.008      337.800       10.020      857.342
09/28/2014  08:05:00     -111.768      -27.301       -6.563       35.933       29.616       20.942     1291.193      877.106      438.552        0.794        0.130      115.054       19.515        0.029      337.776        9.977      857.345
09/28/2014  08:06:00      -95.428      -36.895       -8.138       26.166       27.908       17.203      684.645      778.863      295.953        0.615        0.088      102.312       15.985        0.024      337.816       10.047      857.350
09/28/2014  08:07:00      -73.649      -41.967       -1.916       39.687       29.048       18.207     1575.029      843.770      331.500        0.497        0.138       84.766       13.939        0.027      337.783        9.991      857.371
09/28/2014  08:08:00      -71.452      -23.578      -11.028       15.848       18.024       13.520      251.155      324.853      182.799        0.327        0.038       75.241        8.292        0.012      337.809       10.035      857.378
09/28/2014  08:09:00      -24.528      -22.884        4.741       24.789       18.631       20.588      614.491      347.104      423.880        0.127        0.069       33.545       15.961        0.226      337.867       10.129      857.377
09/28/2014  08:10:00      -83.053      -33.352       -4.754       20.016       24.607       15.919      400.633      605.490      253.414        0.465        0.063       89.499        8.055        0.008      337.873       10.141      857.374
09/28/2014  08:11:00      -74.634       -0.911       -6.819       25.431       17.775       12.298      646.732      315.968      151.237        0.337        0.056       74.639       11.706        0.025      337.804       10.026      857.384
09/28/2014  08:12:00      -66.886      -21.968       -2.558       23.159       21.261       13.988      536.329      452.029      195.654        0.307        0.059       70.401       13.944        0.039      337.816       10.046      857.392
09/28/2014  08:13:00      -86.349      -41.224      -12.147       32.296       14.763       11.595     1043.044      217.948      134.441        0.535        0.070       95.685        9.401        0.010      337.821       10.055      857.390
09/28/2014  08:14:00      -86.292      -35.767        1.072       37.272       29.212       18.581     1389.196      853.315      345.259        0.566        0.129       93.411       16.524        0.031      337.789       10.000      857.394
09/28/2014  08:15:00      -64.121      -16.388       -0.409       27.728       21.889       15.086      768.835      479.126      227.584        0.293        0.074       66.182       14.181        0.046      337.856       10.114      857.414
09/28/2014  08:16:00      -74.094      -17.514       -7.604       25.696       27.056       10.153      660.300      732.023      103.075        0.367        0.075       76.136        9.520        0.016      337.824       10.059      857.435
09/28/2014  08:17:00      -77.844      -27.076       -4.214       30.492       23.245       16.243      929.751      540.340      263.821        0.427        0.087       82.419       14.697        0.032      337.838       10.082      857.444
09/28/2014  08:18:00      -85.372      -37.331       -4.625       26.548       25.113       18.949      704.808      630.683      359.055        0.520        0.085       93.177       17.791        0.036      337.845       10.094      857.452
09/28/2014  08:19:00      -60.428      -51.935        3.359       23.344       20.695       15.147      544.964      428.291      229.421        0.378        0.060       79.679       13.532        0.029      337.839       10.085      857.461
09/28/2014  08:20:00      -32.064      -27.548        5.026       29.893       16.239       16.107      893.596      263.719      259.425        0.161        0.071       42.273       16.432        0.151      337.902       10.189      857.470
09/28/2014  08:21:00      -53.795      -38.223       -1.487       19.836       20.425       13.058      393.466      417.199      170.509        0.267        0.049       65.991        8.786        0.018      337.876       10.145      857.476
09/28/2014  08:22:00      -14.636      -37.456        5.774       17.568       20.012       12.561      308.625      400.472      157.769        0.126        0.043       40.214       11.673        0.084      337.947       10.266      857.479
09/28/2014  08:23:00      -27.202      -43.317        6.737       24.735       19.337       14.238      611.809      373.936      202.724        0.192        0.059       51.150       14.382        0.079      337.956       10.282      857.480
09/28/2014  08:24:00      -35.754      -24.639        5.589       23.587       12.564       11.464      556.368      157.843      131.424        0.138        0.042       43.421       13.263        0.093      337.949       10.269      857.479
09/28/2014  08:25:00      -85.737      -41.868       -6.721       17.402       20.798       12.092      302.825      432.576      146.210        0.502        0.044       95.413        9.422        0.010      337.876       10.148      857.485
09/28/2014  08:26:00      -48.926      -33.662       -7.871       18.212       13.764       12.523      331.688      189.451      156.837        0.213        0.034       59.388        9.611        0.026      337.893       10.174      857.483
09/28/2014  08:27:00      -47.428      -12.797       -1.041       10.420       10.804        8.748      108.569      116.721       76.534        0.136        0.015       49.124        6.366        0.017      337.837       10.081      857.497
09/28/2014  08:28:00      -41.606      -18.597      -10.733       12.467        9.798        7.274      155.427       95.999       52.904        0.125        0.015       45.573        5.023        0.012      337.864       10.126      857.500
09/28/2014  08:29:00      -31.535      -15.139       -0.759       12.512       10.041        9.081      156.562      100.828       82.470        0.078        0.017       34.981        5.337        0.023      337.853       10.108      857.498
09/28/2014  08:30:00      -21.199      -14.641        0.681        7.269        7.060        7.446       52.832       49.845       55.443        0.041        0.008       25.763        5.488        0.045      337.860       10.121      857.498
09/28/2014  08:31:00      -12.762       -4.922       -0.211        7.072        9.119        5.786       50.019       83.163       33.479        0.018        0.008       13.678        3.542        0.067      337.846       10.094      857.494
09/28/2014  08:32:00      -11.582        7.564       18.054        9.584       12.218       18.092       91.846      149.267      327.315        0.054        0.028       13.833       12.224        0.781      337.889       10.166      857.492
09/28/2014  08:33:00       52.261       43.163       26.018       25.729       13.749       18.523      661.977      189.037      343.093        0.323        0.060       67.781       14.898        0.048      337.844       10.093      857.492
09/28/2014  08:34:00       68.962       46.466       12.004       17.778       14.487       18.672      316.071      209.859      348.658        0.397        0.044       83.156        7.739        0.009      337.828       10.067      857.507
09/28/2014  08:35:00       72.467       55.739        6.694       15.059       18.073       14.626      226.785      326.619      213.913        0.459        0.038       91.424        9.108        0.010      337.776        9.978      857.517
09/28/2014  08:36:00       97.689       57.719       -0.474       18.138       15.495       13.306      328.979      240.106      177.055        0.681        0.037      113.467        8.136        0.005      337.752        9.939      857.540
09/28/2014  08:37:00       95.064       43.973       -3.037       24.922       17.923       17.841      621.102      321.222      318.288        0.612        0.063      104.742       10.764        0.011      337.770        9.969      857.554
09/28/2014  08:38:00       81.883       29.294        2.949       36.559       26.435       27.638     1336.524      698.823      763.880        0.518        0.140       86.965       19.807        0.052      337.778        9.981      857.575
09/28/2014  08:39:00       99.672       54.012       -0.550       22.827       20.169       17.789      521.095      406.775      316.454        0.705        0.062      113.366       11.687        0.011      337.749        9.933      857.595
09/28/2014  08:40:00      106.146       59.378        4.046       16.928       16.255       16.981      286.556      264.225      288.345        0.782        0.042      121.626        5.706        0.002      337.736        9.913      857.613
09/28/2014  08:41:00      101.905       60.963        3.791       21.592       15.867       16.361      466.221      251.772      267.674        0.755        0.049      118.748        8.132        0.005      337.751        9.937      857.625
09/28/2014  08:42:00       84.969       52.388       12.545       27.994       21.289       22.315      783.655      453.210      497.977        0.593        0.087       99.821       17.910        0.032      337.772        9.971      857.638
09/28/2014  08:43:00       80.694       49.823       25.453       26.624       12.836       20.246      708.851      164.771      409.892        0.546        0.064       94.836       16.326        0.030      337.768        9.967      857.647
09/28/2014  08:44:00       73.331       65.759        9.482       13.889       14.299       23.218      192.892      204.453      539.053        0.536        0.047       98.497        6.907        0.005      337.817       10.045      857.655
09/28/2014  08:45:00       54.070       48.678       28.092       29.216       20.712       15.719      853.568      428.990      247.082        0.381        0.076       72.754       10.321        0.020      337.878       10.149      857.658
09/28/2014  08:46:00       29.741       14.544       27.237       41.810       20.814       19.802     1748.104      433.222      392.103        0.221        0.129       33.107       19.897        0.361      337.890       10.170      857.668
09/28/2014  08:47:00       48.973       46.796       30.013       21.075       19.265       18.638      444.165      371.123      347.359        0.333        0.058       67.736        5.692        0.007      337.831       10.072      857.680
09/28/2014  08:48:00       45.237       33.755       21.956       24.431       22.190       23.616      596.869      492.413      557.716        0.266        0.082       56.443       13.918        0.061      337.823       10.057      857.682
09/28/2014  08:49:00       62.675       53.868       22.425       18.174       17.712       19.825      330.287      313.729      393.030        0.418        0.052       82.643       11.956        0.021      337.789       10.001      857.684
09/28/2014  08:50:00       68.991       57.232       21.044       17.011       13.247       13.570      289.388      175.477      184.140        0.456        0.032       89.639        5.873        0.004      337.769        9.965      857.693
09/28/2014  08:51:00       70.336       48.182       21.249       25.099       15.392       16.128      629.972      236.900      260.123        0.442        0.056       85.257       15.895        0.035      337.768        9.965      857.699
09/28/2014  08:52:00       67.804       26.644        3.911       27.906       18.849       16.205      778.767      355.300      262.605        0.336        0.070       72.851       14.585        0.040      337.805       10.028      857.706
09/28/2014  08:53:00       76.137       54.204       21.930       22.225       15.736       18.634      493.930      247.611      347.237        0.515        0.054       93.460       11.579        0.015      337.797       10.013      857.718
09/28/2014  08:54:00       68.325       62.887       37.252       32.008       20.570       28.179     1024.499      423.107      794.038        0.613        0.112       92.861       20.873        0.051      337.826       10.062      857.737
09/28/2014  08:55:00       54.809       56.297       36.834       34.861       18.574       21.537     1215.307      345.001      463.836        0.478        0.101       78.571       21.084        0.072      337.842       10.088      857.741
09/28/2014  08:56:00       59.330       37.779       27.273       30.149       22.189       27.127      908.977      492.373      735.894        0.391        0.107       70.337       22.023        0.098      337.858       10.116      857.747
09/28/2014  08:57:00       47.287       33.819       39.648       47.448       36.578       27.362     2251.291     1337.946      748.678        0.464        0.217       58.136       24.275        0.174      337.859       10.118      857.748
09/28/2014  08:58:00       33.469       17.197       32.711       24.423       37.972       18.815      596.500     1441.844      353.997        0.244        0.120       37.628       14.330        0.145      337.853       10.108      857.753
09/28/2014  08:59:00       18.599       15.759       35.786       18.576       20.508       13.671      345.058      420.587      186.909        0.141        0.048       24.377        6.551        0.072      337.922       10.223      857.763
09/28/2014  09:00:00       34.532       41.184       39.562       22.894       20.108       18.832      524.153      404.343      354.639        0.287        0.064       53.745        9.954        0.034      337.911       10.204      857.776
09/28/2014  09:01:00       56.839       39.259       20.015       32.387       20.211       21.279     1048.911      408.484      452.786        0.354        0.096       69.079       10.735        0.024      337.869       10.134      857.780
09/28/2014  09:02:00       70.536       62.951       24.746       25.341       16.419       19.817      642.151      269.576      392.717        0.543        0.065       94.542       13.388        0.020      337.803       10.023      857.788
09/28/2014  09:03:00       51.096       48.869       34.536       26.277       22.745       18.854      690.489      517.354      355.484        0.388        0.078       70.704       16.416        0.054      337.809       10.034      857.793
09/28/2014  09:04:00       56.733       59.755       41.637       31.604       25.547       23.773      998.795      652.647      565.155        0.537        0.111       82.398       14.070        0.029      337.848       10.100      857.802
09/28/2014  09:05:00       82.406       60.166       34.558       28.891       21.597       26.392      834.696      466.445      696.533        0.680        0.100      102.033       18.843        0.034      337.807       10.030      857.817
09/28/2014  09:06:00       62.666       55.359       43.051       32.630       30.496       31.012     1064.730      929.991      961.752        0.590        0.148       83.615       20.360        0.059      337.777        9.981      857.835
09/28/2014  09:07:00       58.115       44.163       49.840       30.582       27.424       18.820      935.229      752.074      354.182        0.493        0.102       72.991       10.976        0.023      337.787        9.998      857.848
09/28/2014  09:08:00       66.528       67.638       45.229       21.955       15.499       22.271      482.009      240.225      495.976        0.613        0.061       94.873       10.149        0.011      337.809       10.033      857.861
09/28/2014  09:09:00       73.541       63.481       31.623       25.435       14.343       21.329      646.952      205.709      454.906        0.587        0.065       97.150       19.341        0.040      337.787        9.996      857.862
09/28/2014  09:10:00       97.685       45.069        8.514       16.120       21.896       16.698      259.853      479.422      278.839        0.633        0.051      107.580        6.889        0.004      337.782        9.989      857.866
09/28/2014  09:11:00       68.365       43.443        8.168       21.406       17.549       12.949      458.225      307.954      167.671        0.378        0.047       81.000       11.225        0.019      337.769        9.969      857.883
09/28/2014  09:12:00       58.596       48.229        9.871       23.943       20.928       15.012      573.255      438.002      225.356        0.355        0.062       75.891       12.862        0.029      337.803       10.024      857.892
09/28/2014  09:13:00       73.574       46.694       -0.956       19.124       15.324       12.911      365.738      234.824      166.702        0.418        0.038       87.141       10.174        0.014      337.777        9.980      857.916
09/28/2014  09:14:00       50.011       25.167        6.235       19.900       15.157       16.739      396.019      229.749      280.204        0.204        0.045       55.987        6.065        0.012      337.813       10.041      857.923
09/28/2014  09:15:00       53.291       37.124        7.537       21.094       25.189       14.178      444.963      634.471      201.018        0.278        0.064       64.947        9.892        0.023      337.834       10.075      857.926
09/28/2014  09:16:00       56.649       34.832       -4.159       21.503       16.796       14.280      462.381      282.098      203.911        0.269        0.047       66.501        9.441        0.020      337.830       10.069      857.937
09/28/2014  09:17:00       48.200       40.961        6.094       16.960       19.031       15.352      287.657      362.174      235.685        0.246        0.044       63.253        8.794        0.019      337.860       10.119      857.949
09/28/2014  09:18:00       54.232       22.173       10.409       29.240       13.547       16.009      854.992      183.522      256.277        0.242        0.065       58.590       15.570        0.071      337.822       10.055      857.961
09/28/2014  09:19:00       47.165       39.034        2.062       30.804       20.419       16.216      948.877      416.937      262.954        0.269        0.081       61.223       12.551        0.042      337.854       10.110      857.978
09/28/2014  09:20:00       58.879       45.599        6.615       29.711       18.183       20.097      882.718      330.609      403.891        0.360        0.081       74.472       13.627        0.033      337.816       10.046      857.997
09/28/2014  09:21:00       68.882       55.700       -3.562       16.649       18.414       14.438      277.195      339.083      208.464        0.434        0.041       88.584        7.567        0.007      337.755        9.945      858.014
09/28/2014  09:22:00       62.969       32.225       -2.675       26.340       12.997       16.459      693.772      168.930      270.908        0.307        0.057       70.736       16.878        0.057      337.797       10.014      858.036
09/28/2014  09:23:00       63.327       47.290        6.296       14.041       13.429       19.126      197.145      180.338      365.819        0.351        0.037       79.036        6.752        0.007      337.839       10.084      858.054
09/28/2014  09:24:00       75.512       58.219       10.836       18.812       15.003       18.120      353.900      225.075      328.341        0.506        0.045       95.349        4.381        0.002      337.778        9.982      858.073
09/28/2014  09:25:00       80.188       51.581       -3.535       17.852       17.362       11.282      318.681      301.454      127.288        0.493        0.037       95.346        4.003        0.002      337.751        9.935      858.089
09/28/2014  09:26:00       56.637       35.539       -3.773       24.931       18.714       14.371      621.566      350.220      206.530        0.283        0.059       66.864        6.745        0.010      337.777        9.980      858.103
09/28/2014  09:27:00       67.918       44.763       -1.971       17.565       13.271       12.220      308.545      176.114      149.330        0.363        0.032       81.342        4.492        0.003      337.773        9.973      858.121
09/28/2014  09:28:00       44.709       30.318       -4.379       23.929       20.783       14.532      572.608      431.917      211.171        0.208        0.061       54.019        9.096        0.028      337.786        9.996      858.136
09/28/2014  09:29:00       34.552       35.877       -6.881       14.931       14.693       12.522      222.927      215.872      156.799        0.156        0.030       49.810        8.908        0.032      337.810       10.033      858.147
09/28/2014  09:30:00        2.913       37.105       -5.783       10.005       15.488        9.486      100.102      239.866       89.983        0.092        0.021       37.219        4.820        0.017      337.814       10.043      858.162
09/28/2014  09:31:00       -3.254       31.281       -5.008        3.842        6.790        4.197       14.764       46.109       17.618        0.055        0.004       31.450        2.197        0.005      337.784        9.992      858.175
09/28/2014  09:32:00        5.269       36.356       -5.626        6.459        6.884        4.494       41.714       47.393       20.199        0.075        0.005       36.736        3.789        0.011      337.780        9.985      858.190
09/28/2014  09:33:00        3.955       45.621       -3.628       10.463       15.747        6.779      109.475      247.969       45.954        0.126        0.020       45.792        3.150        0.005      337.813       10.041      858.196
09/28/2014  09:34:00        0.548       56.589       -7.953        4.900       14.462        7.553       24.008      209.143       57.047        0.178        0.015       56.592        5.475        0.009      337.786        9.994      858.201
09/28/2014  09:35:00      -20.644       32.792       -3.234       24.093       12.615        9.902      580.449      159.147       98.046        0.117        0.042       38.749        7.987        0.042      337.822       10.058      858.212
09/28/2014  09:36:00      -54.101       23.361       -7.257       14.301       14.252       13.348      204.531      203.113      178.175        0.206        0.029       58.929        8.949        0.023      337.818       10.049      858.224
09/28/2014  09:37:00      -58.016      -11.763        0.848       12.434       22.984        8.931      154.607      528.286       79.760        0.213        0.038       59.197        9.691        0.027      337.848       10.098      858.240
09/28/2014  09:38:00      -16.792        1.238       -0.575       18.258       20.670        7.502      333.359      427.257       56.275        0.055        0.041       16.837        9.298        0.305      337.880       10.152      858.254
09/28/2014  09:39:00       -6.578       14.975       -0.256       24.839       20.016       12.384      616.957      400.639      153.357        0.072        0.059       16.356       17.150        1.099      337.935       10.244      858.262
09/28/2014  09:40:00       -3.892       48.747        3.670       24.235       23.132       17.928      587.328      535.103      321.415        0.192        0.072       48.902       12.821        0.069      337.871       10.137      858.268
09/28/2014  09:41:00        8.095       80.310       -8.688       13.529       13.465       11.200      183.024      181.309      125.443        0.354        0.024       80.717        9.153        0.013      337.797       10.012      858.275
09/28/2014  09:42:00        3.239       68.752      -11.337        9.420       13.239        7.058       88.737      175.271       49.809        0.259        0.016       68.828        4.923        0.005      337.782        9.988      858.285
09/28/2014  09:43:00       -9.649       57.367      -12.207       27.169       19.105       15.382      738.166      365.007      236.602        0.244        0.067       58.173       16.456        0.080      337.789       10.002      858.288
09/28/2014  09:44:00        0.296       51.069       -5.614       10.297       17.311        8.208      106.023      299.680       67.367        0.156        0.024       51.070        6.026        0.014      337.807       10.028      858.304
09/28/2014  09:45:00       20.110       41.713       -5.553       14.833       19.671       12.016      220.010      386.962      144.388        0.146        0.038       46.308       12.193        0.069      337.855       10.111      858.317
09/28/2014  09:46:00        8.915       23.526       -1.031       18.314       19.611       10.578      335.396      384.609      111.886        0.073        0.042       25.158       11.752        0.218      337.888       10.167      858.331
09/28/2014  09:47:00       21.322       23.272       -6.255       13.904       12.828       14.764      193.335      164.564      217.976        0.081        0.029       31.563        9.154        0.084      337.887       10.163      858.339
09/28/2014  09:48:00       14.259        6.918       -3.052       14.396       13.083       13.624      207.232      171.157      185.605        0.041        0.028       15.848       10.363        0.428      337.919       10.219      858.354
09/28/2014  09:49:00       46.939       21.205        9.478       29.435       25.318       16.491      866.400      640.999      271.942        0.226        0.089       51.506        8.218        0.025      337.901       10.188      858.367
09/28/2014  09:50:00       46.879       33.962       13.928       21.850       14.799       15.043      477.401      219.004      226.287        0.223        0.046       57.888        6.513        0.013      337.829       10.067      858.378
09/28/2014  09:51:00       76.486       48.322       11.583       30.827       23.525       26.727      950.280      553.427      714.330        0.527        0.111       90.471       21.910        0.059      337.807       10.030      858.392
09/28/2014  09:52:00       23.928       23.107        5.765       33.081       28.382       17.247     1094.358      805.547      297.444        0.167        0.110       33.263        8.866        0.071      337.820       10.051      858.410
09/28/2014  09:53:00       57.403       29.628        2.551       29.329       19.514       12.656      860.189      380.779      160.176        0.279        0.070       64.598        6.538        0.010      337.828       10.066      858.418
09/28/2014  09:54:00       13.794       14.706        0.827       16.580       14.455       11.491      274.902      208.954      132.049        0.051        0.031       20.162        4.302        0.046      337.830       10.069      858.425
09/28/2014  09:55:00       31.696       19.502       16.123       17.955       15.711       15.620      322.391      246.845      243.999        0.123        0.041       37.216        8.078        0.047      337.854       10.110      858.429
09/28/2014  09:56:00       58.530       40.549        3.506       17.495       20.798       13.352      306.069      432.559      178.284        0.300        0.046       71.204        4.038        0.003      337.778        9.983      858.442
09/28/2014  09:57:00       75.273       45.380        8.260       34.925       19.518       22.312     1219.782      380.937      497.823        0.495        0.105       87.894       14.451        0.027      337.793       10.007      858.453
09/28/2014  09:58:00       64.009       29.344       14.442       39.614       18.164       21.915     1569.282      329.924      480.269        0.377        0.119       70.414       15.729        0.050      337.821       10.052      858.463
09/28/2014  09:59:00       25.773       26.480       13.885       51.160       27.342       19.330     2617.298      747.604      373.652        0.265        0.187       36.952       15.352        0.173      337.864       10.125      858.470
09/28/2014  10:00:00       33.466       28.480        2.516       33.288       23.094       18.139     1108.100      533.319      329.035        0.195        0.099       43.944        9.772        0.049      337.852       10.104      858.483
09/28/2014  10:01:00       51.841       75.667       -7.984       25.197       38.597       24.667      634.897     1489.695      608.454        0.560        0.137       91.723       17.708        0.037      337.844       10.092      858.489
09/28/2014  10:02:00       32.572      128.164      -17.349       30.239       22.813       20.270      914.389      520.412      410.871        0.982        0.092      132.238       15.465        0.014      337.850       10.103      858.500
09/28/2014  10:03:00       -5.901       98.212       -6.282       21.897       33.124       26.473      479.494     1097.218      700.833        0.600        0.114       98.389       22.099        0.050      337.924       10.227      858.506
09/28/2014  10:04:00      -33.174       68.782       -5.871       29.555       29.082       19.939      873.505      845.741      397.553        0.399        0.106       76.364       18.919        0.061      337.882       10.156      858.518
09/28/2014  10:05:00        4.729       66.688       -8.349       35.982       27.039       20.910     1294.695      731.108      437.223        0.350        0.123       66.855       14.282        0.046      337.991       10.338      858.524
09/28/2014  10:06:00       55.637       34.959       -2.581       14.634       17.280       15.230      214.143      298.616      231.959        0.253        0.037       65.708        8.900        0.018      337.897       10.182      858.533
09/28/2014  10:07:00       70.918       24.556        2.808       28.356       23.485       19.540      804.075      551.538      381.807        0.369        0.087       75.049        8.351        0.012      337.897       10.181      858.541
09/28/2014  10:08:00       53.926       24.089        8.973       37.833       21.722       22.837     1431.371      471.841      521.538        0.300        0.121       59.061       14.755        0.062      337.923       10.225      858.549
09/28/2014  10:09:00      100.863       49.636       -0.817       30.095       24.965       23.258      905.719      623.264      540.927        0.735        0.103      112.415       19.469        0.030      337.860       10.118      858.556
09/28/2014  10:10:00       56.290       40.588       25.778       37.385       21.984       27.031     1397.630      483.318      730.694        0.405        0.131       69.397       13.184        0.036      337.895       10.178      858.565
09/28/2014  10:11:00       39.664       23.610       19.369       35.555       28.890       24.209     1264.129      834.632      586.062        0.259        0.134       46.159       16.624        0.130      337.911       10.204      858.583
09/28/2014  10:12:00       79.326       34.358        6.450       27.598       24.814       20.930      761.653      615.718      438.076        0.466        0.091       86.447       12.719        0.022      337.896       10.179      858.597
09/28/2014  10:13:00       26.707       23.134        2.724       31.385       20.439       17.138      985.010      417.745      293.715        0.148        0.085       35.333       12.126        0.118      337.901       10.188      858.607
09/28/2014  10:14:00       16.575       44.081       -9.091       17.789       33.830       15.418      316.460     1144.460      237.727        0.200        0.085       47.094       17.334        0.135      337.882       10.155      858.615
09/28/2014  10:15:00      -14.804       97.044      -11.264       17.589       30.909       18.740      309.373      955.392      351.181        0.569        0.081       98.167       19.581        0.040      337.968       10.299      858.631
09/28/2014  10:16:00      -10.635       96.112      -14.719       18.277       36.158       14.851      334.051     1307.420      220.556        0.571        0.093       96.698       17.731        0.034      337.869       10.134      858.640
09/28/2014  10:17:00       -7.371       77.350       -8.733       12.478       22.211       17.300      155.705      493.322      299.296        0.353        0.047       77.700       14.790        0.036      337.860       10.120      858.653
09/28/2014  10:18:00      -17.294       46.069       -5.523       19.368       19.859       10.690      375.118      394.399      114.280        0.167        0.044       49.208        9.876        0.040      338.045       10.430      858.652
09/28/2014  10:19:00      -28.417       24.567        6.656       21.056       17.693       15.006      443.370      313.050      225.190        0.122        0.049       37.564       13.983        0.139      337.943       10.258      858.662
09/28/2014  10:20:00      -14.767       32.158       -3.134       19.088       21.014       12.048      364.340      441.568      145.156        0.111        0.048       35.386        9.907        0.078      337.915       10.211      858.668
09/28/2014  10:21:00       -3.460       55.064       -9.361       23.988       32.937       18.000      575.419     1084.853      324.016        0.256        0.099       55.173       21.383        0.150      337.960       10.287      858.678
09/28/2014  10:22:00      -12.555       11.478        1.205       13.974       12.619       12.277      195.259      159.229      150.731        0.040        0.025       17.011        7.025        0.171      337.962       10.291      858.689
09/28/2014  10:23:00       18.426       29.750        0.331       14.510       19.653       16.692      210.533      386.235      278.608        0.105        0.044       34.994       16.206        0.214      337.996       10.347      858.698
09/28/2014  10:24:00       18.553       48.103       -2.624       15.359       16.137       10.636      235.899      260.400      113.126        0.164        0.030       51.557        9.542        0.034      337.960       10.285      858.712
09/28/2014  10:25:00       26.091       54.525        1.243       16.881       21.222       17.827      284.959      450.359      317.785        0.235        0.053       60.446       14.747        0.060      337.900       10.186      858.729
09/28/2014  10:26:00       14.647       53.479       -2.613       14.660       17.103       16.748      214.907      292.523      280.497        0.193        0.039       55.448       12.537        0.051      337.854       10.109      858.738
09/28/2014  10:27:00       22.193       43.006       -0.273       17.938       19.344       14.536      321.767      374.181      211.298        0.162        0.045       48.395       10.357        0.046      337.860       10.119      858.746
09/28/2014  10:28:00       15.625       27.497       -6.802        8.227       18.054       10.853       67.676      325.962      117.785        0.078        0.026       31.627       12.607        0.159      337.843       10.091      858.759
09/28/2014  10:29:00       25.782       18.572       -1.394       12.508       11.807       12.663      156.448      139.398      160.362        0.073        0.023       31.774        8.653        0.074      337.903       10.189      858.766
09/28/2014  10:30:00       21.331       15.262       -0.846       16.116       15.842       13.400      259.718      250.972      179.567        0.069        0.035       26.228        8.554        0.106      337.929       10.233      858.775
09/28/2014  10:31:00       32.666       29.067        8.813       20.665       16.140       18.654      427.057      260.513      347.954        0.151        0.052       43.726       12.133        0.077      337.924       10.226      858.788
09/28/2014  10:32:00       32.317       19.168       -2.943       22.030       12.297        9.901      485.321      151.214       98.034        0.108        0.037       37.574        7.804        0.043      337.904       10.193      858.799
09/28/2014  10:33:00        6.583       17.382        0.788       18.558       19.493       12.996      344.412      379.958      168.894        0.062        0.045       18.587        9.118        0.241      337.953       10.276      858.823
09/28/2014  10:34:00        5.741       44.992       -2.227       16.418       15.380       15.720      269.541      236.553      247.122        0.141        0.038       45.356       14.754        0.106      337.890       10.170      858.841
09/28/2014  10:35:00       55.632       19.253        7.525       29.797       21.810       17.822      887.848      475.668      317.612        0.260        0.084       58.870        7.431        0.016      337.901       10.188      858.857
09/28/2014  10:36:00       39.055       20.270      -11.217       33.951       17.579       16.723     1152.641      309.016      279.656        0.190        0.087       44.001       10.251        0.054      337.936       10.247      858.875
09/28/2014  10:37:00       55.623       43.838        1.227       22.211       27.589       16.525      493.349      761.141      273.064        0.327        0.076       70.821       15.619        0.049      337.928       10.232      858.889
09/28/2014  10:38:00       57.693       26.171        7.188       21.065       16.315       18.668      443.750      266.169      348.505        0.256        0.053       63.351        8.677        0.019      337.943       10.258      858.899
09/28/2014  10:39:00       32.039       27.131        1.659       17.746       35.400       19.882      314.929     1253.152      395.314        0.186        0.098       41.983       20.728        0.244      337.954       10.276      858.905
09/28/2014  10:40:00       25.707       67.279       -2.339       21.961       32.858       19.590      482.298     1079.655      383.778        0.357        0.097       72.023       12.156        0.028      337.930       10.236      858.904
09/28/2014  10:41:00        2.896       95.883       -9.730       15.843       28.630       14.701      250.998      819.673      216.132        0.529        0.064       95.926       11.636        0.015      337.929       10.235      858.914
09/28/2014  10:42:00       39.910       66.714        6.786       32.057       39.832       32.533     1027.629     1586.549     1058.409        0.488        0.184       77.740       24.934        0.103      337.926       10.230      858.910
09/28/2014  10:43:00       29.335       44.480        0.311       25.289       20.348       18.843      639.540      414.029      355.060        0.212        0.070       53.283       12.281        0.053      337.913       10.208      858.913
09/28/2014  10:44:00       24.275       53.823       -3.036       16.843       26.045       16.612      283.697      678.325      275.954        0.237        0.062       59.044       14.915        0.064      337.922       10.222      858.915
09/28/2014  10:45:00       49.648       26.474       -7.461       17.600       11.770       11.860      309.746      138.543      140.668        0.191        0.029       56.266        4.259        0.006      337.924       10.228      858.926
09/28/2014  10:46:00       62.565       55.072       -1.687       46.196       38.814       26.982     2134.094     1506.520      728.047        0.566        0.218       83.351       20.553        0.061      337.931       10.236      858.942
09/28/2014  10:47:00       28.541       34.033       21.408       41.278       31.197       22.493     1703.905      973.256      505.920        0.281        0.159       44.417       20.813        0.220      337.981       10.322      858.957
09/28/2014  10:48:00       16.389       85.903       -9.592       24.059       36.479       17.497      578.817     1330.725      306.137        0.498        0.111       87.452       19.096        0.048      337.893       10.174      858.969
09/28/2014  10:49:00       48.204       73.299       -5.360       42.237       32.470       27.051     1783.977     1054.306      731.759        0.565        0.179       87.729       20.435        0.054      337.878       10.149      858.985
09/28/2014  10:50:00       16.504       43.886       -7.064       29.910       23.826       19.772      894.622      567.664      390.935        0.205        0.093       46.886       16.405        0.122      337.880       10.154      859.000
09/28/2014  10:51:00      -65.835       32.548      -18.978       28.844       55.804       14.652      831.961     3114.046      214.672        0.496        0.208       73.442       10.469        0.020      338.003       10.359      859.012
09/28/2014  10:52:00     -130.086      -16.131      -14.620       50.674       41.212       23.782     2567.891     1698.447      565.591        1.111        0.242      131.082       24.933        0.036      338.014       10.376      859.018
09/28/2014  10:53:00     -150.173       25.925      -23.076       81.162       43.297       38.290     6587.192     1874.598     1466.120        1.684        0.496      152.394       44.633        0.086      337.947       10.263      859.021
09/28/2014  10:54:00     -186.803       -5.729      -24.746       71.717       59.679       38.206     5143.292     3561.596     1459.713        2.285        0.508      186.891       40.637        0.047      337.885       10.159      859.011
09/28/2014  10:55:00     -170.337      -36.142       -9.807       53.882       58.066       37.461     2903.224     3371.686     1403.356        1.905        0.384      174.129       28.617        0.027      337.882       10.155      858.987
09/28/2014  10:56:00     -217.679      -31.461      -36.787       51.649       91.522       39.910     2667.609     8376.323     1592.779        3.118        0.632      219.941       33.543        0.023      337.857       10.112      858.970
09/28/2014  10:57:00     -151.833       -8.914      -23.970       44.346       61.360       30.924     1966.545     3765.102      956.319        1.520        0.334      152.094       29.547        0.038      337.848       10.098      858.964
09/28/2014  10:58:00     -141.661      -23.749      -11.104       68.711       84.383       29.891     4721.164     7120.484      893.448        1.674        0.637      143.638       30.800        0.046      337.829       10.067      858.950
09/28/2014  10:59:00     -238.841      -74.807      -14.301       75.768       56.167       43.253     5740.844     3154.716     1870.798        3.680        0.538      250.282       39.556        0.025      337.778        9.978      858.943
09/28/2014  11:00:00     -130.387      -44.907       -1.025       62.693       60.259       32.186     3930.447     3631.096     1035.920        1.381        0.430      137.904       25.993        0.036      337.768        9.964      858.937
09/28/2014  11:01:00     -185.543       -8.069      -11.704      105.506       52.316       38.706    11131.511     2736.949     1498.126        2.499        0.768      185.719       52.317        0.079      337.756        9.942      858.937
09/28/2014  11:02:00     -152.240      -41.304       -9.017       59.668       72.783       37.982     3560.237     5297.307     1442.620        1.763        0.515      157.744       31.269        0.039      337.745        9.926      858.931
09/28/2014  11:03:00     -144.027      -73.999       -8.834       62.648       60.795       36.386     3924.744     3696.016     1323.930        1.762        0.447      161.925       21.796        0.018      337.742        9.922      858.933
09/28/2014  11:04:00     -170.321      -66.420       -5.706       79.748       61.031       37.556     6359.752     3724.761     1410.434        2.247        0.575      182.813       38.348        0.044      337.754        9.938      858.956
09/28/2014  11:05:00     -171.246      -22.523      -19.187       57.438       37.002       31.140     3299.172     1369.142      969.708        1.792        0.282      172.721       10.721        0.004      337.786        9.994      858.974
09/28/2014  11:06:00     -129.586      -17.857      -15.244       44.393       67.123       37.760     1970.768     4505.453     1425.793        1.262        0.395      130.811       26.377        0.041      337.786        9.994      858.995
09/28/2014  11:07:00      -99.034      -48.595        4.184       58.015       38.888       35.588     3365.784     1512.238     1266.530        0.916        0.307      110.314       22.797        0.043      337.818       10.047      859.008
09/28/2014  11:08:00     -142.646      -46.544       -0.588       78.045       55.271       35.005     6091.023     3054.918     1225.316        1.644        0.519      150.047       37.831        0.064      337.810       10.035      859.011
09/28/2014  11:09:00     -205.041       33.710      -27.598      104.737      133.787       49.438    10969.921    17898.967     2444.092        3.762        1.566      207.794       52.022        0.063      337.831       10.068      859.005
09/28/2014  11:10:00     -175.123       16.034      -17.817      109.282       82.072       49.227    11942.651     6735.889     2423.255        2.617        1.055      175.856       50.459        0.082      337.825       10.057      858.996
09/28/2014  11:11:00      -86.255       59.083      -15.426       91.148       78.703       39.443     8307.901     6194.128     1555.721        1.361        0.803      104.550       46.511        0.198      337.838       10.082      858.993
09/28/2014  11:12:00     -123.750       76.559      -16.278       70.367       70.856       38.450     4951.452     5020.562     1478.412        1.644        0.573      145.517       33.258        0.052      337.853       10.108      859.008
09/28/2014  11:13:00     -147.253       -3.791      -12.319       96.491       74.928       41.926     9310.508     5614.226     1757.771        1.926        0.834      147.302       42.758        0.084      337.829       10.066      859.020
09/28/2014  11:14:00     -193.102      -30.076      -13.497       93.338       80.573       45.130     8711.896     6492.079     2036.719        2.781        0.862      195.431       49.675        0.065      337.764        9.957      859.002
09/28/2014  11:15:00       -9.211       29.785       13.807       42.158       44.434       29.406     1777.286     1974.374      864.741        0.289        0.231       31.177       21.822        0.490      337.890       10.171      859.000
09/28/2014  11:16:00      -57.368       73.903       -8.667       39.213       50.625       26.814     1537.677     2562.916      718.984        0.682        0.241       93.556       16.604        0.031      337.865       10.127      858.969
09/28/2014  11:17:00     -224.509       96.931      -35.215       97.489      126.145       66.832     9504.108    15912.562     4466.464        4.546        1.494      244.540       52.780        0.047      337.795       10.008      858.928
09/28/2014  11:18:00     -169.668       53.857      -21.717       79.082      100.959       48.216     6253.890    10192.756     2324.759        2.546        0.939      178.011       36.563        0.042      337.749        9.931      858.912
09/28/2014  11:19:00     -325.551      114.697      -54.612       97.382       86.952       65.723     9483.160     7560.578     4319.528        7.174        1.068      345.165       36.337        0.011      337.724        9.887      858.891
09/28/2014  11:20:00     -233.204      -14.336      -14.821      129.037      158.745       60.713    16650.509    25200.015     3686.106        5.017        2.277      233.644       62.933        0.073      337.724        9.888      858.861
09/28/2014  11:21:00     -142.076      -14.387      -15.790      107.985       81.860       49.455    11660.846     6701.011     2445.768        2.072        1.040      142.802       29.867        0.044      337.729        9.898      858.869
09/28/2014  11:22:00     -113.383       -4.414      -19.282       98.488       50.866       39.793     9699.977     2587.324     1583.444        1.356        0.694      113.469       13.981        0.015      337.763        9.955      858.870
09/28/2014  11:23:00     -137.166      -58.844       -4.087       71.525       77.667       46.507     5115.803     6032.154     2162.926        1.780        0.666      149.255       16.860        0.013      337.778        9.979      858.873
09/28/2014  11:24:00     -110.042       -9.607       -8.085       57.837       52.242       43.552     3345.107     2729.178     1896.773        1.012        0.399      110.460       24.703        0.050      337.798       10.015      858.890
09/28/2014  11:25:00     -116.896        8.203      -15.501       66.539       61.670       43.953     4427.479     3803.238     1931.831        1.207        0.508      117.183       49.339        0.177      337.841       10.086      858.912
09/28/2014  11:26:00     -108.321       12.838      -10.357       38.911       41.420       31.322     1514.100     1715.636      981.087        0.811        0.211      109.079       21.394        0.038      337.913       10.208      858.919
09/28/2014  11:27:00      -52.074      168.790      -13.450       55.656       70.597       35.390     3097.614     4983.913     1252.462        2.036        0.467      176.640       27.573        0.024      337.928       10.231      858.935
09/28/2014  11:28:00     -133.545      139.150       -6.623       66.492       81.901       52.462     4421.210     6707.743     2752.239        2.556        0.694      192.865       48.334        0.063      337.956       10.278      858.958
09/28/2014  11:29:00     -153.604      145.424      -23.667       65.686       78.084       34.132     4314.641     6097.160     1165.009        2.844        0.579      211.523       27.571        0.017      337.981       10.319      858.970
09/28/2014  11:30:00     -147.193      107.691      -17.575       95.574       99.801       44.075     9134.479     9960.253     1942.582        2.730        1.052      182.382       42.176        0.053      337.940       10.252      858.974
09/28/2014  11:31:00     -186.649      176.916      -34.745       84.799       90.339       51.987     7190.816     8161.173     2702.623        4.270        0.903      257.171       46.541        0.033      337.868       10.130      858.982
09/28/2014  11:32:00      -91.413      178.336      -36.185       56.239       85.427       41.635     3162.787     7297.782     1733.498        2.683        0.610      200.400       49.223        0.060      337.837       10.080      858.980
09/28/2014  11:33:00     -152.868      142.400      -36.038       54.873       52.864       28.595     3011.074     2794.580      817.680        2.578        0.331      208.917       27.595        0.017      337.881       10.152      858.991
09/28/2014  11:34:00      -94.228      118.469      -16.191       68.816       65.398       35.883     4735.593     4276.848     1287.591        1.674        0.515      151.373       29.837        0.039      337.864       10.125      859.001
09/28/2014  11:35:00     -125.917      166.030      -22.684       71.749       82.679       46.992     5147.969     6835.761     2208.279        2.906        0.710      208.377       44.532        0.046      337.812       10.035      859.019
09/28/2014  11:36:00     -121.478      180.302      -34.608       70.391       75.133       41.398     4954.944     5645.010     1713.763        3.039        0.616      217.407       47.493        0.048      337.817       10.045      859.039
09/28/2014  11:37:00      -93.867      164.814      -13.589       51.728       68.163       40.548     2675.800     4646.218     1644.112        2.256        0.448      189.670       33.560        0.031      337.845       10.094      859.048
09/28/2014  11:38:00      -54.175      138.249       -9.501       44.092       61.903       35.436     1944.067     3831.988     1255.690        1.458        0.352      148.485       32.425        0.048      337.927       10.232      859.057
09/28/2014  11:39:00      -95.495      147.783      -19.887       64.886       62.542       32.089     4210.130     3911.501     1029.679        2.025        0.458      175.952       34.585        0.039      337.919       10.217      859.065
09/28/2014  11:40:00      -73.503      129.974       -9.363       42.204       42.466       29.854     1781.174     1803.353      891.275        1.343        0.224      149.318       27.717        0.034      337.986       10.332      859.083
09/28/2014  11:41:00      -49.289      133.122      -10.146       34.413       57.089       27.774     1184.254     3259.132      771.368        1.273        0.261      141.953       28.553        0.040      337.988       10.334      859.087
09/28/2014  11:42:00      -72.989       79.007      -13.802       38.339       46.374       23.638     1469.858     2150.560      558.750        0.797        0.209      107.561       12.261        0.013      338.035       10.412      859.096
09/28/2014  11:43:00      -71.763      100.048      -10.187       40.814       45.735       31.200     1665.762     2091.730      973.417        1.000        0.237      123.124       27.451        0.050      338.004       10.361      859.109
09/28/2014  11:44:00      -44.401       20.221        1.093       32.988       39.612       27.303     1088.219     1569.091      745.458        0.289        0.170       48.788       22.829        0.219      337.985       10.327      859.126
09/28/2014  11:45:00      -70.106       22.130      -11.013       25.840       55.035       20.999      667.693     3028.881      440.940        0.483        0.207       73.516       19.495        0.070      338.030       10.406      859.136
09/28/2014  11:46:00      -97.009       39.255       -8.557       52.703       37.778       26.070     2777.625     1427.195      679.640        0.795        0.244      104.650       29.189        0.078      338.016       10.380      859.142
09/28/2014  11:47:00       14.659       99.051       -9.601       19.023       23.037       15.684      361.893      530.687      245.991        0.563        0.057      100.130       13.147        0.017      338.005       10.362      859.154
09/28/2014  11:48:00        0.218       86.408        0.222       46.635       54.057       28.711     2174.838     2922.148      824.301        0.669        0.296       86.408       31.979        0.137      337.990       10.337      859.164
09/28/2014  11:49:00      -34.772       89.444      -18.247       22.564       54.604       25.254      509.138     2981.582      637.766        0.683        0.206       95.965       11.678        0.015      338.006       10.364      859.180
09/28/2014  11:50:00      -44.689       33.502       -3.901       24.301       35.089       21.784      590.530     1231.244      474.525        0.272        0.115       55.852       14.200        0.065      338.044       10.428      859.192
09/28/2014  11:51:00      -53.669      -27.904      -11.454       33.507       29.945       16.868     1122.693      896.719      284.538        0.305        0.115       60.489       11.190        0.034      338.023       10.393      859.196
09/28/2014  11:52:00      -36.093      -45.406        4.237       55.246       24.456       29.400     3052.109      598.087      864.367        0.395        0.226       58.004       32.629        0.316      337.962       10.290      859.203
09/28/2014  11:53:00      -55.514      -22.413       -2.535       47.268       19.874       21.297     2234.308      394.984      453.582        0.334        0.154       59.868       22.492        0.141      337.994       10.344      859.206
09/28/2014  11:54:00      -10.211      -30.353       -0.820       25.023       16.811       15.399      626.144      282.605      237.137        0.109        0.057       32.025        4.584        0.020      338.034       10.412      859.215
09/28/2014  11:55:00      -46.933      -33.152       -1.392       23.384       19.199       18.471      546.808      368.603      341.190        0.228        0.063       57.462       16.306        0.081      337.991       10.340      859.226
09/28/2014  11:56:00      -17.474      -22.494        3.990       25.642       21.047       11.576      657.492      442.962      134.007        0.103        0.062       28.484        8.328        0.085      338.024       10.396      859.229
09/28/2014  11:57:00      -40.638      -32.190       -2.499       40.678       26.565       23.607     1654.715      705.708      557.295        0.281        0.146       51.843       20.426        0.155      338.077       10.484      859.227
09/28/2014  11:58:00      -28.302      -20.742        8.399       29.574       28.100       17.611      874.616      789.619      310.157        0.164        0.099       35.089       16.288        0.215      338.098       10.519      859.231
09/28/2014  11:59:00      -29.188       19.257        8.289       20.225       16.814       15.053      409.055      282.699      226.595        0.110        0.046       34.968       10.446        0.089      337.996       10.349      859.232
09/28/2014  12:00:00      -25.065      -25.162        5.476       38.735       64.335       31.026     1500.379     4138.985      962.604        0.395        0.330       35.516       17.538        0.244      337.978       10.315      859.234
09/28/2014  12:01:00       48.810      -57.056        8.166       60.652       64.292       36.874     3678.711     4133.427     1359.703        0.744        0.459       75.085       44.002        0.343      338.012       10.374      859.235
09/28/2014  12:02:00      -16.523       -8.149       40.177       42.431       40.870       30.100     1800.351     1670.382      905.992        0.316        0.219       18.424       22.699        1.518      338.070       10.473      859.231
09/28/2014  12:03:00       -8.659       23.143       48.532       11.348       27.687       18.539      128.768      766.545      343.688        0.210        0.062       24.710       13.380        0.293      338.006       10.364      859.238
09/28/2014  12:04:00      -16.156        6.490       18.263       17.277       15.245       16.902      298.486      232.400      285.671        0.073        0.041       17.411       14.421        0.686      338.023       10.394      859.246
09/28/2014  12:05:00      -25.505        5.080       -2.848       11.764       17.865       11.216      138.389      319.154      125.800        0.063        0.029       26.006        9.964        0.147      338.057       10.449      859.258
09/28/2014  12:06:00      -20.603       10.685       -5.031       20.162       11.749       15.502      406.523      138.029      240.317        0.067        0.039       23.209       11.521        0.246      338.001       10.353      859.266
09/28/2014  12:07:00        9.434       34.495       -3.181       12.801       13.468       11.582      163.854      181.376      134.133        0.088        0.024       35.762        6.360        0.032      337.981       10.322      859.283
09/28/2014  12:08:00        6.856      -17.832       16.710       17.263       35.321       18.226      298.028     1247.602      332.181        0.126        0.094       19.105       20.933        1.201      338.081       10.492      859.284
09/28/2014  12:09:00      -13.076       -3.142       15.461       28.577       17.139       13.554      816.666      293.733      183.717        0.086        0.065       13.448        8.510        0.400      338.088       10.500      859.283
09/28/2014  12:10:00      -16.021      -26.291        0.611       14.264       31.577       14.418      203.457      997.099      207.867        0.118        0.070       30.788       13.063        0.180      338.085       10.497      859.286
09/28/2014  12:11:00      -22.691      -17.945        3.285       26.303       11.812       12.817      691.874      139.517      164.278        0.092        0.050       28.929       14.235        0.242      338.104       10.528      859.293
09/28/2014  12:12:00      -27.258      -14.955        2.208       27.165       18.472       12.521      737.946      341.226      156.781        0.110        0.062       31.091        9.330        0.090      338.129       10.570      859.295
09/28/2014  12:13:00        6.983        0.899       -6.348       26.118       16.049       11.909      682.174      257.576      141.832        0.059        0.054        7.040        3.685        0.274      338.091       10.508      859.292
09/28/2014  12:14:00       -4.631      -16.232       16.137       26.577       21.509       18.577      706.311      462.652      345.096        0.103        0.076       16.880       14.393        0.727      338.201       10.693      859.291
09/28/2014  12:15:00       17.448      -26.976       17.030       30.001       49.782       27.991      900.041     2478.283      783.501        0.274        0.208       32.127       29.777        0.859      338.121       10.558      859.291
09/28/2014  12:16:00        1.969      -10.440       26.199       21.799       30.890       18.656      475.203      954.214      348.055        0.129        0.089       10.624       20.444        3.703      338.181       10.657      859.276
09/28/2014  12:17:00        2.708        0.775       37.574       17.654       37.168       25.403      311.657     1381.486      645.298        0.188        0.117        2.816       28.591      103.056      338.111       10.541      859.264
09/28/2014  12:18:00       -6.291       11.550       30.998       15.161       25.114       23.281      229.841      630.738      541.997        0.127        0.070       13.152       18.515        1.982      338.120       10.557      859.257
09/28/2014  12:19:00      -26.012      -14.001        6.304       20.282       17.749       17.368      411.371      315.030      301.630        0.097        0.051       29.540       10.104        0.117      338.147       10.600      859.256
09/28/2014  12:20:00      -25.348      -15.740        0.945       11.782       18.275       13.463      138.820      333.967      181.250        0.077        0.033       29.838        8.733        0.086      338.138       10.587      859.259
09/28/2014  12:21:00        0.130      -17.034       18.389       30.500       20.469       17.993      930.226      418.979      323.755        0.115        0.084       17.035       16.859        0.979      338.220       10.723      859.261
09/28/2014  12:22:00      -34.866      -29.463       12.200       41.579       36.522       20.184     1728.786     1333.869      407.390        0.285        0.174       45.648       20.982        0.211      338.138       10.586      859.264
09/28/2014  12:23:00      -45.432      -21.702       10.706       45.645       30.314       26.142     2083.474      918.936      683.385        0.317        0.184       50.349       24.684        0.240      338.081       10.490      859.266
09/28/2014  12:24:00      -28.485       -3.955        3.915       24.900       25.929       17.898      620.013      672.302      320.340        0.123        0.081       28.758       18.760        0.426      337.947       10.265      859.274
09/28/2014  12:25:00      -48.072       -0.862       14.001       41.976       25.761       20.047     1762.008      663.621      401.875        0.267        0.141       48.080       22.080        0.211      337.999       10.353      859.278
09/28/2014  12:26:00      -62.912      -38.988       13.621       43.349       33.204       20.380     1879.158     1102.483      415.334        0.453        0.170       74.013       23.872        0.104      338.026       10.398      859.271
09/28/2014  12:27:00     -117.273      -86.549       -8.181       44.413       56.755       24.811     1972.524     3221.116      615.576        1.356        0.290      145.753       14.204        0.009      338.005       10.363      859.278
09/28/2014  12:28:00      -66.901     -105.324       -8.417       55.361       41.464       23.882     3064.836     1719.297      570.327        1.050        0.268      124.775       26.796        0.046      337.982       10.325      859.285
09/28/2014  12:29:00     -120.932     -142.663       -8.222       54.317       60.313       29.952     2950.358     3637.657      897.097        2.126        0.374      187.022       15.546        0.007      337.964       10.292      859.277
09/28/2014  12:30:00     -115.498     -103.085       -1.367       46.936       39.876       21.085     2203.007     1590.084      444.580        1.410        0.212      154.811       17.858        0.013      337.999       10.354      859.279
09/28/2014  12:31:00      -97.336      -74.804        5.973       57.688       64.763       25.109     3327.862     4194.227      630.474        1.163        0.408      122.760       26.976        0.048      338.019       10.387      859.276
09/28/2014  12:32:00     -136.386      -82.590        3.437       60.356       44.909       35.260     3642.879     2016.787     1243.280        1.617        0.345      159.444       27.409        0.030      337.965       10.294      859.264
09/28/2014  12:33:00      -78.230      -82.432        4.019       38.419       52.826       27.353     1476.005     2790.554      748.212        0.897        0.251      113.644       20.434        0.032      338.016       10.381      859.262
09/28/2014  12:34:00     -111.732     -116.050       -4.949       75.218       56.253       35.267     5657.783     3164.416     1243.775        1.802        0.503      161.096       36.307        0.051      337.963       10.290      859.253
09/28/2014  12:35:00      -79.877     -111.036        0.998       56.168       53.726       24.462     3154.852     2886.463      598.366        1.267        0.332      136.782       23.395        0.029      337.993       10.344      859.236
09/28/2014  12:36:00      -87.802      -81.801      -12.618       47.284       40.297       26.855     2235.819     1623.857      721.189        0.957        0.229      120.003       29.371        0.060      337.996       10.349      859.224
09/28/2014  12:37:00     -128.594      -61.874       -3.241       53.738       56.953       22.906     2887.808     3243.605      524.683        1.351        0.333      142.706       29.458        0.043      337.991       10.339      859.220
09/28/2014  12:38:00     -123.399      -40.155       -2.531       78.213       49.677       34.779     6117.284     2467.834     1209.579        1.332        0.490      129.768       43.301        0.111      337.956       10.280      859.219
09/28/2014  12:39:00     -151.267     -102.734       -0.681       68.871       65.684       39.479     4743.181     4314.346     1558.589        2.202        0.531      182.855       36.715        0.040      337.941       10.254      859.221
09/28/2014  12:40:00     -135.640      -94.198       -9.458       60.363       48.822       34.714     3643.696     2383.599     1205.053        1.730        0.362      165.140       34.012        0.042      337.915       10.211      859.228
09/28/2014  12:41:00     -105.131      -61.724       -3.307       47.513       52.294       20.774     2257.495     2734.678      431.551        1.015        0.271      121.912       22.267        0.033      337.929       10.235      859.237
09/28/2014  12:42:00     -135.295      -36.188        4.717       65.050       50.790       30.184     4231.551     2579.594      911.103        1.368        0.386      140.051       33.743        0.058      337.923       10.225      859.245
09/28/2014  12:43:00     -134.973        4.509        9.645       67.969       49.081       36.266     4619.846     2408.957     1315.258        1.334        0.417      135.049       31.849        0.056      337.872       10.140      859.259
09/28/2014  12:44:00      -80.571      -34.769        0.123       58.513       42.017       28.174     3423.824     1765.459      793.748        0.684        0.299       87.753       30.409        0.120      337.939       10.252      859.267
09/28/2014  12:45:00     -113.184      -22.438       -1.095       51.125       50.328       30.156     2613.783     2532.926      909.379        0.968        0.303      115.386       28.736        0.062      337.899       10.186      859.264
09/28/2014  12:46:00     -100.064      -96.157       -3.886       39.731       48.080       24.066     1578.535     2311.640      579.174        1.187        0.223      138.776       21.132        0.023      337.931       10.239      859.266
09/28/2014  12:47:00      -81.033      -45.687       -4.032       27.382       33.861       17.146      749.755     1146.546      293.998        0.543        0.110       93.025       11.147        0.014      337.928       10.234      859.272
09/28/2014  12:48:00      -87.584      -18.141        6.033       98.349       51.094       30.113     9672.478     2610.612      906.764        1.061        0.659       89.443       34.086        0.145      337.932       10.240      859.277
09/28/2014  12:49:00     -142.629      -80.252       -4.281       53.981       45.325       32.971     2913.996     2054.341     1087.104        1.643        0.303      163.656       26.627        0.026      337.874       10.143      859.284
09/28/2014  12:50:00     -152.403     -112.591       -4.361       64.856       43.424       29.350     4206.362     1885.644      861.408        2.144        0.348      189.482       23.484        0.015      337.867       10.129      859.284
09/28/2014  12:51:00     -129.215       11.184        2.068       55.136       37.480       23.777     3039.997     1404.775      565.351        1.092        0.251      129.698       21.178        0.027      337.859       10.118      859.286
09/28/2014  12:52:00      -80.235      -15.916        7.489       44.456       32.388       26.112     1976.365     1048.978      681.820        0.523        0.185       81.798       23.805        0.085      337.866       10.128      859.292
09/28/2014  12:53:00     -157.324      -56.798      -12.419      104.790       58.035       23.855    10980.909     3368.022      569.049        2.152        0.746      167.262       33.217        0.039      337.851       10.103      859.294
09/28/2014  12:54:00     -129.255      -49.319       -8.232       78.447       60.875       32.090     6153.889     3705.741     1029.761        1.505        0.544      138.345       36.524        0.070      337.856       10.111      859.284
09/28/2014  12:55:00     -124.311       -1.084        2.527       60.263       40.653       26.486     3631.572     1652.636      701.518        1.072        0.299      124.315       25.763        0.043      337.829       10.067      859.288
09/28/2014  12:56:00     -174.326      -96.691      -17.545       52.656       55.860       26.898     2772.607     3120.357      723.508        2.333        0.331      199.346       22.718        0.013      337.821       10.052      859.282
09/28/2014  12:57:00     -109.456      -84.377      -10.880       42.907       31.709       27.293     1841.004     1005.477      744.900        1.140        0.180      138.203       23.590        0.029      337.828       10.066      859.285
09/28/2014  12:58:00      -99.827      -57.247       -2.588       61.003       40.419       22.470     3721.419     1633.727      504.879        0.955        0.293      115.077       27.198        0.056      337.868       10.132      859.286
09/28/2014  12:59:00     -115.555        2.996       -9.264       43.754       39.992       17.718     1914.373     1599.344      313.938        0.864        0.191      115.594       14.099        0.015      337.760        9.951      859.292
09/28/2014  13:00:00     -120.136       26.885      -12.079       48.320       33.832       29.652     2334.785     1144.620      879.241        0.983        0.218      123.107       24.807        0.041      337.755        9.943      859.297
09/28/2014  13:01:00     -140.094        8.853       -3.799       53.986       30.653       26.396     2914.499      939.590      696.766        1.213        0.228      140.373       25.684        0.033      337.778        9.982      859.302
09/28/2014  13:02:00      -52.024      -35.756       -4.327       24.475       29.070       17.255      599.002      845.041      297.743        0.287        0.087       63.127       14.378        0.052      337.804       10.024      859.306
09/28/2014  13:03:00      -40.536       -1.284       -1.018       28.040       32.647       17.106      786.224     1065.823      292.631        0.189        0.107       40.556       10.190        0.063      337.832       10.074      859.308
09/28/2014  13:04:00     -135.191      -16.609      -14.072       95.493       74.744       33.810     9118.976     5586.660     1143.141        1.730        0.792      136.207       49.993        0.135      337.782        9.987      859.310
09/28/2014  13:05:00     -188.916       15.967      -23.120       75.065       83.652       34.572     5634.822     6997.693     1195.205        2.515        0.691      189.590       27.968        0.022      337.797       10.012      859.306
09/28/2014  13:06:00      -36.383      -32.580        6.685       28.768       28.080       20.940      827.582      788.496      438.494        0.224        0.103       48.838       16.448        0.113      337.825       10.060      859.311
09/28/2014  13:07:00      -47.313       23.892        7.313       55.645       42.514       27.196     3096.348     1807.416      739.625        0.425        0.282       53.004       27.912        0.277      337.855       10.111      859.308
09/28/2014  13:08:00     -150.660      -26.655       -0.556       86.357       95.228       39.356     7457.495     9068.348     1548.866        2.074        0.904      153.000       39.800        0.068      337.816       10.045      859.310
09/28/2014  13:09:00     -106.781     -103.125       -1.773      117.983       91.034       41.588    13920.039     8287.212     1729.548        2.298        1.197      148.448       50.727        0.117      337.780        9.982      859.297
09/28/2014  13:10:00      -52.687      -67.474       -0.689       45.158       44.093       24.637     2039.225     1944.188      606.995        0.596        0.230       85.607       20.939        0.060      337.810       10.035      859.297
09/28/2014  13:11:00     -136.263      -50.436       -6.844       71.778       34.059       28.049     5152.077     1160.038      786.758        1.413        0.355      145.297       34.161        0.055      337.785        9.991      859.285
09/28/2014  13:12:00     -111.553      -51.133      -17.968       56.393       26.641       22.874     3180.126      709.764      523.224        0.990        0.221      122.714       27.544        0.050      337.800       10.018      859.279
09/28/2014  13:13:00      -55.742      -32.914        0.709       77.264       43.806       20.527     5969.697     1918.938      421.372        0.625        0.416       64.734       29.100        0.202      337.824       10.059      859.261
09/28/2014  13:14:00      -89.436      -40.828        2.486       69.779       47.420       37.551     4869.166     2248.631     1410.100        0.910        0.426       98.315       36.618        0.139      337.802       10.020      859.246
09/28/2014  13:15:00     -109.319      -74.008        1.632       63.671       57.121       30.249     4054.023     3262.853      915.022        1.283        0.412      132.014       30.201        0.052      337.845       10.095      859.236
09/28/2014  13:16:00      -96.505      -75.904       -1.169       52.803       68.171       25.352     2788.151     4647.259      642.721        1.158        0.404      122.779       29.801        0.059      337.844       10.092      859.218
09/28/2014  13:17:00     -184.563      -59.642       -4.918       76.352       46.491       27.537     5829.579     2161.411      758.260        2.320        0.437      193.960       29.695        0.023      337.781        9.985      859.202
09/28/2014  13:18:00     -140.346     -117.389       -2.510       60.315       88.503       28.716     3637.890     7832.799      824.617        2.289        0.615      182.968       31.980        0.031      337.755        9.942      859.193
09/28/2014  13:19:00      -55.536      -29.608       16.186       56.526       62.243       31.219     3195.187     3874.232      974.633        0.613        0.402       62.936       26.578        0.178      337.857       10.115      859.188
09/28/2014  13:20:00      -14.380      -29.340       13.409       63.158       51.096       34.826     3988.930     2610.834     1212.871        0.453        0.391       32.675       34.642        1.124      337.907       10.199      859.187
09/28/2014  13:21:00      -81.559      -78.384       -6.503       74.714       49.208       31.537     5582.163     2421.396      994.559        1.092        0.450      113.119       32.132        0.081      337.812       10.039      859.193
09/28/2014  13:22:00      -51.362      -26.740        3.158       44.892       40.970       26.748     2015.254     1678.523      715.469        0.389        0.220       57.906       24.398        0.178      337.882       10.157      859.195
09/28/2014  13:23:00      -83.937      -36.475       -0.887       41.047       34.882       27.044     1684.874     1216.768      731.385        0.600        0.182       91.520       24.585        0.072      337.830       10.068      859.200
09/28/2014  13:24:00     -148.479      -78.233        3.914       74.243       58.707       37.401     5511.964     3446.540     1398.816        1.927        0.518      167.829       41.968        0.063      337.822       10.055      859.203
09/28/2014  13:25:00      -95.810      -38.203        3.518       67.591       57.606       29.739     4568.588     3318.471      884.386        0.971        0.439      103.146       35.199        0.116      337.814       10.042      859.197
09/28/2014  13:26:00     -113.361       64.089       -8.309       43.767       40.954       27.470     1915.507     1677.217      754.604        1.069        0.217      130.224       17.443        0.018      337.778        9.982      859.190
09/28/2014  13:27:00     -164.871      -23.946       -4.123       79.780       52.886       35.981     6364.883     2796.924     1294.638        1.911        0.523      166.601       38.950        0.055      337.758        9.948      859.179
09/28/2014  13:28:00     -153.621      -30.720      -10.644       42.076       62.831       33.130     1770.423     3947.693     1097.599        1.573        0.341      156.663       23.741        0.023      337.761        9.954      859.172
09/28/2014  13:29:00     -111.877      -24.134      -10.012       36.736       54.206       21.006     1349.558     2938.257      441.235        0.896        0.236      114.451       13.413        0.014      337.775        9.977      859.154
09/28/2014  13:30:00      -92.260      -41.507        5.528       70.583       61.452       36.287     4982.029     3776.330     1316.737        1.017        0.504      101.167       36.873        0.133      337.870       10.136      859.139
09/28/2014  13:31:00      -82.937      -65.486       15.758       91.614       47.234       34.392     8393.076     2231.071     1182.806        1.161        0.590      105.674       37.599        0.127      337.905       10.194      859.116
09/28/2014  13:32:00      -97.440      -34.283        6.473       61.206       47.994       31.641     3746.188     2303.418     1001.177        0.888        0.353      103.295       33.078        0.103      337.908       10.200      859.106
09/28/2014  13:33:00     -107.629      -54.084       18.711       83.358       66.592       42.287     6948.579     4434.504     1788.225        1.401        0.659      120.454       44.028        0.134      337.901       10.187      859.093
09/28/2014  13:34:00      -93.560     -115.251        0.761       78.897       61.309       48.842     6224.734     3758.769     2385.555        1.720        0.618      148.446       43.895        0.087      337.905       10.196      859.082
09/28/2014  13:35:00      -65.317      -83.781        9.284       68.489       47.672       33.420     4690.769     2272.606     1116.902        0.972        0.404      106.233       35.398        0.111      337.967       10.298      859.075
09/28/2014  13:36:00     -125.084      -39.846       -9.857      108.255       44.946       32.106    11719.050     2020.107     1030.773        1.605        0.738      131.277       47.962        0.133      337.891       10.170      859.063
09/28/2014  13:37:00     -145.660     -115.401       -7.557       91.128       81.342       45.474     8304.274     6616.572     2067.883        2.579        0.849      185.834       44.161        0.056      337.929       10.234      859.050
09/28/2014  13:38:00     -229.027      -99.705      -11.469      117.960      117.872       55.316    13914.547    13893.709     3059.884        4.669        1.543      249.789       60.115        0.058      337.881       10.153      859.045
09/28/2014  13:39:00     -277.873     -202.775      -20.353      117.394       73.109       49.294    13781.407     5344.856     2429.938        7.015        1.078      343.993       44.741        0.017      337.800       10.015      859.041
09/28/2014  13:40:00     -118.696     -161.394        4.843      113.348       76.391       50.220    12847.675     5835.536     2522.027        3.068        1.060      200.342       52.460        0.069      337.903       10.188      859.033
09/28/2014  13:41:00     -186.902     -141.128        2.235       64.394       70.842       45.712     4146.623     5018.618     2089.611        3.305        0.563      234.200       40.687        0.030      337.863       10.121      859.020
09/28/2014  13:42:00     -137.322      -78.982        5.240       77.970       57.762       34.083     6079.310     3336.470     1161.622        1.785        0.529      158.415       39.491        0.062      337.951       10.269      859.015
09/28/2014  13:43:00     -106.286      -43.176        6.079       67.588       60.202       37.544     4568.091     3624.246     1409.554        1.140        0.480      114.721       38.578        0.113      337.998       10.351      859.021
09/28/2014  13:44:00     -134.830      -34.463       -6.094       64.616       38.275       30.341     4175.173     1464.987      920.549        1.298        0.328      139.165       31.669        0.052      337.944       10.260      859.031
09/28/2014  13:45:00     -137.699      -13.000       -4.977      100.401       78.410       35.156    10080.388     6148.107     1235.975        1.831        0.873      138.312       37.475        0.073      338.008       10.366      859.045
09/28/2014  13:46:00      -74.713      -18.213       14.863       78.675       42.862       33.244     6189.711     1837.114     1105.160        0.763        0.457       76.901       39.305        0.261      338.072       10.476      859.061
09/28/2014  13:47:00     -185.829      -77.758        5.686      101.032       84.191       37.388    10207.556     7088.109     1397.887        2.965        0.935      201.441       39.330        0.038      337.980       10.317      859.072
09/28/2014  13:48:00     -156.607      -24.588       -8.107       83.520       53.704       34.161     6975.526     2884.103     1166.978        1.811        0.551      158.525       41.453        0.068      337.974       10.308      859.092
09/28/2014  13:49:00     -168.899        9.023      -15.536       36.919       45.893       23.286     1362.998     2106.148      542.215        1.643        0.201      169.140       17.460        0.011      337.934       10.245      859.109
09/28/2014  13:50:00     -115.945       -0.985       -9.069       87.832       57.897       35.943     7714.509     3352.065     1291.909        1.294        0.618      115.950       41.737        0.130      338.043       10.426      859.118
09/28/2014  13:51:00     -105.950      100.330        0.388       50.792       85.580       44.859     2579.782     7323.966     2012.286        1.660        0.596      145.916       41.323        0.080      338.059       10.453      859.108
09/28/2014  13:52:00     -105.713      -18.225       -3.754       50.763       55.997       28.542     2576.886     3135.666      814.639        0.902        0.326      107.272       30.379        0.080      338.086       10.500      859.096
09/28/2014  13:53:00     -133.522      -28.701       -7.946       95.142       55.297       34.227     9052.072     3057.751     1171.492        1.600        0.664      136.572       29.143        0.046      338.163       10.626      859.098
09/28/2014  13:54:00     -183.671      -23.956      -10.017       93.679       44.733       38.218     8775.706     2001.054     1460.608        2.332        0.612      185.226       49.944        0.073      338.037       10.416      859.096
09/28/2014  13:55:00     -157.527       14.732      -13.155       56.997       45.120       39.391     3248.675     2035.770     1551.656        1.602        0.342      158.215       27.035        0.029      338.077       10.483      859.092
09/28/2014  13:56:00     -100.316      -80.077        3.903       68.291       73.615       39.415     4663.614     5419.218     1553.581        1.406        0.582      128.358       42.936        0.112      338.139       10.587      859.079
09/28/2014  13:57:00      -97.776      -51.348       -1.346       38.588       35.710       26.716     1489.002     1275.204      713.721        0.784        0.174      110.439       21.091        0.036      338.158       10.618      859.082
09/28/2014  13:58:00     -120.950      -52.948        7.265       75.394       50.746       31.945     5684.286     2575.183     1020.497        1.338        0.464      132.032       36.604        0.077      338.224       10.730      859.078
09/28/2014  13:59:00      -17.647      -22.348        6.732       65.242       43.274       31.118     4256.485     1872.671      968.302        0.398        0.355       28.475       31.120        1.194      338.357       10.954      859.083
09/28/2014  14:00:00      -59.971      -38.205        5.942       53.551       41.659       25.148     2867.723     1735.507      632.431        0.516        0.262       71.106       27.535        0.150      338.422       11.062      859.080
09/28/2014  14:01:00      -60.116       -8.144        1.277       63.209       33.925       26.624     3995.355     1150.911      708.820        0.477        0.293       60.665       17.743        0.086      338.442       11.095      859.079
09/28/2014  14:02:00     -141.458      -29.894       -7.933       41.077       31.056       24.895     1687.361      964.474      619.745        1.212        0.164      144.582       23.892        0.027      338.174       10.647      859.089
09/28/2014  14:03:00      -68.740       59.922       -5.042       47.140       40.368       26.673     2222.220     1629.553      711.440        0.645        0.228       91.191       25.934        0.081      338.225       10.732      859.098
09/28/2014  14:04:00      -52.328        8.927       -8.519       32.733       38.847       20.234     1071.464     1509.108      409.415        0.294        0.149       53.084       18.370        0.120      338.271       10.809      859.108
09/28/2014  14:05:00      -70.662      -25.084       -7.604       32.689       20.677       17.755     1068.587      427.544      315.247        0.375        0.091       74.982       15.150        0.041      338.278       10.820      859.117
09/28/2014  14:06:00      -37.091        4.665       -3.032       26.377       28.126       17.488      695.720      791.048      305.847        0.160        0.090       37.383       12.219        0.107      338.370       10.975      859.140
09/28/2014  14:07:00      -61.676      -12.692        0.198       49.976       19.423       19.744     2497.600      377.241      389.811        0.361        0.163       62.969       26.588        0.178      338.374       10.981      859.150
09/28/2014  14:08:00      -83.779        5.105      -13.368       41.732       39.398       25.082     1741.585     1552.205      629.096        0.557        0.196       83.934       27.214        0.105      338.282       10.828      859.158
09/28/2014  14:09:00      -45.221       46.948       -2.532       30.450       46.651       22.708      927.222     2176.274      515.632        0.394        0.181       65.185       20.881        0.103      338.385       11.001      859.156
09/28/2014  14:10:00      -66.213      -39.367      -15.019       40.853       32.527       25.324     1668.930     1057.986      641.303        0.476        0.168       77.032       20.214        0.069      338.328       10.905      859.156
09/28/2014  14:11:00     -106.877      -53.433       -9.878       13.653       17.108       13.149      186.418      292.688      172.891        0.751        0.033      119.490        9.549        0.006      338.226       10.733      859.144
09/28/2014  14:12:00      -42.053      -20.059       -0.386       52.057       18.326       18.324     2709.904      335.859      335.785        0.278        0.169       46.592       24.406        0.274      338.390       11.009      859.136
09/28/2014  14:13:00      -44.750      -17.541       -3.955       40.397       18.430       14.867     1631.891      339.664      221.019        0.226        0.110       48.065       18.976        0.156      338.383       10.998      859.135
09/28/2014  14:14:00        6.253       -8.091       13.593       17.587       17.685       14.084      309.295      312.753      198.360        0.055        0.041       10.226        2.838        0.077      338.726       11.573      859.123
09/28/2014  14:15:00      -25.757      -33.944        6.896       48.794       22.225       16.697     2380.835      493.929      278.806        0.251        0.158       42.610       21.197        0.247      338.439       11.092      859.111
09/28/2014  14:16:00      -61.554      -24.492       -3.295       28.556       27.976       16.269      815.456      782.669      264.673        0.313        0.093       66.247       14.748        0.050      338.313       10.880      859.115
09/28/2014  14:17:00      -26.623      -23.913        0.010       17.900       16.831       10.273      320.404      283.273      105.544        0.099        0.035       35.786        9.747        0.074      338.396       11.018      859.115
09/28/2014  14:18:00       -8.445      -14.833        9.593       24.449       16.806       17.835      597.746      282.433      318.086        0.079        0.060       17.068       18.265        1.145      338.654       11.453      859.109
09/28/2014  14:19:00       -7.957      -22.519        5.444       13.960       12.689       12.201      194.895      161.013      148.869        0.055        0.025       23.884        8.423        0.124      338.527       11.239      859.109
09/28/2014  14:20:00        3.719       28.138        4.254       16.670       27.131       15.227      277.903      736.081      231.877        0.103        0.062       28.382       15.749        0.308      338.708       11.542      859.104
09/28/2014  14:21:00       -1.959       33.455       -5.254       25.252       28.098       18.142      637.673      789.486      329.117        0.145        0.088       33.512       16.847        0.253      338.599       11.359      859.100
09/28/2014  14:22:00       35.399       23.801        7.785       24.580       20.822       18.862      604.154      433.560      355.771        0.164        0.070       42.657       13.456        0.100      338.659       11.461      859.095
09/28/2014  14:23:00       60.509       44.367       -0.478       12.289       12.744       20.201      151.026      162.398      408.060        0.318        0.036       75.032       11.696        0.024      338.428       11.073      859.097
09/28/2014  14:24:00       63.493       38.665        7.591       24.574       16.445       15.408      603.888      270.438      237.418        0.335        0.056       74.339       10.130        0.019      338.510       11.210      859.106
09/28/2014  14:25:00       87.175       60.555       26.763       16.016       12.625       16.349      256.508      159.383      267.296        0.633        0.034      106.143        7.697        0.005      338.399       11.023      859.105
09/28/2014  14:26:00       62.052       41.276       24.067       29.082       23.843       22.635      845.744      568.511      512.347        0.403        0.096       74.526       19.696        0.070      338.442       11.095      859.117
09/28/2014  14:27:00       47.570       45.147       58.075       18.020       29.248       14.949      324.718      855.418      223.469        0.454        0.070       65.583       14.889        0.052      338.537       11.255      859.123
09/28/2014  14:28:00       75.190       39.525       27.960       42.507       32.440       33.524     1806.820     1052.367     1123.844        0.599        0.199       84.946       28.365        0.112      338.504       11.200      859.131
09/28/2014  14:29:00      145.645       95.562       12.537       49.830       30.335       31.126     2482.980      920.217      968.828        1.744        0.219      174.197       14.691        0.007      338.353       10.945      859.149
09/28/2014  14:30:00      125.717       79.887       37.199       44.538       31.205       29.036     1983.635      973.721      843.088        1.368        0.190      148.952       23.380        0.025      338.437       11.087      859.162
09/28/2014  14:31:00       93.721       58.849       30.186       42.223       26.598       32.902     1782.822      707.469     1082.534        0.836        0.179      110.665        7.079        0.004      338.530       11.243      859.171
09/28/2014  14:32:00      106.392       65.381       10.213       42.475       34.750       34.062     1804.168     1207.571     1160.250        0.993        0.209      124.876       21.782        0.030      338.588       11.342      859.175
09/28/2014  14:33:00       73.196       65.705       -0.047       44.106       30.499       26.030     1945.355      930.207      677.538        0.661        0.178       98.361       18.176        0.034      338.516       11.221      859.182
09/28/2014  14:34:00       63.106       45.409        0.207       51.401       38.888       28.554     2642.085     1512.257      815.315        0.551        0.248       77.745       19.344        0.062      338.589       11.343      859.181
09/28/2014  14:35:00       60.102       82.245       -3.336       47.086       50.612       39.149     2217.062     2561.530     1532.642        0.835        0.316      101.865       32.946        0.105      338.507       11.206      859.188
09/28/2014  14:36:00       66.122       56.823        7.952       48.329       39.676       38.659     2335.719     1574.223     1494.481        0.653        0.270       87.184       27.054        0.096      338.541       11.263      859.187
09/28/2014  14:37:00       52.204       58.670        0.236       41.291       48.784       28.505     1704.979     2379.917      812.541        0.553        0.245       78.533       24.848        0.100      338.561       11.295      859.198
09/28/2014  14:38:00       30.129       57.404        2.300       36.406       53.745       27.741     1325.377     2888.522      769.587        0.460        0.249       64.831       20.513        0.100      338.577       11.323      859.203
09/28/2014  14:39:00       61.186       87.141       -0.647       61.833       49.142       32.742     3823.283     2414.936     1072.058        0.932        0.366      106.477       27.404        0.066      338.494       11.183      859.203
09/28/2014  14:40:00      117.342       87.002       29.902       37.491       29.941       36.616     1405.541      896.457     1340.703        1.294        0.182      146.077       27.643        0.036      338.451       11.111      859.212
09/28/2014  14:41:00       98.977       61.159       32.678       56.453       40.491       33.001     3186.910     1639.541     1089.034        1.026        0.296      116.348       17.564        0.023      338.614       11.384      859.217
09/28/2014  14:42:00      161.762      104.517       33.386       48.731       45.109       36.585     2374.717     2034.782     1338.484        2.198        0.287      192.589       31.105        0.026      338.361       10.959      859.210
09/28/2014  14:43:00      107.534       69.007       21.675       51.223       43.786       32.053     2623.827     1917.175     1027.418        1.118        0.278      127.771       24.438        0.037      338.413       11.048      859.205
09/28/2014  14:44:00       63.271       49.551       37.402       28.380       31.644       27.375      805.450     1001.347      749.385        0.521        0.128       80.365       12.881        0.026      338.543       11.267      859.208
09/28/2014  14:45:00      117.861       93.524       56.211       61.509       36.648       37.602     3783.345     1343.093     1413.896        1.617        0.327      150.459       30.882        0.042      338.509       11.208      859.200
09/28/2014  14:46:00       89.720       82.853       63.873       64.923       50.166       51.510     4215.003     2516.645     2653.258        1.419        0.469      122.124       41.289        0.114      338.577       11.322      859.207
09/28/2014  14:47:00       91.095       59.417       45.339       54.814       41.138       38.969     3004.561     1692.349     1518.546        1.005        0.311      108.760       31.032        0.081      338.600       11.361      859.204
09/28/2014  14:48:00       93.663       78.713       84.796       51.108       49.319       40.467     2611.995     2432.365     1637.544        1.442        0.334      122.346       34.942        0.082      338.502       11.196      859.194
09/28/2014  14:49:00       81.951       64.414       71.216       44.650       39.350       40.222     1993.626     1548.447     1617.830        1.055        0.258      104.236       29.617        0.081      338.515       11.218      859.186
09/28/2014  14:50:00       67.990       55.082       15.287       37.367       31.893       27.342     1396.288     1017.164      747.560        0.553        0.158       87.502       13.858        0.025      338.468       11.138      859.186
09/28/2014  14:51:00       50.100       39.477       34.330       42.095       26.320       24.862     1771.992      692.741      618.113        0.416        0.154       63.785       17.490        0.075      338.619       11.393      859.169
09/28/2014  14:52:00       34.380      -12.588       37.087       33.010       64.158       36.023     1089.634     4116.223     1297.664        0.461        0.325       36.612       42.138        1.325      338.759       11.629      859.163
09/28/2014  14:53:00       63.425      -34.600       21.963       51.312       61.843       29.337     2632.870     3824.516      860.678        0.651        0.366       72.249       30.314        0.176      338.791       11.683      859.164
09/28/2014  14:54:00       73.232        9.484       29.210       60.342       80.704       26.349     3641.135     6513.134      694.261        0.858        0.542       73.844       26.737        0.131      338.657       11.456      859.159
09/28/2014  14:55:00      145.938       65.339       15.302       37.423       37.020       32.117     1400.459     1370.487     1031.521        1.480        0.190      159.897       15.927        0.010      338.566       11.304      859.166
09/28/2014  14:56:00       67.260       54.497       50.883       51.642       32.974       35.180     2666.899     1087.254     1237.611        0.754        0.250       86.567       34.442        0.158      338.707       11.541      859.166
09/28/2014  14:57:00       94.517       56.566       39.207       56.878       51.181       50.648     3235.051     2619.544     2565.252        1.104        0.421      110.151       26.100        0.056      338.681       11.499      859.171
09/28/2014  14:58:00      108.632       40.591       15.469       55.149       38.230       32.154     3041.429     1461.534     1033.911        0.961        0.277      115.968       20.771        0.032      338.773       11.653      859.177
09/28/2014  14:59:00       45.805       43.137       29.929       52.350       44.414       34.591     2740.551     1972.588     1196.572        0.538        0.295       62.920       20.670        0.108      339.146       12.279      859.184
09/28/2014  15:00:00      105.192       96.140       16.727       37.038       44.543       40.413     1371.804     1984.043     1633.202        1.279        0.249      142.507       33.697        0.056      338.847       11.778      859.188
09/28/2014  15:01:00       99.530       63.124       26.746       54.120       35.966       37.133     2928.985     1293.565     1378.870        1.010        0.280      117.860       19.163        0.026      338.801       11.701      859.201
09/28/2014  15:02:00      128.286       51.504       27.777       46.920       44.566       36.786     2201.451     1986.126     1353.235        1.271        0.277      138.239       25.389        0.034      338.785       11.673      859.215
09/28/2014  15:03:00      105.625       42.740        1.209       62.751       47.582       31.439     3937.695     2264.016      988.411        1.009        0.360      113.945       23.705        0.043      338.845       11.774      859.226
09/28/2014  15:04:00       56.564       54.172      -12.036       40.730       44.109       37.815     1658.927     1945.599     1429.941        0.566        0.252       78.321       24.431        0.097      338.917       11.895      859.256
09/28/2014  15:05:00       87.117       30.258        5.480       63.259       42.987       24.705     4001.749     1847.912      610.356        0.750        0.323       92.222       14.096        0.023      338.840       11.764      859.269
09/28/2014  15:06:00       44.417       -0.583        4.423       44.118       34.470       21.094     1946.425     1188.183      444.972        0.279        0.179       44.421       22.436        0.255      338.823       11.735      859.276
09/28/2014  15:07:00        6.173       30.695        9.683       22.258       32.632       22.872      495.399     1064.833      523.115        0.158        0.104       31.309       22.069        0.497      339.267       12.484      859.283
09/28/2014  15:08:00      -10.647       84.095        1.679       25.480       41.425       25.357      649.243     1716.025      642.987        0.510        0.150       84.766       29.331        0.120      338.921       11.901      859.285
09/28/2014  15:09:00       94.145       58.869       43.967       34.973       29.395       39.495     1223.135      864.056     1559.881        0.895        0.182      111.036       26.788        0.058      338.912       11.886      859.290
09/28/2014  15:10:00       80.990      104.635       68.889       62.515       42.266       52.504     3908.156     1786.451     2756.641        1.535        0.423      132.317       40.205        0.092      338.900       11.867      859.284
09/28/2014  15:11:00       81.892       56.692       53.715       50.545       42.643       35.075     2554.816     1818.467     1230.281        0.920        0.280       99.601       30.925        0.096      338.850       11.782      859.278
09/28/2014  15:12:00       38.333       21.804       26.890       59.615       59.434       33.916     3553.988     3532.360     1150.288        0.545        0.412       44.100       35.514        0.649      339.056       12.129      859.270
09/28/2014  15:13:00       61.758       50.329       70.652       56.813       55.215       41.748     3227.735     3048.667     1742.858        0.968        0.401       79.669       46.668        0.343      338.862       11.802      859.259
09/28/2014  15:14:00       58.919       33.118       51.522       51.324       46.240       30.068     2634.185     2138.116      904.104        0.645        0.284       67.589       26.375        0.152      339.052       12.121      859.245
09/28/2014  15:15:00       95.078       81.138       56.683       64.837       57.189       42.031     4203.777     3270.577     1766.577        1.404        0.462      124.993       35.791        0.082      339.168       12.317      859.230
09/28/2014  15:16:00      141.540      110.508       55.940       41.675       35.385       29.259     1736.781     1252.126      856.083        1.961        0.192      179.570       17.655        0.010      338.890       11.848      859.221
09/28/2014  15:17:00       91.560       -1.283       26.886       56.231       83.250       45.382     3161.927     6930.583     2059.522        1.063        0.608       91.569       46.527        0.258      339.022       12.072      859.211
09/28/2014  15:18:00       61.031        9.192       17.036       57.571       43.753       28.353     3314.388     1914.355      803.871        0.507        0.302       61.720       18.033        0.085      339.175       12.329      859.198
09/28/2014  15:19:00      114.073       97.092       24.204       54.428       27.910       36.109     2962.415      778.985     1303.893        1.403        0.252      149.798       25.172        0.028      338.922       11.903      859.196
09/28/2014  15:20:00       44.596       45.753       56.159       40.880       30.843       38.186     1671.181      951.311     1458.166        0.566        0.204       63.891       14.299        0.050      339.292       12.525      859.195
09/28/2014  15:21:00       64.756       21.795       41.331       38.227       32.094       36.740     1461.271     1029.996     1349.814        0.511        0.192       68.325       31.687        0.215      339.073       12.156      859.188
09/28/2014  15:22:00       15.857      -30.619       27.293       18.989       24.861       19.760      360.589      618.054      390.470        0.165        0.068       34.481       13.573        0.155      339.416       12.733      859.179
09/28/2014  15:23:00       -2.189        5.218        5.672       17.335       19.369       22.133      300.507      375.175      489.874        0.061        0.058        5.659       17.819        9.915      339.649       13.127      859.175
09/28/2014  15:24:00        5.107       29.387       27.125       23.919       25.895       26.387      572.122      670.531      696.283        0.178        0.097       29.827        9.423        0.100      339.813       13.403      859.164
09/28/2014  15:25:00       26.967       47.120       59.453       32.968       54.373       36.998     1086.914     2956.461     1368.886        0.595        0.271       54.291       34.480        0.403      339.604       13.051      859.155
09/28/2014  15:26:00      -13.738       -4.357       48.044       48.818       73.638       43.345     2383.199     5422.555     1878.748        0.610        0.484       14.413       47.104       10.681      339.803       13.388      859.151
09/28/2014  15:27:00       12.253       21.176       61.502       42.662       63.450       42.384     1820.037     4025.847     1796.443        0.601        0.382       24.465       41.349        2.857      339.956       13.645      859.164
09/28/2014  15:28:00       67.084       35.729       23.067       53.066       51.946       43.287     2816.012     2698.355     1873.790        0.685        0.369       76.006       30.450        0.161      339.262       12.474      859.170
09/28/2014  15:29:00       58.256       16.867       28.620       55.021       36.972       42.639     3027.274     1366.944     1818.049        0.535        0.311       60.649       31.437        0.269      339.579       13.009      859.162
09/28/2014  15:30:00       61.322       63.828       61.449       77.196       41.608       52.162     5959.227     1731.197     2720.875        1.101        0.521       88.512       46.028        0.270      339.594       13.034      859.152
09/28/2014  15:31:00       26.882       -9.122       51.289       50.104       90.223       47.498     2510.425     8140.121     2256.078        0.817        0.645       28.388       32.976        1.349      339.884       13.524      859.144
09/28/2014  15:32:00       99.139     -134.033      -11.396       51.565       66.942       47.083     2658.968     4481.182     2216.827        1.864        0.468      166.714       50.603        0.092      339.188       12.349      859.144
09/28/2014  15:33:00      119.701     -168.016      -31.717       44.579       49.774       28.882     1987.265     2477.427      834.165        2.443        0.265      206.295       18.692        0.008      339.171       12.320      859.129
09/28/2014  15:34:00       90.200      -43.910       19.748       52.956       64.212       49.905     2804.361     4123.222     2490.461        0.993        0.471      100.321       43.409        0.187      339.173       12.326      859.139
09/28/2014  15:35:00       78.355       50.359       24.981       41.787       71.305       48.178     1746.153     5084.356     2321.129        0.922        0.458       93.142       25.697        0.076      339.428       12.754      859.113
09/28/2014  15:36:00       37.739      -11.412       50.305       63.221       78.586       38.956     3996.906     6175.730     1517.603        0.789        0.585       39.426       46.762        1.407      339.850       13.466      859.096
09/28/2014  15:37:00       78.006     -187.643      -14.275       48.416       35.677       30.970     2344.083     1272.820      959.158        2.304        0.229      203.211       27.171        0.018      339.144       12.274      859.094
09/28/2014  15:38:00       68.320     -171.004      -21.489       48.081       40.231       28.022     2311.810     1618.567      785.211        1.954        0.236      184.146       15.536        0.007      339.195       12.361      859.094
09/28/2014  15:39:00       72.671      -91.411      -15.865       49.024       60.161       33.904     2403.322     3619.300     1149.471        1.053        0.359      116.778       29.358        0.063      339.437       12.770      859.089
09/28/2014  15:40:00       71.430      -73.526       -2.557       45.892       51.966       38.560     2106.056     2700.464     1486.885        0.840        0.315      102.510       37.490        0.134      339.718       13.244      859.087
09/28/2014  15:41:00       51.882      -82.453       27.581       37.069       58.034       43.769     1374.087     3367.986     1915.740        0.845        0.333       97.418       27.739        0.081      339.666       13.156      859.108
09/28/2014  15:42:00       29.653      -22.212       42.207       42.664       67.858       50.663     1820.202     4604.708     2566.707        0.607        0.450       37.050       52.447        2.004      339.596       13.037      859.127
09/28/2014  15:43:00      -45.731      -17.858       -4.471       35.265       53.732       27.013     1243.612     2887.116      729.701        0.364        0.243       49.094       12.446        0.064      339.434       12.766      859.141
09/28/2014  15:44:00       35.257       48.643       30.955       58.783       27.294       24.328     3455.450      744.950      591.864        0.468        0.240       60.076       27.974        0.217      339.764       13.321      859.147
09/28/2014  15:45:00      113.370       54.072       17.958       62.544       35.438       45.279     3911.722     1255.835     2050.224        1.166        0.361      125.605       33.162        0.070      339.556       12.969      859.155
09/28/2014  15:46:00       86.451       34.726       30.961       67.394       71.375       54.023     4542.003     5094.429     2918.474        1.109        0.628       93.165       50.057        0.289      339.696       13.206      859.151
09/28/2014  15:47:00      130.427       78.130       63.701       68.800       78.260       58.903     4733.502     6124.677     3469.544        2.075        0.716      152.038       52.317        0.118      339.355       12.629      859.152
09/28/2014  15:48:00       90.027       30.931       82.353       68.756       72.000       55.626     4727.425     5184.014     3094.238        1.442        0.650       95.192       54.289        0.325      339.437       12.768      859.146
09/28/2014  15:49:00       42.048      -30.735       26.565       37.575       41.803       36.152     1411.870     1747.490     1306.987        0.394        0.223       52.084       34.893        0.449      339.512       12.896      859.149
09/28/2014  15:50:00        1.183       -2.350       45.369       35.354       56.128       37.160     1249.940     3150.344     1380.879        0.392        0.289        2.631       34.221      169.192      339.818       13.411      859.145
09/28/2014  15:51:00       44.232      -81.646       -8.340       49.288       25.262       24.001     2429.331      638.144      576.061        0.617        0.182       92.858       15.826        0.029      339.541       12.945      859.162
09/28/2014  15:52:00       40.764       30.443       18.362       38.761       40.057       23.902     1502.387     1604.593      571.282        0.330        0.184       50.877       13.097        0.066      339.544       12.951      859.170
09/28/2014  15:53:00       63.318       29.839        3.365       38.992       28.833       23.384     1520.352      831.363      546.807        0.390        0.145       69.996       17.990        0.066      339.506       12.888      859.168
09/28/2014  15:54:00       15.870        0.826       11.345       27.627       21.366       20.684      763.255      456.514      427.838        0.101        0.082       15.892       11.950        0.565      339.744       13.287      859.161
09/28/2014  15:55:00       44.610      -27.540       21.602       45.007       60.792       36.201     2025.653     3695.627     1310.503        0.512        0.352       52.427       30.782        0.345      339.713       13.236      859.157
09/28/2014  15:56:00       35.695     -142.346      -22.871       52.477       37.176       30.594     2753.792     1382.087      935.980        1.356        0.254      146.753       25.304        0.030      339.495       12.866      859.141
09/28/2014  15:57:00       47.427      -77.024       -0.194       44.424       50.055       43.228     1973.527     2505.489     1868.702        0.726        0.317       90.454       27.042        0.089      339.604       13.050      859.126
09/28/2014  15:58:00       24.674      -10.054       41.233       29.196       59.963       30.226      852.421     3595.602      913.624        0.388        0.268       26.644       28.339        1.131      339.760       13.313      859.118
09/28/2014  15:59:00       35.165       60.378       73.617       57.428       54.708       43.546     3297.954     2992.952     1896.242        0.924        0.409       69.872       23.605        0.114      339.660       13.147      859.103
09/28/2014  16:00:00       72.872       91.442       60.261       72.439       35.144       48.912     5247.345     1235.117     2392.415        1.309        0.444      116.927       52.207        0.199      339.400       12.707      859.107
09/28/2014  16:01:00      104.227       93.028       60.194       36.748       30.994       46.444     1350.452      960.642     2157.086        1.380        0.223      139.706       31.204        0.050      339.432       12.760      859.090
09/28/2014  16:02:00       15.670      -11.959        9.397       31.138       57.971       33.822      969.580     3360.639     1143.931        0.297        0.274       19.712       13.059        0.439      339.627       13.090      859.092
09/28/2014  16:03:00       74.594       -6.168       27.300       48.374       50.240       40.875     2340.015     2524.086     1670.779        0.644        0.327       74.849       44.459        0.353      339.441       12.776      859.096
09/28/2014  16:04:00       28.455       32.085       32.153       23.275       24.672       24.336      541.723      608.702      592.230        0.231        0.087       42.886       10.087        0.055      339.440       12.775      859.073
09/28/2014  16:05:00        1.466       35.044       50.652       21.437       27.873       31.237      459.549      776.914      975.735        0.300        0.111       35.075       26.944        0.590      339.709       13.229      859.064
09/28/2014  16:06:00        6.613       19.972       53.782       26.910       28.453       23.407      724.130      809.582      547.902        0.271        0.104       21.038       21.513        1.046      339.825       13.424      859.049
09/28/2014  16:07:00      -22.439      -31.982        7.796       35.216       42.806       26.595     1240.140     1832.357      707.318        0.268        0.189       39.068       15.243        0.152      339.895       13.542      859.045
09/28/2014  16:08:00        1.465      -35.872       12.090       18.205       40.470       27.372      331.432     1637.819      749.237        0.208        0.136       35.902       25.740        0.514      340.034       13.777      859.043
09/28/2014  16:09:00       24.836      -76.116        0.913       48.505       33.813       29.692     2352.736     1143.344      881.594        0.539        0.219       80.065        8.925        0.012      339.789       13.363      859.045
09/28/2014  16:10:00       30.630       -7.318       42.653       51.673       42.982       27.455     2670.110     1847.490      753.774        0.404        0.264       31.492       29.221        0.861      339.629       13.093      859.058
09/28/2014  16:11:00        5.396       16.005       37.749       18.578       26.648       14.818      345.150      710.141      219.561        0.149        0.064       16.890       11.140        0.435      339.802       13.385      859.071
09/28/2014  16:12:00       -8.453      -17.688       16.082       24.453       26.643       19.503      597.951      709.868      380.362        0.117        0.084       19.604       15.261        0.606      339.743       13.285      859.101
09/28/2014  16:13:00       35.657       31.275       10.249       42.631       33.673       23.965     1817.373     1133.859      574.313        0.294        0.176       47.429       23.841        0.253      339.582       13.013      859.109
09/28/2014  16:14:00       43.480       19.217       -9.842       39.018       24.351       26.292     1522.404      592.991      691.284        0.258        0.140       47.537       16.683        0.123      339.498       12.872      859.115
09/28/2014  16:15:00       72.637       34.968       14.087       36.484       24.652       23.814     1331.075      607.704      567.116        0.460        0.125       80.616       19.751        0.060      339.385       12.681      859.120
09/28/2014  16:16:00       31.437       17.062        7.189       48.189       23.786       24.187     2322.220      565.781      585.004        0.240        0.174       35.769       24.341        0.463      339.467       12.821      859.128
09/28/2014  16:17:00       38.629        2.888       -5.478       17.365       15.044       12.004      301.548      226.324      144.084        0.110        0.034       38.737        9.342        0.058      339.402       12.710      859.128
09/28/2014  16:18:00        7.070       16.175       -0.528       19.295       11.129       10.732      372.285      123.863      115.184        0.046        0.031       17.653        7.405        0.176      339.593       13.033      859.128
09/28/2014  16:19:00       17.493       24.813        0.451       18.643       19.765       17.542      347.547      390.672      307.710        0.098        0.052       30.359       11.213        0.136      339.591       13.030      859.130
09/28/2014  16:20:00       21.912       32.197       -0.661       30.321       24.562       20.234      919.334      603.288      409.416        0.172        0.097       38.946       12.799        0.108      339.519       12.910      859.130
09/28/2014  16:21:00       44.759       31.067       -1.079       39.852       33.051       25.894     1588.206     1092.382      670.476        0.316        0.168       54.484       19.050        0.122      339.552       12.963      859.134
09/28/2014  16:22:00      103.756       51.471       10.078       38.838       25.262       28.171     1508.365      638.181      793.603        0.823        0.147      115.821       13.214        0.013      339.528       12.923      859.127
09/28/2014  16:23:00       85.041       62.296        8.701       39.465       32.482       24.101     1557.456     1055.095      580.860        0.719        0.160      105.417        7.993        0.006      339.443       12.780      859.125
09/28/2014  16:24:00       60.160       32.486       16.132       32.372       19.224       23.249     1047.973      369.557      540.536        0.345        0.098       68.371       11.466        0.028      339.440       12.775      859.120
09/28/2014  16:25:00       15.499        5.252       13.865       21.004       30.837       18.532      441.163      950.928      343.429        0.110        0.087       16.365       15.637        0.913      339.565       12.985      859.117
09/28/2014  16:26:00       92.762       38.311       13.780       34.883       22.874       24.927     1216.840      523.213      621.335        0.631        0.118      100.362       18.943        0.036      339.425       12.748      859.114
09/28/2014  16:27:00       58.620       44.434       48.371       44.302       36.100       27.937     1962.676     1303.237      780.496        0.590        0.202       73.557       24.417        0.110      339.558       12.973      859.123
09/28/2014  16:28:00       51.658       50.484       48.096       46.598       39.661       28.637     2171.413     1573.031      820.061        0.605        0.228       72.230       22.113        0.094      339.585       13.019      859.121
09/28/2014  16:29:00       82.987       47.069       31.119       45.622       26.723       31.005     2081.399      714.141      961.319        0.691        0.188       95.406       21.176        0.049      339.577       13.005      859.132
09/28/2014  16:30:00        0.583       18.381       38.499       21.626       32.142       23.358      467.672     1033.089      545.609        0.193        0.102       18.390       19.173        1.087      339.789       13.364      859.148
09/28/2014  16:31:00        1.701       41.419       53.291       18.319       37.947       18.690      335.574     1439.949      349.316        0.334        0.106       41.454       17.253        0.173      339.745       13.290      859.163
09/28/2014  16:32:00       20.543       63.302       62.812       42.702       38.244       24.940     1823.484     1462.635      622.000        0.614        0.195       66.552       20.558        0.095      339.805       13.391      859.180
09/28/2014  16:33:00       27.505       43.598       21.448       26.199       24.165       33.679      686.410      583.931     1134.284        0.276        0.120       51.549       22.754        0.195      339.589       13.025      859.190
09/28/2014  16:34:00        5.115       18.275       37.257       15.912       22.623       17.024      253.193      511.793      289.807        0.140        0.053       18.977       15.504        0.667      339.801       13.385      859.193
09/28/2014  16:35:00       33.286       71.281      -12.524       22.240       30.268       17.443      494.634      916.176      304.272        0.403        0.086       78.669       16.076        0.042      339.498       12.872      859.189
09/28/2014  16:36:00       21.535       65.313       -9.193       16.673       19.695       12.590      277.991      387.888      158.511        0.282        0.041       68.772       11.145        0.026      339.473       12.831      859.182
09/28/2014  16:37:00       27.677       75.717      -10.237       16.791       24.579       15.707      281.929      604.151      246.700        0.387        0.057       80.617        6.434        0.006      339.454       12.801      859.185
09/28/2014  16:38:00       17.432       60.998      -19.224       25.810       24.281       18.395      666.165      589.581      338.375        0.299        0.080       63.440       13.721        0.047      339.454       12.798      859.192
09/28/2014  16:39:00      -24.364       26.420      -18.661       19.772       25.956       20.678      390.913      673.694      427.564        0.157        0.075       35.939       16.535        0.212      339.484       12.847      859.201
09/28/2014  16:40:00        1.933        2.362        7.060        9.275        6.798       15.265       86.018       46.217      233.010        0.021        0.018        3.052        5.325        3.044      339.603       13.050      859.206
09/28/2014  16:41:00      -30.980       55.820        0.592       35.239       28.720       22.083     1241.820      824.853      487.664        0.331        0.128       63.840       23.794        0.139      339.617       13.073      859.215
09/28/2014  16:42:00       -9.764       66.668       -7.257       27.553       36.979       24.312      759.155     1367.412      591.073        0.365        0.136       67.379       27.306        0.164      339.557       12.969      859.235
09/28/2014  16:43:00       -8.915       83.856      -12.920       23.181       29.133       15.423      537.352      848.735      237.872        0.445        0.081       84.328       16.994        0.041      339.496       12.868      859.245
09/28/2014  16:44:00       81.750       49.430        2.253       19.614       42.817       18.847      384.697     1833.291      355.204        0.585        0.129       95.532       15.122        0.025      339.498       12.869      859.258
09/28/2014  16:45:00       53.959       35.720       -1.756       20.606       19.225       14.865      424.596      369.605      220.965        0.260        0.051       64.711        9.514        0.022      339.521       12.910      859.266
09/28/2014  16:46:00       55.937       50.575        3.479       22.642       21.373       17.709      512.644      456.801      313.595        0.349        0.064       75.411       13.430        0.032      339.524       12.918      859.272
09/28/2014  16:47:00       39.474       51.395        1.664       23.990       27.028       14.386      575.534      730.497      206.967        0.286        0.076       64.805       12.466        0.037      339.512       12.894      859.269
09/28/2014  16:48:00       16.250       32.688        2.151       24.891       29.614       22.996      619.546      877.018      528.821        0.168        0.101       36.505       20.816        0.325      339.582       13.015      859.271
09/28/2014  16:49:00       16.360       20.156        4.387       14.951       15.531       11.581      223.524      241.219      134.125        0.065        0.030       25.960        6.963        0.072      339.555       12.970      859.253
09/28/2014  16:50:00       38.745       41.013       -2.174        9.142       14.351       11.830       83.574      205.960      139.954        0.181        0.021       56.420        2.756        0.002      339.536       12.934      859.233
09/28/2014  16:51:00       16.446       20.754       -3.626       16.505       18.077       14.934      272.423      326.775      223.013        0.077        0.041       26.480        9.831        0.138      339.586       13.022      859.204
09/28/2014  16:52:00       -1.842      -14.351        5.760       17.436       14.392       14.853      304.015      207.142      220.617        0.049        0.037       14.469        3.793        0.069      339.742       13.285      859.193
09/28/2014  16:53:00       54.098      -61.412        5.466       51.519       42.050       21.838     2654.168     1768.244      476.919        0.581        0.245       81.842       28.460        0.121      339.674       13.169      859.193
09/28/2014  16:54:00       45.235      -90.272        9.145       40.341       85.118       28.975     1627.431     7245.093      839.541        0.999        0.486      100.972       36.800        0.133      339.675       13.170      859.201
09/28/2014  16:55:00       12.009       40.834       35.490       25.610       28.396       29.459      655.889      806.350      867.825        0.270        0.117       42.563       19.509        0.210      339.660       13.147      859.217
09/28/2014  16:56:00       28.303       57.218       55.387       33.144       36.896       36.522     1098.501     1361.297     1333.848        0.547        0.190       63.836       20.747        0.106      339.622       13.082      859.219
09/28/2014  16:57:00       22.125       -2.099       37.964       28.064       44.230       25.390      787.599     1956.249      644.630        0.266        0.169       22.225       26.788        1.453      339.688       13.192      859.224
09/28/2014  16:58:00       70.779       35.381       38.797       43.881       30.034       26.372     1925.570      902.064      695.500        0.564        0.176       79.129       20.126        0.065      339.645       13.120      859.236
09/28/2014  16:59:00      102.150       61.232        2.039       31.581       22.401       25.276      997.357      501.797      638.899        0.816        0.107      119.097       11.233        0.009      339.583       13.015      859.243
09/28/2014  17:00:00       51.983       66.715        7.933       31.606       20.149       20.402      998.914      405.999      416.238        0.452        0.091       84.576       11.540        0.019      339.581       13.012      859.241
09/28/2014  17:01:00       72.435       61.406       25.082       26.478       25.364       24.025      701.088      643.320      577.188        0.578        0.096       94.961       14.463        0.023      339.620       13.079      859.247
09/28/2014  17:02:00       82.314       48.536       15.490       18.109       11.879       16.452      327.923      141.121      270.681        0.506        0.037       95.558       11.572        0.015      339.583       13.018      859.258
09/28/2014  17:03:00       17.457       18.242        4.547       17.348       15.398        9.469      300.940      237.091       89.666        0.064        0.031       25.250        8.327        0.109      339.791       13.366      859.276
09/28/2014  17:04:00       23.583       28.057       -1.554       15.522       16.583       15.536      240.948      274.999      241.372        0.105        0.038       36.652       12.827        0.122      339.679       13.179      859.285
09/28/2014  17:05:00        0.154       24.645       -0.378       11.243       15.923       11.988      126.411      253.552      143.700        0.057        0.026       24.645       10.834        0.193      339.821       13.418      859.290
09/28/2014  17:06:00       16.929       20.709       28.226       33.465       39.432       27.078     1119.878     1554.857      733.213        0.246        0.170       26.748        8.593        0.103      339.883       13.521      859.286
09/28/2014  17:07:00       63.522       40.460        9.515       66.711       39.238       25.165     4450.417     1539.625      633.275        0.619        0.331       75.313       32.747        0.189      339.784       13.353      859.291
09/28/2014  17:08:00      102.138       57.977       33.022       37.235       26.841       30.075     1386.454      720.465      904.493        0.895        0.151      117.446       24.572        0.044      339.576       13.003      859.295
09/28/2014  17:09:00      122.144       65.700       17.241       39.674       39.274       33.239     1574.061     1542.450     1104.806        1.188        0.211      138.693       14.713        0.011      339.557       12.973      859.304
09/28/2014  17:10:00      135.249       80.904       25.887       45.245       38.214       30.330     2047.123     1460.347      919.911        1.497        0.221      157.600       22.353        0.020      339.524       12.915      859.306
09/28/2014  17:11:00      106.279       41.168       34.098       50.551       33.154       43.146     2555.411     1099.164     1861.551        0.983        0.276      113.974       29.037        0.065      339.543       12.947      859.303
09/28/2014  17:12:00       50.902       35.399       36.158       33.037       25.050       25.062     1091.472      627.509      628.100        0.375        0.117       62.001       20.365        0.108      339.574       12.999      859.295
09/28/2014  17:13:00       62.345       66.315       62.857       50.267       32.783       34.230     2526.725     1074.701     1171.713        0.850        0.239       91.020       29.002        0.102      339.713       13.235      859.282
09/28/2014  17:14:00      118.603       66.451       20.409       34.890       27.028       26.818     1217.306      730.522      719.184        1.078        0.133      135.950       20.366        0.022      339.627       13.090      859.280
09/28/2014  17:15:00       61.136       38.723       44.997       47.641       30.496       35.227     2269.677      930.010     1240.918        0.585        0.222       72.368       19.133        0.070      339.703       13.220      859.280
09/28/2014  17:16:00       24.812       25.438       41.145       26.668       29.912       24.820      711.186      894.733      616.010        0.259        0.111       35.535       20.782        0.342      339.791       13.367      859.279
09/28/2014  17:17:00       31.527       26.630        6.803       27.513       23.110       14.817      756.968      534.079      219.534        0.163        0.076       41.269        8.450        0.042      339.763       13.319      859.283
09/28/2014  17:18:00       71.284       27.012       27.107       45.753       51.536       26.854     2093.321     2655.951      721.143        0.601        0.274       76.230       14.212        0.035      339.709       13.228      859.288
09/28/2014  17:19:00       76.238       20.812        8.206       43.362       40.393       22.233     1880.226     1631.559      494.312        0.516        0.200       79.027       15.523        0.039      339.765       13.325      859.292
09/28/2014  17:20:00       28.694      -40.330       29.453       44.150       68.643       25.747     1949.257     4711.816      662.902        0.532        0.366       49.496       27.150        0.301      339.912       13.571      859.298
09/28/2014  17:21:00       65.033       60.329       54.882       50.883       43.117       39.631     2589.061     1859.109     1570.599        0.845        0.301       88.707       31.020        0.122      339.858       13.479      859.304
09/28/2014  17:22:00       41.947       56.292       72.009       39.238       30.017       25.924     1539.610      901.007      672.051        0.661        0.156       70.202       25.444        0.131      339.833       13.438      859.298
09/28/2014  17:23:00       38.061       28.214       22.434       25.013       17.425       20.477      625.654      303.621      419.288        0.205        0.067       47.378       12.094        0.065      339.758       13.311      859.272
09/28/2014  17:24:00       37.248       12.737       40.255       36.893       37.095       23.160     1361.117     1376.002      536.407        0.322        0.164       39.365       27.579        0.491      339.816       13.409      859.241
09/28/2014  17:25:00       29.845      -15.722       13.502       24.399       28.137       15.974      595.332      791.683      255.163        0.148        0.082       33.733       11.622        0.119      339.825       13.424      859.219
09/28/2014  17:26:00       30.955       19.759       20.804       30.847       26.037       13.387      951.559      677.914      179.214        0.179        0.090       36.724       12.151        0.109      339.948       13.632      859.208
09/28/2014  17:27:00       35.961       42.352       14.109       22.631       20.744       16.203      512.151      430.312      262.539        0.225        0.060       55.560        9.093        0.027      339.783       13.355      859.218
09/28/2014  17:28:00       33.031        6.889        9.381       15.436       19.242       13.016      238.268      370.272      169.411        0.100        0.039       33.742        3.176        0.009      339.848       13.463      859.225
09/28/2014  17:29:00       40.138       14.269       19.205       27.951       24.915       22.829      781.280      620.747      521.182        0.205        0.096       42.599       16.507        0.150      339.802       13.387      859.234
09/28/2014  17:30:00       -3.916      -18.357       10.290       22.181       21.379       14.654      491.986      457.067      214.745        0.081        0.058       18.770       14.072        0.562      339.931       13.603      859.234
09/28/2014  17:31:00       18.721      -10.326        4.009       17.313       19.131       13.028      299.740      365.995      169.740        0.065        0.042       21.380        4.278        0.040      339.874       13.505      859.219
09/28/2014  17:32:00       22.201        7.169       16.939       16.826       10.608       17.768      283.111      112.528      315.695        0.077        0.036       23.330       13.858        0.353      339.917       13.578      859.207
09/28/2014  17:33:00       48.019      -41.164        4.458       40.540       54.082       30.962     1643.526     2924.876      958.676        0.477        0.276       63.248       39.767        0.395      339.927       13.596      859.198
09/28/2014  17:34:00       30.215      -64.692       -2.186       11.684       20.748       16.817      136.509      430.467      282.818        0.298        0.042       71.400       14.051        0.039      339.823       13.421      859.201
09/28/2014  17:35:00       66.502      -61.038       -3.351       27.811       20.738       24.118      773.436      430.069      581.683        0.497        0.089       90.267       19.729        0.048      339.806       13.395      859.200
09/28/2014  17:36:00       51.303       15.044       30.236       28.976       43.459       31.600      839.630     1888.648      998.563        0.375        0.186       53.463       31.050        0.337      339.910       13.569      859.203
09/28/2014  17:37:00       48.732        1.798       33.379       57.811       66.214       35.681     3342.102     4384.308     1273.152        0.624        0.450       48.765       39.383        0.652      339.905       13.559      859.219
09/28/2014  17:38:00       45.829      -10.750       14.160       30.780       34.982       30.194      947.438     1223.728      911.706        0.275        0.154       47.073       22.398        0.226      339.876       13.510      859.219
09/28/2014  17:39:00       15.040       33.323       55.742       28.758       33.279       21.503      827.050     1107.489      462.364        0.342        0.120       36.560       21.002        0.330      340.071       13.839      859.205
09/28/2014  17:40:00       53.476       47.962       45.541       37.360       28.975       27.402     1395.755      839.568      750.888        0.511        0.149       71.833       22.805        0.101      339.913       13.572      859.210
09/28/2014  17:41:00       90.844       38.283       20.686       42.556       33.228       27.084     1811.013     1104.083      733.557        0.690        0.182       98.581       12.311        0.016      339.802       13.387      859.211
09/28/2014  17:42:00       89.311       43.184       16.373       31.542       30.413       22.204      994.911      924.971      493.005        0.626        0.121       99.203       13.089        0.017      339.760       13.316      859.197
09/28/2014  17:43:00       66.949       36.778        9.687       37.683       29.492       28.118     1420.032      869.767      790.636        0.450        0.154       76.386       21.481        0.079      339.795       13.374      859.189
09/28/2014  17:44:00       64.645       38.347       13.297       38.722       31.924       20.067     1499.386     1019.114      402.704        0.437        0.146       75.163       13.050        0.030      339.810       13.400      859.193
09/28/2014  17:45:00       60.047       53.625       -2.856       26.154       17.151       13.829      684.016      294.171      191.241        0.383        0.058       80.507       12.979        0.026      339.747       13.292      859.191
09/28/2014  17:46:00        8.371       43.476        0.157       14.529       19.011       11.890      211.090      361.427      141.375        0.134        0.036       44.274       10.390        0.055      339.773       13.337      859.186
09/28/2014  17:47:00       28.028       29.088       10.567       25.587       17.205       17.454      654.674      296.000      304.645        0.150        0.063       40.395       11.832        0.086      339.854       13.473      859.193
09/28/2014  17:48:00       21.677       26.301       -1.997       18.611        8.034       11.113      346.371       64.550      123.494        0.085        0.027       34.083        6.249        0.034      339.831       13.432      859.204
09/28/2014  17:49:00       20.908       27.575       -2.295       21.137       13.081       16.752      446.783      171.108      280.621        0.105        0.045       34.605       16.182        0.219      339.853       13.471      859.199
09/28/2014  17:50:00        4.089       21.040       -6.855        8.805        9.783        6.249       77.534       95.702       39.049        0.036        0.011       21.434        4.426        0.043      339.926       13.594      859.201
09/28/2014  17:51:00       28.685       23.225       13.400       36.925       16.816       17.414     1363.431      282.766      303.241        0.175        0.097       36.908        9.666        0.069      339.890       13.533      859.204
09/28/2014  17:52:00       68.766       24.183       12.683       22.959       20.808       22.418      527.112      432.989      502.584        0.347        0.073       72.894       14.818        0.041      339.824       13.423      859.192
09/28/2014  17:53:00       67.368       46.744       18.588       19.111       13.510       13.942      365.236      182.507      194.367        0.391        0.037       81.997        8.121        0.010      339.768       13.329      859.188
09/28/2014  17:54:00       37.969       22.646       22.309        8.095        8.368        8.145       65.525       70.027       66.344        0.133        0.010       44.210        2.314        0.003      339.831       13.433      859.188
09/28/2014  17:55:00       26.471       20.089        1.008       10.579       13.124       15.402      111.925      172.236      237.215        0.081        0.026       33.231        1.830        0.003      339.836       13.441      859.198
09/28/2014  17:56:00        5.532        6.391       -1.489       12.582        8.169       11.788      158.319       66.735      138.954        0.022        0.018        8.453        9.863        1.361      339.889       13.531      859.202
09/28/2014  17:57:00      -51.745       32.772       -7.334       20.079       23.903       14.516      403.148      571.330      210.727        0.250        0.059       61.250       11.755        0.037      339.959       13.650      859.203
09/28/2014  17:58:00      -24.126        3.593      -13.554       13.849       12.346       10.428      191.797      152.432      108.735        0.062        0.023       24.392        7.645        0.098      339.924       13.592      859.207
09/28/2014  17:59:00      -11.316        6.595       -1.232       10.756       10.926       10.842      115.700      119.369      117.550        0.026        0.018       13.098        6.459        0.243      339.948       13.632      859.212
09/28/2014  18:00:00      -49.641      -15.609        5.967       24.807       18.698       14.765      615.383      349.629      218.000        0.196        0.059       52.037       12.763        0.060      340.114       13.911      859.208
09/28/2014  18:01:00      -25.738        6.204       10.640       19.167       20.385       11.475      367.384      415.548      131.682        0.086        0.046       26.476       10.518        0.158      340.087       13.866      859.207
09/28/2014  18:02:00      -62.006      -15.912        2.071       17.698       23.613       15.208      313.215      557.587      231.286        0.260        0.055       64.015        3.993        0.004      339.927       13.595      859.216
09/28/2014  18:03:00      -81.185      -23.647       -8.452       20.559       23.530       10.265      422.671      553.679      105.380        0.415        0.054       84.559        5.917        0.005      339.936       13.612      859.218
09/28/2014  18:04:00      -55.500      -24.973        8.974       41.175       25.070       19.676     1695.356      628.495      387.137        0.325        0.136       60.859       21.979        0.130      339.997       13.714      859.222
09/28/2014  18:05:00      -76.096      -20.058       -4.987       27.652       23.031       14.717      764.633      530.431      216.595        0.386        0.076       78.695       14.264        0.033      340.009       13.735      859.225
09/28/2014  18:06:00      -92.919      -11.524       -4.118       35.923       27.607       18.124     1290.493      762.122      328.490        0.558        0.119       93.631       14.344        0.023      339.947       13.629      859.230
09/28/2014  18:07:00      -77.319      -25.048       -3.463       21.108       24.130       11.615      445.536      582.252      134.910        0.389        0.058       81.275        9.674        0.014      339.947       13.630      859.236
09/28/2014  18:08:00      -98.079      -21.419       -8.600       19.025       26.621       14.720      361.956      708.700      216.688        0.572        0.064      100.390       10.256        0.010      339.939       13.617      859.232
09/28/2014  18:09:00      -91.008      -26.597       -4.635       33.949       17.365       16.561     1152.547      301.551      274.279        0.537        0.086       94.815       18.595        0.038      339.949       13.633      859.225
09/28/2014  18:10:00     -114.619      -21.776      -20.397       10.831       10.999       12.726      117.321      120.986      161.960        0.721        0.020      116.669        6.178        0.003      339.789       13.368      859.221
09/28/2014  18:11:00      -74.010      -18.181      -12.793       14.422       14.929        6.039      207.995      222.866       36.473        0.322        0.023       76.210        4.666        0.004      339.792       13.372      859.218
09/28/2014  18:12:00     -138.889      -69.801       -2.014       41.918       24.501       23.446     1757.153      600.307      549.727        1.354        0.145      155.443       16.630        0.011      339.787       13.362      859.216
09/28/2014  18:13:00     -158.310      -70.298        1.377       41.599       29.247       25.650     1730.450      855.397      657.911        1.662        0.162      173.216       20.923        0.015      339.705       13.223      859.214
09/28/2014  18:14:00     -168.023      -64.778       -8.586       22.760       21.783       16.277      518.027      474.493      264.948        1.688        0.063      180.077        8.451        0.002      339.714       13.237      859.219
09/28/2014  18:15:00     -141.879      -38.192        2.349       37.340       28.316       19.181     1394.279      801.800      367.925        1.208        0.128      146.930       19.270        0.017      339.734       13.271      859.226
09/28/2014  18:16:00     -121.979      -56.075        2.215       41.483       25.270       21.889     1720.811      638.590      479.126        1.043        0.142      134.251       22.084        0.027      339.725       13.257      859.230
09/28/2014  18:17:00     -122.498      -32.724       -5.063       34.101       29.958       16.362     1162.899      897.477      267.719        0.921        0.116      126.794       17.425        0.019      339.766       13.324      859.233
09/28/2014  18:18:00     -150.794      -55.180       -6.152       33.139       20.687       17.677     1098.194      427.954      312.479        1.383        0.092      160.573       17.185        0.011      339.710       13.228      859.231
09/28/2014  18:19:00     -145.963      -39.481       -2.475       34.340       22.386       19.510     1179.225      501.143      380.635        1.247        0.103      151.208       19.739        0.017      339.703       13.218      859.219
09/28/2014  18:20:00     -120.181      -62.457        4.168       34.155       24.221       19.872     1166.578      586.657      394.886        1.025        0.107      135.442       15.667        0.013      339.662       13.149      859.217
09/28/2014  18:21:00     -115.131      -46.108       -1.033       30.347       20.161       17.290      920.934      406.471      298.938        0.850        0.081      124.020       16.461        0.018      339.655       13.138      859.200
09/28/2014  18:22:00     -124.558      -40.341       -2.745       18.478       20.096       13.924      341.437      403.859      193.866        0.904        0.047      130.927        7.851        0.004      339.698       13.208      859.192
09/28/2014  18:23:00      -89.422      -38.132        4.300       23.938       22.406       14.393      573.049      502.049      207.160        0.538        0.064       97.213       10.477        0.012      339.720       13.247      859.186
09/28/2014  18:24:00      -51.523      -41.358        1.733       25.913       30.669       15.778      671.480      940.606      248.935        0.311        0.093       66.069       15.013        0.052      339.762       13.319      859.176
09/28/2014  18:25:00      -89.018      -62.491        2.579       64.201       33.414       24.136     4121.762     1116.526      582.556        0.883        0.291      108.763       34.105        0.098      339.719       13.244      859.179
09/28/2014  18:26:00      -69.371      -57.981        1.360       31.023       29.515       22.829      962.440      871.109      521.145        0.526        0.118       90.411       22.444        0.062      339.677       13.175      859.183
09/28/2014  18:27:00      -68.376      -31.336        0.262       18.675       26.041       11.243      348.754      678.145      126.406        0.341        0.058       75.214        9.030        0.014      339.735       13.273      859.198
09/28/2014  18:28:00      -74.606      -44.318        0.192       34.173       23.637       18.104     1167.778      558.686      327.743        0.479        0.103       86.776       14.494        0.028      339.741       13.282      859.195
09/28/2014  18:29:00      -78.293      -33.508       -1.539       31.245       21.207       12.350      976.272      449.733      152.524        0.442        0.079       85.162       14.286        0.028      339.681       13.179      859.200
09/28/2014  18:30:00      -51.937      -40.780        7.547       53.746       22.398       15.254     2888.611      501.677      232.670        0.402        0.181       66.034       23.998        0.132      339.697       13.208      859.210
09/28/2014  18:31:00      -51.640      -44.106        9.035       40.578       25.747       18.658     1646.546      662.925      348.125        0.368        0.133       67.911       20.208        0.089      339.636       13.105      859.209
09/28/2014  18:32:00      -55.751      -61.457        4.201       37.209       38.974       17.716     1384.481     1518.943      313.857        0.506        0.161       82.976       19.451        0.055      339.704       13.219      859.214
09/28/2014  18:33:00      -43.882      -33.241        8.362       39.164       22.877       17.972     1533.787      523.336      323.006        0.274        0.119       55.050       16.312        0.088      339.656       13.139      859.218
09/28/2014  18:34:00     -100.581      -57.841       -1.846       18.882       22.115       12.177      356.529      489.079      148.270        0.723        0.050      116.026        6.096        0.003      339.665       13.153      859.213
09/28/2014  18:35:00      -65.484      -34.824       -0.847       33.514       20.602       14.283     1123.199      424.426      203.995        0.363        0.088       74.168       13.747        0.034      339.625       13.086      859.228
09/28/2014  18:36:00      -56.989      -28.186        0.094       32.024       19.888       17.768     1025.555      395.518      315.716        0.289        0.087       63.578       15.064        0.056      339.597       13.040      859.252
09/28/2014  18:37:00      -72.926      -21.131        1.144       20.860       16.736       15.183      435.121      280.101      230.522        0.336        0.047       75.926       12.130        0.026      339.597       13.039      859.274
09/28/2014  18:38:00      -48.427      -24.459        3.037       28.449       18.051       14.522      809.374      325.845      210.880        0.215        0.067       54.253        8.457        0.024      339.594       13.035      859.297
09/28/2014  18:39:00      -81.378      -29.086        2.523       29.675       28.861       18.633      880.586      832.982      347.202        0.477        0.103       86.420       15.071        0.030      339.614       13.067      859.318
09/28/2014  18:40:00      -60.883      -32.553        0.845       32.357       21.563       15.813     1047.004      464.962      250.041        0.326        0.088       69.040       16.901        0.060      339.623       13.084      859.332
09/28/2014  18:41:00      -48.630      -26.541        5.437       28.395       18.103       14.984      806.273      327.711      224.507        0.223        0.068       55.401       15.740        0.081      339.640       13.114      859.341
09/28/2014  18:42:00      -34.950      -32.338        4.891       33.668       21.662       17.712     1133.522      469.255      313.706        0.210        0.096       47.616       16.448        0.119      339.639       13.112      859.352
09/28/2014  18:43:00      -70.697      -22.959        5.882       21.332       17.136       12.180      455.040      293.635      148.364        0.323        0.045       74.332        8.772        0.014      339.562       12.979      859.358
09/28/2014  18:44:00      -57.178      -34.146        3.117       24.897       16.026       12.171      619.874      256.830      148.137        0.273        0.051       66.598        6.148        0.009      339.612       13.065      859.363
09/28/2014  18:45:00      -27.764      -21.834        7.212       23.062       20.379       15.255      531.836      415.293      232.725        0.124        0.059       35.321       14.075        0.159      339.647       13.124      859.363
09/28/2014  18:46:00      -37.741      -23.915        1.117       27.493       15.841       15.155      755.890      250.941      229.672        0.162        0.062       44.680       13.240        0.088      339.564       12.986      859.366
09/28/2014  18:47:00      -53.805      -61.613        4.355       32.444       22.524       17.344     1052.609      507.349      300.806        0.429        0.093       81.800       17.831        0.048      339.601       13.045      859.371
09/28/2014  18:48:00      -52.781      -31.717        9.156       37.131       20.564       17.872     1378.725      422.885      319.408        0.300        0.106       61.578       17.841        0.084      339.513       12.898      859.380
09/28/2014  18:49:00      -46.464      -30.735       -0.549       29.385       22.072       12.175      863.470      487.165      148.223        0.230        0.075       55.710       12.157        0.048      339.535       12.933      859.396
09/28/2014  18:50:00      -80.671      -36.789       -2.969       27.148       18.983       12.730      737.034      360.346      162.042        0.456        0.063       88.664        9.200        0.011      339.464       12.814      859.408
09/28/2014  18:51:00      -71.068      -41.427        0.451       27.545       15.164       12.881      758.716      229.933      165.909        0.396        0.058       82.261       10.825        0.017      339.453       12.794      859.424
09/28/2014  18:52:00      -82.345      -36.134       -1.815       21.250       15.074       12.775      451.557      227.222      163.190        0.447        0.042       89.924       10.592        0.014      339.442       12.778      859.435
09/28/2014  18:53:00      -74.678      -42.728        1.730       30.441       20.770       14.384      926.670      431.405      206.888        0.448        0.078       86.038       12.134        0.020      339.421       12.741      859.432
09/28/2014  18:54:00     -102.399      -38.372       -5.036       21.723       17.502       12.672      471.901      306.311      160.590        0.646        0.047      109.353        7.414        0.005      339.474       12.832      859.429
09/28/2014  18:55:00      -98.621      -40.443       -1.708       23.145       22.247       13.156      535.669      494.945      173.076        0.628        0.060      106.591        9.971        0.009      339.438       12.771      859.421
09/28/2014  18:56:00     -104.922      -31.804       -1.031       28.879       24.077       13.268      833.989      579.689      176.041        0.681        0.079      109.636       12.290        0.013      339.447       12.785      859.414
09/28/2014  18:57:00      -74.905      -32.726        6.494       35.050       27.405       14.209     1228.503      751.008      201.905        0.445        0.109       81.742        9.581        0.014      339.407       12.717      859.414
09/28/2014  18:58:00      -55.500      -25.243        7.836       40.407       20.676       12.892     1632.699      427.482      166.198        0.300        0.111       60.971       16.310        0.072      339.400       12.705      859.414
09/28/2014  18:59:00      -74.862      -34.962        0.263       21.805       20.761       14.136      475.478      431.037      199.822        0.397        0.055       82.623       13.202        0.026      339.434       12.764      859.429
09/28/2014  19:00:00      -67.485      -26.211       -0.576       16.056       14.746        9.543      257.781      217.448       91.065        0.290        0.028       72.396        4.751        0.004      339.427       12.751      859.442
09/28/2014  19:01:00      -82.421      -22.805       -4.135       16.694       16.085       11.513      278.684      258.734      132.540        0.400        0.033       85.517        9.158        0.011      339.420       12.741      859.455
09/28/2014  19:02:00      -58.675      -37.475       -2.779       19.356       20.266       14.673      374.638      410.704      215.283        0.293        0.050       69.621       13.535        0.038      339.391       12.693      859.452
09/28/2014  19:03:00      -71.285      -32.161       -0.353       19.432       21.043       11.920      377.617      442.822      142.078        0.354        0.048       78.204        8.766        0.013      339.300       12.538      859.450
09/28/2014  19:04:00      -68.145      -26.239       -2.949       17.365       18.108        9.369      301.529      327.894       87.782        0.303        0.036       73.022        4.792        0.004      339.248       12.452      859.451
09/28/2014  19:05:00      -73.382      -18.698       -0.628       14.193       15.789        9.536      201.434      249.287       90.929        0.314        0.027       75.727        7.090        0.009      339.272       12.491      859.456
09/28/2014  19:06:00      -45.562      -15.789       -0.580       22.358       16.524       11.338      499.884      273.056      128.556        0.161        0.045       48.221       11.346        0.055      339.189       12.352      859.465
09/28/2014  19:07:00      -54.968      -25.820       -3.174       12.805       14.328        9.812      163.964      205.301       96.271        0.208        0.023       60.730        5.829        0.009      339.185       12.346      859.482
09/28/2014  19:08:00      -62.384      -19.034       -7.768       15.591       13.057        8.420      243.068      170.497       70.889        0.240        0.024       65.223        4.861        0.006      339.117       12.232      859.485
09/28/2014  19:09:00      -53.079      -21.779       -4.819       19.380       13.837        8.575      375.595      191.450       73.524        0.198        0.032       57.373        5.355        0.009      339.049       12.117      859.487
09/28/2014  19:10:00      -37.274      -25.795        0.626       16.842       15.963       13.023      283.641      254.824      169.598        0.138        0.035       45.329       10.362        0.052      338.960       11.967      859.488
09/28/2014  19:11:00      -25.754      -14.436       -2.459       10.594       14.407        6.541      112.225      207.557       42.783        0.062        0.018       29.524        4.427        0.022      338.965       11.975      859.490
09/28/2014  19:12:00      -29.486      -35.795        1.206       14.772       14.478        9.700      218.211      209.621       94.098        0.134        0.026       46.376        8.489        0.034      339.056       12.128      859.500
09/28/2014  19:13:00      -17.222      -20.210        3.028       15.908       10.468        8.134      253.067      109.588       66.166        0.057        0.021       26.553        8.517        0.103      339.053       12.123      859.506
09/28/2014  19:14:00      -18.160      -16.766       -1.205        9.655        7.309        5.925       93.219       53.428       35.106        0.040        0.009       24.716        5.794        0.055      339.072       12.152      859.520
09/28/2014  19:15:00      -26.341      -11.333       -5.084       10.209        5.478        6.702      104.214       30.006       44.918        0.051        0.009       28.676        6.752        0.055      339.053       12.123      859.527
09/28/2014  19:16:00      -25.980       -7.745       -7.394        6.414        5.126        5.241       41.136       26.280       27.467        0.044        0.005       27.110        4.528        0.028      339.020       12.067      859.531
09/28/2014  19:17:00      -32.760      -13.091       -5.335       10.812       11.205        7.045      116.898      125.556       49.636        0.078        0.015       35.279        5.142        0.021      338.986       12.009      859.529
09/28/2014  19:18:00      -61.394      -28.104       -7.791       12.824       15.627        9.766      164.462      244.196       95.373        0.256        0.025       67.520        9.318        0.019      338.785       11.671      859.518
09/28/2014  19:19:00      -73.167      -42.071       -7.748       16.453       17.708       11.577      270.712      313.579      134.028        0.395        0.036       84.400        8.565        0.010      338.706       11.541      859.509
09/28/2014  19:20:00      -80.372      -41.926      -14.563       23.190       19.573       12.801      537.783      383.092      163.864        0.476        0.054       90.650       10.812        0.014      338.674       11.486      859.503
09/28/2014  19:21:00      -47.823      -29.909       -2.776       24.703       17.586       15.746      610.226      309.264      247.930        0.218        0.058       56.406       15.444        0.075      338.653       11.451      859.488
09/28/2014  19:22:00      -76.439      -10.959       -4.868       20.845       16.064       12.202      434.500      258.062      148.886        0.341        0.042       77.221        8.914        0.013      338.639       11.428      859.484
09/28/2014  19:23:00      -46.668       -8.221        0.202       27.487       18.750       15.160      755.532      351.547      229.825        0.179        0.067       47.386       13.929        0.086      338.584       11.334      859.475
09/28/2014  19:24:00      -56.487      -13.213       -1.525       40.624       16.676       14.058     1650.275      278.091      197.625        0.275        0.106       58.011       15.943        0.076      338.623       11.400      859.471
09/28/2014  19:25:00      -74.544      -15.619       -4.416       23.033       14.135       10.656      530.524      199.808      113.553        0.333        0.042       76.162        8.710        0.013      338.721       11.565      859.477
09/28/2014  19:26:00      -70.051      -25.572       -2.914       18.905       17.955       13.552      357.399      322.388      183.657        0.322        0.043       74.572        8.668        0.014      338.676       11.490      859.470
09/28/2014  19:27:00      -87.434      -39.504       -3.582       20.614       19.151       11.842      424.929      366.779      140.239        0.507        0.047       95.944        6.165        0.004      338.642       11.432      859.472
09/28/2014  19:28:00      -79.388      -14.175       -6.227       30.238       20.776       16.678      914.317      431.655      278.151        0.408        0.081       80.644       16.668        0.043      338.581       11.329      859.467
09/28/2014  19:29:00      -62.794      -25.249       -4.728       20.222       18.108       11.398      408.910      327.910      129.919        0.273        0.043       67.680       10.701        0.025      338.627       11.405      859.466
09/28/2014  19:30:00      -72.481      -36.961        0.903       23.123       21.048       16.744      534.667      443.035      280.371        0.394        0.063       81.361       13.236        0.026      338.596       11.355      859.473
09/28/2014  19:31:00      -86.675      -35.483       -5.558       15.855       19.784       13.212      251.388      391.405      174.563        0.481        0.041       93.657        9.247        0.010      338.697       11.525      859.483
09/28/2014  19:32:00      -77.113      -37.319       -2.593       18.784       18.763       12.228      352.836      352.049      149.529        0.410        0.043       85.669        6.512        0.006      338.652       11.449      859.497
09/28/2014  19:33:00      -63.849      -20.047       -5.448       25.733       22.512       13.171      662.182      506.772      173.469        0.293        0.067       66.922       11.367        0.029      338.639       11.426      859.517
09/28/2014  19:34:00      -75.163       -5.910       -6.516       19.751       24.152       12.431      390.117      583.319      154.524        0.343        0.056       75.395       10.924        0.021      338.689       11.511      859.542
09/28/2014  19:35:00      -70.933       -1.161      -10.150       19.600       19.133       12.313      384.168      366.061      151.601        0.302        0.045       70.942        8.108        0.013      338.649       11.444      859.579
09/28/2014  19:36:00      -81.221        4.017       -3.818       47.127       28.605       20.042     2220.941      818.249      401.678        0.503        0.172       81.320       22.322        0.075      338.638       11.424      859.615
09/28/2014  19:37:00      -22.125       -1.480        0.606       19.601       24.628       12.512      384.214      606.516      156.561        0.082        0.057       22.174        4.419        0.040      338.676       11.490      859.647
09/28/2014  19:38:00      -49.658       -1.236       -3.968       34.071       25.100       20.787     1160.849      630.017      432.091        0.235        0.111       49.673       15.878        0.102      338.698       11.526      859.662
09/28/2014  19:39:00      -63.584        3.968       -1.600       48.235       25.362       18.370     2326.615      643.243      337.460        0.368        0.165       63.708       20.939        0.108      338.635       11.420      859.675
09/28/2014  19:40:00      -84.613       -4.018       -8.470       36.819       32.297       20.904     1355.608     1043.068      436.962        0.504        0.142       84.708       21.297        0.063      338.576       11.321      859.679
09/28/2014  19:41:00      -64.462      -33.335       -3.354       19.795       29.286       16.854      391.833      857.656      284.053        0.341        0.077       72.571        7.650        0.011      338.510       11.210      859.681
09/28/2014  19:42:00      -73.683      -34.971       -4.677       25.951       25.345       14.170      673.477      642.381      200.792        0.410        0.076       81.561        9.155        0.013      338.536       11.255      859.674
09/28/2014  19:43:00     -116.604      -32.570      -15.830       17.800       15.044       10.778      316.829      226.323      116.164        0.778        0.033      121.067        7.646        0.004      338.443       11.097      859.682
09/28/2014  19:44:00      -87.942      -47.798      -15.802       28.878       27.463       13.025      833.938      754.220      169.659        0.601        0.088      100.092       16.217        0.026      338.462       11.130      859.686
09/28/2014  19:45:00      -57.664      -30.669       -1.518       28.835       27.884       13.506      831.458      777.527      182.409        0.303        0.090       65.313       10.346        0.025      338.450       11.110      859.697
09/28/2014  19:46:00      -69.143      -34.649       -9.963       19.980       25.057       13.327      399.207      627.830      177.609        0.364        0.060       77.339       12.790        0.027      338.471       11.143      859.697
09/28/2014  19:47:00      -49.772      -11.931       -1.132       36.935       36.738       16.073     1364.159     1349.648      258.338        0.280        0.149       51.182       15.644        0.093      338.377       10.986      859.708
09/28/2014  19:48:00      -36.835       -8.856       -1.190       27.893       26.502       18.326      777.994      702.355      335.859        0.163        0.091       37.885       14.499        0.146      338.319       10.891      859.715
09/28/2014  19:49:00      -58.378       -7.749        2.760       39.715       31.778       15.850     1577.248     1009.821      251.238        0.316        0.142       58.890       20.796        0.125      338.280       10.823      859.726
09/28/2014  19:50:00      -73.861      -20.332       -7.449       26.340       23.590       16.099      693.807      556.481      259.187        0.372        0.075       76.609       12.040        0.025      338.390       11.009      859.732
09/28/2014  19:51:00      -64.638      -24.440       -4.031       21.802       23.477       14.481      475.308      551.175      209.697        0.301        0.062       69.104        8.485        0.015      338.380       10.993      859.739
09/28/2014  19:52:00      -59.457      -27.938        3.621       30.248       28.786       16.698      914.914      828.634      278.809        0.318        0.101       65.694       13.706        0.044      338.298       10.855      859.727
09/28/2014  19:53:00      -67.092      -24.486        0.248       36.029       24.902       17.456     1298.104      620.134      304.699        0.366        0.111       71.420       18.505        0.067      338.288       10.837      859.721
09/28/2014  19:54:00     -100.153      -30.262       -6.827       29.510       31.415       17.718      870.836      986.876      313.922        0.658        0.109      104.625       16.691        0.025      338.331       10.911      859.716
09/28/2014  19:55:00      -72.938      -13.268        2.521       36.016       27.204       16.391     1297.141      740.036      268.656        0.390        0.115       74.135       13.364        0.032      338.283       10.828      859.723
09/28/2014  19:56:00      -84.649      -26.464       -1.212       29.645       21.748       13.906      878.824      472.967      193.364        0.471        0.077       88.690       13.165        0.022      338.348       10.936      859.716
09/28/2014  19:57:00      -64.091      -18.467       -0.118       27.433       21.831       17.014      752.585      476.606      289.475        0.298        0.076       66.699       17.077        0.066      338.320       10.891      859.723
09/28/2014  19:58:00      -63.545      -25.466       -3.084       24.169       19.528       14.535      584.157      381.347      211.253        0.294        0.059       68.458       15.042        0.048      338.411       11.044      859.711
09/28/2014  19:59:00      -16.030      -18.193       15.063       29.149       17.238       16.098      849.681      297.156      259.134        0.111        0.070       24.248       14.429        0.354      338.358       10.955      859.697
09/28/2014  20:00:00      -45.986      -46.509       -4.921       25.679       17.953       12.390      659.427      322.306      153.506        0.272        0.057       65.404       10.709        0.027      338.399       11.025      859.699
09/28/2014  20:01:00      -22.369      -25.210       10.599       25.015       18.104       12.198      625.742      327.756      148.787        0.118        0.055       33.703       13.028        0.149      338.429       11.073      859.703
09/28/2014  20:02:00      -58.257      -20.649        2.154       24.676       13.240       11.131      608.902      175.291      123.910        0.237        0.045       61.808       10.939        0.031      338.395       11.018      859.713
09/28/2014  20:03:00      -21.424      -28.695        1.904       17.234       14.165        7.548      297.023      200.649       56.977        0.092        0.028       35.810        6.340        0.031      338.461       11.129      859.732
09/28/2014  20:04:00      -32.266      -23.780        1.921       20.250       14.977       11.727      410.059      224.320      137.527        0.119        0.039       40.082        9.651        0.058      338.527       11.239      859.741
09/28/2014  20:05:00      -50.390      -26.632       -1.184       18.034       12.379        8.817      325.233      153.232       77.744        0.190        0.028       56.994        8.570        0.023      338.497       11.189      859.748
09/28/2014  20:06:00      -72.465      -19.944       -8.289       11.712        8.951        6.730      137.161       80.125       45.293        0.299        0.013       75.160        3.569        0.002      338.497       11.187      859.757
09/28/2014  20:07:00      -83.819      -24.559       -6.484       11.724       15.393        8.936      137.462      236.948       79.848        0.406        0.023       87.343        6.234        0.005      338.393       11.014      859.760
09/28/2014  20:08:00      -92.170      -33.430       -7.005       16.094       15.173       11.479      259.031      230.207      131.759        0.514        0.031       98.045        2.793        0.001      338.348       10.938      859.790
09/28/2014  20:09:00      -93.247      -42.189       -1.999       22.221       17.952       14.050      493.752      322.258      197.409        0.575        0.051      102.347       10.163        0.010      338.290       10.841      859.809
09/28/2014  20:10:00      -95.012      -50.031       -1.047       18.981       14.227       14.391      360.270      202.417      207.112        0.615        0.038      107.380       11.303        0.011      338.312       10.878      859.831
09/28/2014  20:11:00      -83.870      -25.604       -7.396       23.034       22.577       13.334      530.577      509.725      177.805        0.448        0.061       87.691       11.971        0.019      338.326       10.901      859.847
09/28/2014  20:12:00      -72.980      -30.793       -0.147       19.785       15.581       11.899      391.465      242.781      141.576        0.352        0.039       79.211        9.826        0.015      338.298       10.852      859.828
09/28/2014  20:13:00      -78.484      -32.500       -7.101       13.826       18.338       11.895      191.160      336.284      141.481        0.397        0.033       84.947        6.424        0.006      338.288       10.837      859.827
09/28/2014  20:14:00      -77.686      -30.063       -6.465       16.641       17.467        9.784      276.931      305.094       95.734        0.383        0.034       83.299        5.601        0.005      338.345       10.933      859.835
09/28/2014  20:15:00      -70.582      -18.658       -3.333       15.391       16.069       10.285      236.879      258.216      105.771        0.297        0.030       73.007        7.642        0.011      338.347       10.937      859.844
09/28/2014  20:16:00      -71.554      -16.816       -5.283       15.134       15.177        8.692      229.049      230.331       75.549        0.298        0.027       73.503        6.374        0.008      338.361       10.959      859.878
09/28/2014  20:17:00      -76.626      -23.881       -4.074       16.038       14.064       10.390      257.213      197.803      107.946        0.351        0.028       80.261        7.748        0.009      338.307       10.871      859.885
09/28/2014  20:18:00      -76.800      -15.321       -7.560       19.439       15.270       11.057      377.860      233.161      122.263        0.346        0.037       78.313       10.849        0.019      338.242       10.762      859.883
09/28/2014  20:19:00      -53.050      -14.585        1.232       17.946       15.614       11.485      322.061      243.811      131.901        0.186        0.035       55.018        9.740        0.031      338.241       10.759      859.886
09/28/2014  20:20:00      -50.998      -32.395       -0.073       21.530       12.687       13.486      463.539      160.960      181.869        0.223        0.040       60.418       14.344        0.056      338.313       10.878      859.891
09/28/2014  20:21:00      -52.318      -17.699       -6.638       11.744       10.746        9.291      137.911      115.482       86.322        0.172        0.017       55.231        8.375        0.023      338.325       10.901      859.892
09/28/2014  20:22:00      -48.852      -24.182       -9.973        6.701        6.696        6.854       44.910       44.832       46.970        0.160        0.007       54.509        3.801        0.005      338.377       10.986      859.893
09/28/2014  20:23:00      -48.673      -24.816       -3.254       10.355        8.119        9.236      107.224       65.913       85.305        0.163        0.013       54.634        5.325        0.010      338.330       10.910      859.878
09/28/2014  20:24:00      -64.224      -13.387       -6.855       10.819        9.506        6.252      117.058       90.358       39.092        0.230        0.012       65.605        4.623        0.005      338.303       10.862      859.855
09/28/2014  20:25:00      -77.031      -10.151       -7.301       10.832       10.124        6.580      117.334      102.485       43.299        0.318        0.013       77.697        1.958        0.001      338.311       10.876      859.844
09/28/2014  20:26:00      -79.230      -10.713      -13.921       12.974       11.477        8.462      168.320      131.722       71.612        0.348        0.019       79.951        3.655        0.002      338.317       10.885      859.863
09/28/2014  20:27:00      -69.231      -13.250      -10.549       10.666       12.551        7.054      113.761      157.537       49.754        0.270        0.016       70.488        7.393        0.011      338.249       10.772      859.874
09/28/2014  20:28:00      -67.908      -15.944       -6.837       12.766       14.776       11.766      162.980      218.316      138.446        0.272        0.026       69.755        9.233        0.018      338.153       10.610      859.874
09/28/2014  20:29:00      -82.418      -15.761      -15.793       10.608       10.082        8.651      112.531      101.640       74.840        0.379        0.014       83.912        4.698        0.003      338.099       10.520      859.884
09/28/2014  20:30:00      -83.811      -14.250      -10.818       18.226       11.245       10.205      332.198      126.449      104.134        0.395        0.028       85.014        9.090        0.011      338.007       10.365      859.894
09/28/2014  20:31:00      -88.041      -21.124       -7.421       13.207       17.300        9.846      174.429      299.288       96.944        0.441        0.029       90.540        4.172        0.002      337.965       10.296      859.904
09/28/2014  20:32:00      -90.373      -35.330      -16.573       17.004       18.821       12.678      289.140      354.217      160.732        0.525        0.040       97.033       10.150        0.011      337.943       10.258      859.913
09/28/2014  20:33:00      -83.252      -54.618       -6.304       24.668       23.717       15.918      608.515      562.487      253.396        0.569        0.071       99.569       10.244        0.011      337.918       10.217      859.923
09/28/2014  20:34:00      -32.285      -29.858        9.384       65.260       29.989       31.068     4258.835      899.319      965.222        0.407        0.306       43.975       38.475        0.766      337.907       10.198      859.937
09/28/2014  20:35:00      -33.721      -28.937       -3.074       51.888       22.609       20.843     2692.357      511.175      434.442        0.281        0.182       44.435       20.085        0.204      337.918       10.216      859.942
09/28/2014  20:36:00     -119.217      -53.542       -3.406       40.004       22.623       20.440     1600.329      511.822      417.799        0.981        0.126      130.688       23.843        0.033      337.845       10.094      859.938
09/28/2014  20:37:00      -87.868       -9.645       -4.770       26.604       30.648       13.770      707.757      939.328      189.622        0.484        0.092       88.396       11.913        0.018      337.932       10.241      859.928
09/28/2014  20:38:00      -85.323      -52.569        1.155       27.478       25.012       14.049      755.046      625.594      197.374        0.581        0.079      100.217       11.803        0.014      337.981       10.321      859.922
09/28/2014  20:39:00     -101.294      -45.323       -5.554       20.928       21.182       12.184      437.964      448.659      148.458        0.669        0.052      110.971        3.823        0.001      338.003       10.360      859.900
09/28/2014  20:40:00      -90.967      -55.707       -3.755       20.943       14.298       13.579      438.605      204.434      184.381        0.611        0.041      106.669       10.653        0.010      338.013       10.375      859.893
09/28/2014  20:41:00      -85.652      -59.270        5.096       26.306       23.966       19.809      691.985      574.368      392.391        0.627        0.083      104.160       17.302        0.028      337.953       10.275      859.915
09/28/2014  20:42:00      -36.076      -36.884        4.021       40.795       29.799       21.976     1664.208      887.960      482.945        0.286        0.152       51.594       19.440        0.142      337.979       10.318      859.933
09/28/2014  20:43:00      -78.142      -53.327        1.020       38.105       29.351       24.519     1451.993      861.487      601.197        0.593        0.146       94.604       20.259        0.046      337.877       10.148      859.955
09/28/2014  20:44:00      -56.557      -44.378        2.383       38.412       27.884       23.161     1475.461      777.535      536.422        0.398        0.139       71.889       17.627        0.060      337.865       10.128      859.985
09/28/2014  20:45:00      -93.878      -50.058        8.441       47.397       27.641       22.256     2246.440      764.011      495.329        0.745        0.175      106.390       21.101        0.039      337.882       10.157      860.015
09/28/2014  20:46:00     -128.299      -53.692        0.452       35.339       26.667       19.694     1248.836      711.143      387.844        1.085        0.117      139.080       20.447        0.022      337.860       10.118      860.036
09/28/2014  20:47:00     -144.116      -60.789       -6.658       27.158       24.881       18.940      737.577      619.085      358.711        1.311        0.086      156.412       14.082        0.008      337.856       10.113      860.043
09/28/2014  20:48:00     -127.544      -39.077       -2.443       39.868       34.891       19.432     1589.490     1217.377      377.595        1.049        0.159      133.396       20.310        0.023      337.815       10.044      860.058
09/28/2014  20:49:00      -99.379      -27.234       -3.608       39.104       42.550       22.031     1529.107     1810.489      485.345        0.723        0.191      103.043       19.471        0.036      337.739        9.916      860.063
09/28/2014  20:50:00     -103.974       -6.780      -10.415       30.244       24.688       16.116      914.692      609.505      259.722        0.637        0.089      104.194       13.043        0.016      337.790       10.003      860.075
09/28/2014  20:51:00     -124.646       -3.800      -16.755       26.016       23.799       17.631      676.828      566.373      310.853        0.869        0.078      124.704       15.064        0.015      337.718        9.880      860.099
09/28/2014  20:52:00      -85.548       -3.033       -1.205       50.320       25.211       18.581     2532.073      635.576      345.238        0.542        0.176       85.601       22.448        0.069      337.765        9.960      860.125
09/28/2014  20:53:00      -58.279      -34.276       -3.126       28.797       29.308       19.894      829.239      858.965      395.772        0.333        0.104       67.611       18.445        0.074      337.817       10.047      860.139
09/28/2014  20:54:00      -51.385      -20.001        2.121       32.200       15.338       16.948     1036.866      235.242      287.220        0.230        0.078       55.140       16.333        0.088      337.772        9.972      860.149
09/28/2014  20:55:00       -8.194      -16.306       -1.233       23.831       18.088       14.950      567.899      327.163      223.504        0.073        0.056       18.249       13.078        0.514      337.823       10.058      860.161
09/28/2014  20:56:00       -3.433      -28.312       -3.920       18.389       18.212       17.793      338.146      331.681      316.596        0.091        0.049       28.520       13.004        0.208      337.892       10.173      860.170
09/28/2014  20:57:00      -42.048      -39.064       -3.385       16.531       18.597       12.192      273.281      345.837      148.639        0.204        0.038       57.394        8.135        0.020      337.835       10.077      860.179
09/28/2014  20:58:00      -72.794      -35.895      -10.780       16.092       17.569       11.649      258.966      308.668      135.703        0.370        0.035       81.163        9.765        0.014      337.797       10.013      860.198
09/28/2014  20:59:00      -86.521      -40.073       -7.473       11.233       14.817        9.357      126.178      219.543       87.559        0.479        0.022       95.351        4.870        0.003      337.761        9.953      860.226
09/28/2014  21:00:00      -80.228      -57.105       -2.502       24.131       19.468       13.109      582.282      378.994      171.835        0.542        0.057       98.476       10.939        0.012      337.791       10.005      860.243
09/28/2014  21:01:00     -101.832      -52.641       -8.769       17.534       15.244       13.924      307.432      232.394      193.882        0.698        0.037      114.634       12.966        0.013      337.795       10.011      860.264
09/28/2014  21:02:00      -88.350      -40.615      -11.137       13.422       15.804        8.899      180.162      249.774       79.187        0.504        0.025       97.239        6.777        0.005      337.810       10.034      860.266
09/28/2014  21:03:00      -99.781      -41.281      -11.364       10.013        9.419        8.195      100.269       88.709       67.157        0.602        0.013      107.984        3.404        0.001      337.829       10.068      860.257
09/28/2014  21:04:00      -98.372      -32.354       -4.803       18.261       14.234       11.762      333.472      202.609      138.343        0.571        0.034      103.556        9.273        0.008      337.838       10.081      860.261
09/28/2014  21:05:00     -101.407      -27.044       -7.454       16.535       13.093       10.182      273.393      171.426      103.673        0.581        0.027      104.951        9.139        0.008      337.801       10.020      860.265
09/28/2014  21:06:00      -85.363      -39.566      -11.041        9.946        8.882        7.583       98.915       78.893       57.504        0.460        0.012       94.087        3.980        0.002      337.750        9.935      860.266
09/28/2014  21:07:00      -74.297      -17.776       -8.658       17.596       19.845        8.850      309.609      393.831       78.323        0.335        0.039       76.394        9.230        0.015      337.722        9.888      860.271
09/28/2014  21:08:00      -66.906      -45.956      -15.943       16.499       23.330       11.796      272.228      544.305      139.147        0.390        0.048       81.169        8.711        0.012      337.701        9.853      860.275
09/28/2014  21:09:00     -100.584      -31.957      -12.577       15.653       16.009       14.083      245.007      256.284      198.334        0.600        0.035      105.539       10.455        0.010      337.654        9.775      860.265
09/28/2014  21:10:00      -88.297      -45.334      -15.522       19.812       17.581        9.999      392.505      309.087       99.985        0.545        0.040       99.255        6.386        0.004      337.638        9.746      860.253
09/28/2014  21:11:00      -72.087      -36.976      -12.831       26.077       20.317       17.346      680.034      412.787      300.894        0.406        0.070       81.017       11.589        0.020      337.690        9.833      860.251
09/28/2014  21:12:00      -89.676      -51.295      -12.162       19.592       14.429       10.237      383.861      208.199      104.791        0.576        0.035      103.310        4.629        0.002      337.677        9.812      860.256
09/28/2014  21:13:00     -115.833      -35.117      -13.079       16.414       18.647        9.165      269.430      347.693       84.005        0.776        0.035      121.039        7.768        0.004      337.693        9.840      860.259
09/28/2014  21:14:00     -112.198      -41.994      -11.085       15.544       10.691        8.630      241.608      114.291       74.477        0.745        0.022      119.799        6.836        0.003      337.729        9.899      860.258
09/28/2014  21:15:00     -117.612      -41.962      -10.193       16.694       16.149       11.111      278.675      260.777      123.451        0.818        0.033      124.874       10.095        0.007      337.688        9.832      860.269
09/28/2014  21:16:00     -113.071      -39.357       -9.074       16.126       12.827       10.632      260.035      164.540      113.046        0.748        0.027      119.725        9.422        0.006      337.634        9.739      860.273
09/28/2014  21:17:00      -91.207      -36.278      -13.609       25.166       27.616       14.113      633.333      762.622      199.172        0.571        0.080       98.157       12.490        0.016      337.521        9.550      860.283
09/28/2014  21:18:00      -77.078      -37.773        2.897       25.369       22.677       14.218      643.583      514.268      202.154        0.437        0.068       85.837        9.634        0.013      337.493        9.504      860.302
09/28/2014  21:19:00      -65.480      -18.033      -10.478       35.463       27.394       18.033     1257.657      750.415      325.187        0.353        0.117       67.918        7.721        0.013      337.523        9.553      860.326
09/28/2014  21:20:00      -24.194       -7.354       -2.246       28.350       37.178       17.327      803.734     1382.201      300.212        0.156        0.124       25.287       12.416        0.241      337.562        9.621      860.342
09/28/2014  21:21:00      -99.944        2.611       -7.539       55.303       32.523       26.547     3058.454     1057.716      704.718        0.744        0.241       99.978       25.838        0.067      337.595        9.676      860.355
09/28/2014  21:22:00     -114.965       -9.593       -6.100       51.872       26.608       23.046     2690.660      708.008      531.140        0.864        0.196      115.364       24.970        0.047      337.571        9.635      860.391
09/28/2014  21:23:00     -131.376       -0.950       -9.331       46.216       49.333       25.913     2135.941     2433.736      671.466        1.129        0.262      131.379       24.507        0.035      337.588        9.662      860.413
09/28/2014  21:24:00     -135.076        6.548      -19.720       49.760       41.991       20.621     2476.056     1763.259      425.220        1.167        0.233      135.234        8.188        0.004      337.599        9.683      860.421
09/28/2014  21:25:00     -106.550       -2.686      -11.932       40.667       46.935       27.978     1653.815     2202.934      782.791        0.807        0.232      106.584       24.484        0.053      337.549        9.598      860.433
09/28/2014  21:26:00     -118.615       -0.841      -14.591       48.639       36.879       22.129     2365.711     1360.076      489.683        0.925        0.211      118.618       17.628        0.022      337.576        9.644      860.466
09/28/2014  21:27:00     -126.110        0.979      -17.204       26.891       37.637       19.829      723.143     1416.566      393.170        0.937        0.127      126.114        8.937        0.005      337.557        9.613      860.498
09/28/2014  21:28:00     -152.225       10.525      -21.221       43.657       29.433       21.040     1905.915      866.290      442.682        1.347        0.161      152.588       20.378        0.018      337.554        9.605      860.527
09/28/2014  21:29:00     -150.458      -20.827      -19.660       53.719       49.823       29.633     2885.738     2482.381      878.097        1.485        0.312      151.893       29.551        0.038      337.501        9.516      860.564
09/28/2014  21:30:00     -178.600       -0.443      -21.072       46.343       38.825       30.761     2147.702     1507.375      946.223        1.847        0.230      178.601       25.814        0.021      337.470        9.463      860.592
09/28/2014  21:31:00     -186.925       11.151      -19.690       50.094       41.757       32.587     2509.407     1743.661     1061.930        2.038        0.266      187.258       30.675        0.027      337.481        9.483      860.610
09/28/2014  21:32:00     -198.921       17.236      -23.884       35.614       35.680       17.326     1268.377     1273.049      300.197        2.164        0.142      199.666       12.651        0.004      337.550        9.597      860.632
09/28/2014  21:33:00     -180.780       15.333      -18.339       33.653       38.583       26.040     1132.542     1488.632      678.106        1.828        0.165      181.429       17.806        0.010      337.512        9.535      860.655
09/28/2014  21:34:00     -187.045       27.361      -20.458       36.697       26.858       20.074     1346.635      721.352      402.973        1.931        0.124      189.035       10.148        0.003      337.558        9.612      860.661
09/28/2014  21:35:00     -169.685        3.661      -18.125       33.067       39.082       23.515     1093.398     1527.367      552.953        1.615        0.159      169.724       16.294        0.009      337.573        9.637      860.669
09/28/2014  21:36:00     -153.854        0.542      -13.753       35.019       29.309       22.850     1226.360      858.989      522.122        1.323        0.130      153.855       19.787        0.017      337.588        9.663      860.669
09/28/2014  21:37:00     -122.709       -0.719      -15.583       30.197       25.147       15.813      911.846      632.353      250.055        0.855        0.090      122.711       10.004        0.007      337.564        9.623      860.655
09/28/2014  21:38:00     -156.081       -0.830      -16.783       19.202       22.451       17.045      368.700      504.034      290.517        1.290        0.058      156.083       11.317        0.005      337.664        9.791      860.652
09/28/2014  21:39:00     -112.129      -33.819       -8.930       43.368       20.532       20.799     1880.749      421.559      432.616        0.827        0.137      117.118       23.243        0.039      337.595        9.676      860.662
09/28/2014  21:40:00      -93.779       -1.630       -7.728       51.753       25.007       21.327     2678.400      625.348      454.832        0.631        0.188       93.794       24.805        0.070      337.616        9.710      860.668
09/28/2014  21:41:00     -112.094       -9.087      -12.856       31.519       23.941       14.975      993.460      573.165      224.243        0.730        0.090      112.462        8.229        0.005      337.634        9.741      860.678
09/28/2014  21:42:00     -131.764       -6.518      -10.283       29.990       23.897       16.063      899.401      571.084      258.025        0.962        0.086      131.925       10.871        0.007      337.643        9.759      860.673
09/28/2014  21:43:00     -120.211        3.558      -10.961       28.122       26.705       15.794      790.873      713.180      249.453        0.817        0.088      120.264       13.963        0.013      337.639        9.749      860.658
09/28/2014  21:44:00      -95.044      -13.236       -6.155       40.061       29.382       16.278     1604.853      863.301      264.989        0.599        0.137       95.961       15.893        0.027      337.645        9.759      860.646
09/28/2014  21:45:00     -112.106      -11.543       -6.761       26.472       25.266       15.750      700.791      638.346      248.056        0.717        0.079      112.698       13.796        0.015      337.689        9.834      860.643
09/28/2014  21:46:00      -73.853      -22.994       -3.903       18.139       32.079       13.277      329.040     1029.043      176.282        0.377        0.077       77.350        9.915        0.016      337.637        9.746      860.635
09/28/2014  21:47:00      -58.554      -28.448       -1.030       33.863       29.369       11.614     1146.689      862.528      134.895        0.319        0.107       65.099       10.221        0.025      337.629        9.731      860.639
09/28/2014  21:48:00      -93.270      -28.302       -1.060       25.950       18.203       13.887      673.388      331.334      192.857        0.535        0.060       97.470       12.812        0.017      337.698        9.847      860.640
09/28/2014  21:49:00      -95.130      -66.822       -2.923       27.078       16.492       14.163      733.207      271.987      200.603        0.736        0.060      116.253       11.245        0.009      337.734        9.908      860.645
09/28/2014  21:50:00      -94.309      -48.742        2.525       33.212       20.285       16.479     1103.006      411.493      271.547        0.653        0.089      106.160       17.247        0.026      337.715        9.876      860.649
09/28/2014  21:51:00      -48.900      -40.782        4.904       37.497       31.815       17.009     1405.997     1012.202      289.312        0.339        0.135       63.674       14.623        0.053      337.693        9.839      860.670
09/28/2014  21:52:00      -82.375      -75.215       -0.724       48.312       30.150       22.081     2334.037      909.006      487.556        0.809        0.187      111.548       21.013        0.035      337.662        9.788      860.702
09/28/2014  21:53:00      -61.658      -58.857        2.033       49.627       28.263       19.746     2462.832      798.800      389.902        0.546        0.183       85.240       14.177        0.028      337.669        9.799      860.718
09/28/2014  21:54:00     -116.434      -71.309        4.140       35.070       29.762       25.431     1229.881      885.774      646.750        1.071        0.138      136.535       20.141        0.022      337.588        9.664      860.727
09/28/2014  21:55:00      -87.500      -54.013        7.674       38.718       24.094       19.344     1499.065      580.506      374.200        0.654        0.123      102.829       15.984        0.024      337.639        9.748      860.725
09/28/2014  21:56:00      -78.776      -59.818        0.659       42.093       33.829       19.386     1771.821     1144.421      375.830        0.654        0.165       98.913       16.567        0.028      337.646        9.760      860.727
09/28/2014  21:57:00      -86.564      -53.478        5.844       45.559       30.872       19.469     2075.605      953.073      379.039        0.690        0.170      101.751       19.520        0.037      337.637        9.745      860.733
09/28/2014  21:58:00     -118.360      -68.300       -4.475       45.131       34.324       27.795     2036.829     1178.108      772.559        1.134        0.199      136.653       24.589        0.032      337.634        9.740      860.730
09/28/2014  21:59:00     -103.824      -56.530        2.246       34.462       28.070       22.789     1187.642      787.942      519.360        0.824        0.125      118.216       20.080        0.029      337.645        9.760      860.730
09/28/2014  22:00:00     -107.553      -50.347       -4.442       44.331       34.382       24.428     1965.270     1182.102      596.734        0.893        0.187      118.754       18.623        0.025      337.622        9.721      860.737
09/28/2014  22:01:00      -77.929      -51.486        6.336       34.599       28.218       19.107     1197.121      796.246      365.071        0.556        0.118       93.401       16.500        0.031      337.650        9.768      860.750
09/28/2014  22:02:00      -98.209      -41.230        4.114       46.039       33.872       23.709     2119.596     1147.338      562.137        0.759        0.191      106.513       16.941        0.025      337.655        9.775      860.766
09/28/2014  22:03:00      -91.028      -53.482       11.664       80.124       30.025       31.323     6419.848      901.496      981.111        0.979        0.415      105.576       39.098        0.137      337.647        9.762      860.778
09/28/2014  22:04:00     -122.306      -74.402       -3.073       50.031       27.897       21.055     2503.075      778.261      443.309        1.211        0.186      143.159       21.303        0.022      337.637        9.745      860.785
09/28/2014  22:05:00      -75.159      -72.588       -1.723       47.360       50.875       26.127     2242.956     2588.301      682.598        0.822        0.276      104.488       22.788        0.048      337.601        9.686      860.788
09/28/2014  22:06:00     -140.945     -125.789       -8.878       34.644       48.647       22.757     1200.182     2366.500      517.884        1.993        0.204      188.913       20.140        0.011      337.535        9.573      860.792
09/28/2014  22:07:00     -150.637      -72.707       -4.202       54.844       36.165       25.689     3007.835     1307.927      659.910        1.648        0.249      167.266       20.697        0.015      337.577        9.644      860.799
09/28/2014  22:08:00     -130.125      -71.833       -1.301       52.225       50.254       26.722     2727.405     2525.493      714.062        1.403        0.298      148.635       26.169        0.031      337.552        9.604      860.804
09/28/2014  22:09:00     -101.072      -51.091       -5.133       43.880       37.213       23.442     1925.447     1384.823      549.542        0.836        0.193      113.251       25.810        0.052      337.558        9.613      860.819
09/28/2014  22:10:00      -96.372      -52.163       -0.633       63.106       35.439       20.579     3982.420     1255.918      423.507        0.883        0.283      109.584       21.983        0.040      337.625        9.724      860.815
09/28/2014  22:11:00     -108.849      -77.580       -1.249       55.590       52.371       23.149     3090.213     2742.743      535.897        1.212        0.318      133.667       23.500        0.031      337.641        9.752      860.815
09/28/2014  22:12:00      -95.462      -63.167        1.195       53.890       52.849       26.018     2904.162     2793.010      676.956        0.974        0.319      114.469       27.329        0.057      337.645        9.758      860.808
09/28/2014  22:13:00      -92.438      -65.031        3.382       57.305       39.772       27.100     3283.818     1581.819      734.433        0.919        0.280      113.021       31.453        0.077      337.628        9.731      860.804
09/28/2014  22:14:00      -92.513      -36.203        4.697       67.218       34.174       24.775     4518.231     1167.830      613.787        0.809        0.315       99.344       25.872        0.068      337.617        9.712      860.807
09/28/2014  22:15:00      -90.774      -69.071        4.269       55.341       40.374       26.203     3062.603     1630.076      686.601        0.920        0.269      114.065       25.080        0.048      337.607        9.696      860.818
09/28/2014  22:16:00     -140.727      -29.970       -7.816       49.849       35.761       22.986     2484.873     1278.855      528.365        1.253        0.215      143.883       21.114        0.022      337.606        9.692      860.828
09/28/2014  22:17:00     -138.515      -38.885       -5.817       47.435       36.053       21.313     2250.079     1299.846      454.256        1.237        0.200      143.870       12.752        0.008      337.510        9.533      860.835
09/28/2014  22:18:00     -108.794      -29.305        6.153       61.738       50.861       30.630     3811.527     2586.855      938.211        1.003        0.367      112.671       26.999        0.057      337.454        9.439      860.842
09/28/2014  22:19:00     -151.852      -33.938        2.070       58.831       44.197       28.440     3461.078     1953.386      808.841        1.522        0.311      155.598       27.657        0.032      337.407        9.360      860.853
09/28/2014  22:20:00     -116.943      -40.400       -4.548       41.317       28.127       21.916     1707.114      791.150      480.305        0.915        0.149      123.725       22.584        0.033      337.416        9.376      860.872
09/28/2014  22:21:00     -142.932      -19.358      -12.231       26.792       24.397       20.187      717.787      595.231      407.503        1.134        0.086      144.237       14.785        0.011      337.521        9.551      860.884
09/28/2014  22:22:00      -88.728       -5.431       -6.987       29.497       29.582       17.740      870.087      875.091      314.713        0.501        0.103       88.894       16.059        0.033      337.473        9.470      860.873
09/28/2014  22:23:00      -82.259      -19.136       -7.845       24.994       25.707       15.882      624.683      660.859      252.246        0.437        0.077       84.456        9.730        0.013      337.532        9.569      860.858
09/28/2014  22:24:00      -90.640      -12.357      -13.708       17.933       22.767       12.194      321.580      518.332      148.688        0.477        0.049       91.479        9.008        0.010      337.565        9.624      860.856
09/28/2014  22:25:00     -122.108       -0.935      -14.173       32.107       30.559       14.937     1030.868      933.876      223.119        0.865        0.109      122.111       13.102        0.012      337.615        9.708      860.863
09/28/2014  22:26:00     -120.698       21.955      -13.963       37.858       28.080       15.572     1433.200      788.472      242.477        0.885        0.123      122.678       11.625        0.009      337.610        9.700      860.870
09/28/2014  22:27:00     -104.725       22.252       -7.516       26.337       25.448       18.015      693.642      647.598      324.524        0.659        0.083      107.063        8.209        0.006      337.566        9.625      860.874
09/28/2014  22:28:00     -112.822      -18.983      -10.358       31.387       29.072       18.563      985.124      845.165      344.602        0.769        0.109      114.408       14.790        0.017      337.538        9.580      860.879
09/28/2014  22:29:00     -110.332        6.385      -10.508       19.383       25.096       16.507      375.717      629.796      272.466        0.680        0.064      110.516        8.259        0.006      337.571        9.635      860.876
09/28/2014  22:30:00      -91.554      -29.328       -9.992       24.886       39.763       17.861      619.317     1581.108      318.998        0.593        0.126       96.137       10.631        0.012      337.542        9.588      860.881
09/28/2014  22:31:00     -120.590      -30.229      -14.008       34.048       35.822       21.771     1159.243     1283.237      473.990        0.928        0.146      124.321       11.133        0.008      337.537        9.579      860.900
09/28/2014  22:32:00     -135.221      -55.697      -16.502       24.714       35.672       22.049      610.783     1272.527      486.166        1.201        0.118      146.242       16.312        0.012      337.518        9.546      860.904
09/28/2014  22:33:00     -131.171      -50.822       -9.809       33.426       28.786       26.064     1117.264      828.631      679.321        1.125        0.131      140.673       22.620        0.026      337.485        9.491      860.928
09/28/2014  22:34:00     -104.617      -26.340       -6.513       28.872       29.582       23.560      833.617      875.111      555.062        0.697        0.113      107.882       16.552        0.024      337.460        9.449      860.960
09/28/2014  22:35:00      -94.421      -27.377      -11.388       17.070       20.483       19.332      291.380      419.565      373.731        0.544        0.054       98.310        8.017        0.007      337.422        9.384      860.996
09/28/2014  22:36:00      -75.443       16.125       -4.793       27.065       43.910       19.131      732.505     1928.089      365.990        0.450        0.151       77.147       12.964        0.028      337.433        9.402      861.020
09/28/2014  22:37:00      -63.455      -31.171       -2.354       19.142       21.260       17.299      366.421      451.987      299.251        0.306        0.056       70.698       11.333        0.026      337.444        9.421      861.016
09/28/2014  22:38:00      -75.031       -3.267       -9.658       36.819       25.460       19.252     1355.654      648.210      370.653        0.405        0.119       75.102       16.871        0.050      337.625        9.725      861.009
09/28/2014  22:39:00      -63.404      -25.709      -16.676       14.657       16.807       14.240      214.818      282.467      202.766        0.283        0.035       68.418        5.571        0.007      337.559        9.614      861.010
09/28/2014  22:40:00      -50.096      -17.140       -9.137       19.336       19.676       12.966      373.871      387.125      168.120        0.191        0.046       52.947       10.590        0.040      337.509        9.530      861.008
09/28/2014  22:41:00      -34.714      -10.816       -2.578       17.947       16.165        9.983      322.080      261.299       99.654        0.101        0.034       36.360       10.291        0.080      337.578        9.646      861.020
09/28/2014  22:42:00      -47.570      -28.933       -3.743       19.777       14.648        9.867      391.127      214.578       97.349        0.191        0.035       55.678        5.010        0.008      337.470        9.465      861.031
09/28/2014  22:43:00      -57.852      -31.351       -7.734       19.502       15.509       11.041      380.333      240.543      121.897        0.257        0.037       65.801        7.036        0.011      337.312        9.201      861.045
09/28/2014  22:44:00      -42.649      -22.380       -6.381       14.044        8.861        8.561      197.244       78.519       73.290        0.135        0.017       48.164        5.983        0.015      337.262        9.119      861.048
09/28/2014  22:45:00      -24.185      -23.571       -6.364       16.473       14.882       13.337      271.348      221.460      177.874        0.093        0.034       33.771        8.228        0.059      337.350        9.265      861.060
09/28/2014  22:46:00      -19.855      -20.826       -7.420       17.743       11.704       12.153      314.820      136.994      147.685        0.074        0.030       28.774        9.513        0.109      337.324        9.221      861.070
09/28/2014  22:47:00       11.857      -11.259        1.445        6.037        9.756        8.348       36.444       95.186       69.692        0.024        0.010       16.351        6.210        0.144      337.362        9.285      861.073
09/28/2014  22:48:00        1.909      -20.288       -9.056        6.382        8.059        6.030       40.725       64.950       36.360        0.032        0.007       20.377        3.510        0.030      337.409        9.362      861.068
09/28/2014  22:49:00       -2.375      -12.048       -2.723       12.917        8.134        6.773      166.847       66.167       45.878        0.022        0.014       12.280        4.302        0.123      337.451        9.433      861.052
09/28/2014  22:50:00        1.414      -23.897        1.852       11.545       17.947       11.709      133.292      322.112      137.108        0.058        0.030       23.939        9.827        0.169      337.423        9.385      861.035
09/28/2014  22:51:00       -2.886      -13.764       -1.508        5.516        9.642        6.424       30.430       92.975       41.264        0.018        0.008       14.064        2.473        0.031      337.387        9.325      861.017
09/28/2014  22:52:00       -8.436      -16.667       -6.581        7.732        7.742        5.987       59.789       59.941       35.840        0.027        0.008       18.681        3.207        0.029      337.448        9.427      861.001
09/28/2014  22:53:00       -6.132      -23.397        2.161        7.953        6.192        5.231       63.257       38.340       27.368        0.036        0.006       24.187        1.685        0.005      337.578        9.645      861.006
09/28/2014  22:54:00      -13.845      -24.267       -6.101        7.978        5.177        4.613       63.641       26.804       21.276        0.046        0.006       27.938        2.194        0.006      337.575        9.642      861.026
09/28/2014  22:55:00      -14.195      -23.120       -3.539        9.015       12.064        5.662       81.262      145.537       32.053        0.050        0.013       27.130        4.309        0.025      337.541        9.585      861.051
09/28/2014  22:56:00      -26.778      -23.069       -5.000       10.925        7.393        8.421      119.354       54.654       70.913        0.076        0.012       35.344        3.105        0.008      337.485        9.490      861.069
09/28/2014  22:57:00      -28.204      -39.954        6.028       21.190       18.226       15.641      449.023      332.202      244.630        0.173        0.051       48.906       11.621        0.056      337.388        9.329      861.079
09/28/2014  22:58:00      -30.863      -52.689       -8.084       28.901       25.068       21.644      835.252      628.418      468.462        0.286        0.097       61.063       11.721        0.037      337.480        9.482      861.083
09/28/2014  22:59:00      -41.564      -64.675        3.279       47.810       39.288       25.754     2285.829     1543.537      663.270        0.521        0.225       76.879       19.032        0.061      337.386        9.325      861.092
09/28/2014  23:00:00      -92.264     -112.617       -7.606       44.324       72.903       31.489     1964.585     5314.888      991.569        1.476        0.414      145.586       28.642        0.039      337.447        9.427      861.096
09/28/2014  23:01:00      -83.331      -71.327        4.532       49.206       47.019       23.826     2421.239     2210.770      567.655        0.863        0.260      109.688       21.957        0.040      337.368        9.296      861.112
09/28/2014  23:02:00      -78.114      -64.380        1.886       45.006       55.118       27.481     2025.530     3037.945      755.200        0.803        0.291      101.226       26.042        0.066      337.347        9.260      861.133
09/28/2014  23:03:00     -104.033      -44.746        2.520       38.053       35.965       22.236     1448.065     1293.473      494.430        0.803        0.162      113.248       19.580        0.030      337.294        9.171      861.148
09/28/2014  23:04:00      -63.997      -14.161        3.314       31.297       29.907       19.090      979.532      894.412      364.410        0.327        0.112       65.545       15.372        0.055      337.231        9.065      861.162
09/28/2014  23:05:00     -111.147        3.703       -7.677       35.265       21.636       15.964     1243.593      468.136      254.852        0.720        0.098      111.209       14.272        0.016      337.119        8.878      861.159
09/28/2014  23:06:00     -128.212       -8.025       -9.459       19.205       35.942       12.438      368.832     1291.798      154.695        0.920        0.091      128.463       11.427        0.008      337.224        9.054      861.146
09/28/2014  23:07:00      -71.955      -21.783        2.848       29.521       20.169       14.779      871.499      406.784      218.407        0.358        0.075       75.180       12.701        0.029      337.067        8.789      861.129
09/28/2014  23:08:00      -98.764      -17.278       -5.104       29.583       20.413       15.292      875.180      416.673      233.832        0.580        0.076      100.264       14.375        0.021      337.034        8.734      861.114
09/28/2014  23:09:00      -99.735      -25.738        2.991       38.828       26.889       22.328     1507.594      723.041      498.521        0.667        0.136      103.003       22.526        0.048      337.011        8.697      861.100
09/28/2014  23:10:00      -97.165      -26.909       -3.457       31.406       23.403       15.861      986.317      547.695      251.569        0.598        0.089      100.822       15.799        0.025      337.084        8.818      861.100
09/28/2014  23:11:00      -72.291      -29.822        1.988       17.408       20.230       12.716      303.028      409.270      161.686        0.350        0.044       78.200        9.113        0.014      337.097        8.842      861.104
09/28/2014  23:12:00      -53.332      -16.928       -2.785       26.895       18.284       13.739      723.341      334.323      188.754        0.219        0.062       55.954        9.123        0.027      337.080        8.812      861.110
09/28/2014  23:13:00      -32.657      -25.407        2.515       17.889       18.200       11.724      320.024      331.251      137.446        0.125        0.039       41.376       10.803        0.068      337.120        8.880      861.110
09/28/2014  23:14:00        0.266       -8.302        0.079       12.546        8.269        8.947      157.391       68.373       80.057        0.019        0.015        8.306        3.918        0.222      337.198        9.011      861.106
09/28/2014  23:15:00       14.067      -10.269       -0.274        7.514        8.516        7.330       56.456       72.529       53.726        0.024        0.009       17.417        4.780        0.075      337.302        9.185      861.100
09/28/2014  23:16:00        5.764       -6.135        4.094        8.478       11.872        6.679       71.872      140.947       44.610        0.017        0.013        8.418        6.788        0.650      337.232        9.069      861.099
09/28/2014  23:17:00       -1.513      -12.205        6.945       11.068       24.891       10.587      122.505      619.587      112.076        0.053        0.043       12.299       11.139        0.820      337.206        9.023      861.112
09/28/2014  23:18:00      -14.726      -33.568        0.775       19.116       21.067       15.252      365.412      443.839      232.621        0.119        0.052       36.656        4.031        0.012      337.352        9.269      861.132
09/28/2014  23:19:00      -26.069      -22.875        1.239       23.844       11.383       10.749      568.558      129.568      115.549        0.101        0.041       34.682        8.276        0.057      337.199        9.012      861.152
09/28/2014  23:20:00      -29.555      -21.318        3.854       35.776       17.684       14.285     1279.928      312.721      204.069        0.157        0.090       36.441        8.645        0.056      337.155        8.939      861.169
09/28/2014  23:21:00      -66.413      -30.415       -2.886       24.620       20.871       13.484      606.134      435.608      181.817        0.328        0.061       73.047       11.456        0.025      337.134        8.901      861.175
09/28/2014  23:22:00      -49.187      -26.199        4.842       32.917       21.791       14.393     1083.518      474.846      207.165        0.245        0.088       55.729       15.584        0.078      337.060        8.778      861.173
09/28/2014  23:23:00      -37.622      -31.771        1.854       28.845       22.004       18.289      832.059      484.177      334.493        0.204        0.083       49.243       14.289        0.084      337.136        8.906      861.171
09/28/2014  23:24:00       -6.439      -25.076       13.534       31.162       28.371       17.500      971.081      804.907      306.260        0.147        0.104       25.890       17.984        0.483      337.144        8.918      861.182
09/28/2014  23:25:00      -42.568      -27.241        6.847       37.858       21.621       19.169     1433.221      467.455      367.434        0.243        0.113       50.538       21.374        0.179      337.169        8.961      861.191
09/28/2014  23:26:00      -64.265      -41.924        1.070       31.242       22.963       18.069      976.081      527.287      326.475        0.386        0.091       76.731       18.604        0.059      337.155        8.940      861.195
09/28/2014  23:27:00      -93.677      -38.197       -4.688       24.993       20.674       10.986      624.668      427.404      120.693        0.571        0.059      101.165       11.328        0.013      337.113        8.867      861.192
09/28/2014  23:28:00      -69.248      -16.576       -3.738       26.660       21.842       15.669      710.760      477.065      245.519        0.326        0.072       71.205       15.477        0.047      336.992        8.664      861.179
09/28/2014  23:29:00      -78.352        4.064       -7.296       18.647       14.675       13.638      347.706      215.361      186.000        0.348        0.037       78.457       11.490        0.021      337.037        8.740      861.173
09/28/2014  23:30:00      -62.960       -4.074       -5.448       11.366       10.654        9.603      129.180      113.504       92.217        0.217        0.017       63.092        8.161        0.017      337.106        8.855      861.166
09/28/2014  23:31:00      -49.235       14.508       -3.317        7.587        8.221        4.921       57.558       67.592       24.215        0.140        0.007       51.328        2.534        0.002      337.204        9.022      861.170
09/28/2014  23:32:00      -27.865       34.778       -2.391       17.459        8.906        9.631      304.807       79.313       92.751        0.123        0.024       44.564       10.244        0.053      337.194        9.004      861.185
09/28/2014  23:33:00        5.658       89.809      -11.884       12.353       26.078       11.859      152.596      680.081      140.634        0.461        0.049       89.987       10.132        0.013      336.975        8.636      861.186
09/28/2014  23:34:00      -10.315       98.641       -9.660       10.991       21.256       14.810      120.793      451.825      219.327        0.536        0.040       99.179        9.826        0.010      337.068        8.793      861.200
09/28/2014  23:35:00       11.802       78.824      -14.180        9.881       11.090        6.826       97.628      122.995       46.596        0.341        0.013       79.702        2.864        0.001      337.034        8.734      861.205
09/28/2014  23:36:00       15.104       29.731       -4.127       10.582       29.566        8.628      111.977      874.144       74.439        0.109        0.053       33.348       12.533        0.141      336.883        8.481      861.225
09/28/2014  23:37:00       19.240       24.717      -14.483        9.815        8.850        6.685       96.327       78.321       44.691        0.071        0.011       31.322        7.115        0.052      336.827        8.392      861.252
09/28/2014  23:38:00        4.212       23.562       -5.479       15.913       19.134        7.157      253.232      366.093       51.220        0.064        0.034       23.935        3.591        0.023      336.797        8.342      861.270
09/28/2014  23:39:00        9.349       67.207       -7.754        9.900       10.868        7.471       98.007      118.123       55.818        0.247        0.014       67.854        4.182        0.004      336.929        8.559      861.285
09/28/2014  23:40:00       10.895       71.092      -10.427       10.574       10.034        6.186      111.818      100.686       38.266        0.277        0.013       71.922        3.749        0.003      337.048        8.759      861.291
09/28/2014  23:41:00       22.786       34.745       -2.511       16.518       22.346        6.326      272.855      499.327       40.017        0.127        0.041       41.550        8.029        0.037      337.000        8.674      861.302
09/28/2014  23:42:00       33.493        2.811       -1.590       10.404       10.568        5.378      108.253      111.686       28.918        0.069        0.012       33.611        4.909        0.021      336.959        8.610      861.308
09/28/2014  23:43:00       12.299      -25.984       -4.609       10.678       18.285        8.998      114.017      334.342       80.968        0.069        0.026       28.748       10.970        0.146      337.039        8.744      861.320
09/28/2014  23:44:00        4.668      -50.928      -11.512       17.218       19.005       10.833      296.459      361.199      117.361        0.176        0.039       51.142        9.287        0.033      336.962        8.613      861.328
09/28/2014  23:45:00      -20.406      -13.525      -11.863       19.687       23.011       17.181      387.579      529.490      295.192        0.098        0.061       24.481       10.513        0.184      336.968        8.622      861.329
09/28/2014  23:46:00      -25.598        9.426       -8.650       22.301       16.581       16.095      497.313      274.931      259.050        0.092        0.052       27.278        8.768        0.103      336.987        8.655      861.320
09/28/2014  23:47:00      -26.198      -17.349        0.274       26.709       23.860       13.438      713.355      569.309      180.578        0.123        0.073       31.422        8.008        0.065      336.932        8.564      861.317
09/28/2014  23:48:00      -25.034       -8.376        0.302       24.097       16.821       15.613      580.686      282.959      243.764        0.090        0.055       26.398       12.717        0.232      336.906        8.521      861.321
09/28/2014  23:49:00       11.545       14.206       -2.446       10.036       10.043        8.462      100.717      100.863       71.599        0.031        0.014       18.306        6.208        0.115      336.904        8.517      861.329
09/28/2014  23:50:00      -20.601        6.375       -4.279       23.084        6.714        7.479      532.851       45.077       55.930        0.056        0.032       21.564        6.601        0.094      336.929        8.560      861.335
09/28/2014  23:51:00      -60.098       -4.956      -11.596       19.034       17.598        8.794      362.306      309.693       77.332        0.226        0.037       60.302        5.906        0.010      336.974        8.634      861.338
09/28/2014  23:52:00     -107.937      -52.711       -2.487       38.707       24.733       18.279     1498.266      611.738      334.129        0.844        0.122      120.120       20.388        0.029      336.936        8.572      861.329
09/28/2014  23:53:00      -77.020      -43.890        1.271       52.395       20.921       17.214     2745.263      437.679      296.336        0.567        0.174       88.648       20.127        0.052      336.877        8.473      861.312
09/28/2014  23:54:00     -104.510      -27.321       -9.616       23.170       27.986       13.581      536.852      783.235      184.433        0.663        0.075      108.022        9.033        0.007      336.795        8.337      861.293
09/28/2014  23:55:00      -95.521      -10.236       -2.146       30.494       16.991       14.814      929.913      288.699      219.451        0.534        0.072       96.068       14.959        0.024      336.644        8.086      861.271
09/28/2014  23:56:00     -100.880      -27.757       -4.210       29.399       19.986       14.676      864.276      399.442      215.389        0.622        0.074      104.629       14.246        0.019      336.671        8.130      861.261
09/28/2014  23:57:00      -82.884      -28.366        4.037       46.376       26.356       19.274     2150.757      694.640      371.474        0.545        0.161       87.603       15.914        0.033      336.608        8.024      861.260
09/28/2014  23:58:00     -125.348      -54.050        6.703       35.600       21.321       21.971     1267.326      454.603      482.724        1.044        0.110      136.505       21.506        0.025      336.630        8.062      861.260
09/28/2014  23:59:00      -91.477      -43.644        3.022       37.279       29.769       22.947     1389.728      886.195      526.584        0.654        0.140      101.355       19.152        0.036      336.682        8.150      861.257
